GFSSE_con_lsi_000.txt.gz
Lid_Strength_Index
1 -0 -1 -1 -1 -1 -1 -1 -1 -1 -2 -2 -2 -2 -2 -2 -2 -2 -2 -2 -2 -2 -2 -2 -2 -2 -2 -2 -1 -1 -1 -2 -2 -2 -3 -2 -2 -2 -2 -2 -2 -1 -1
-0 -0 -1 -1 -1 -1 -1 -1 -1 -1 -2 -2 -2 -2 -2 -2 -2 -2 -2 -2 -2 -2 -2 -2 -2 -2 -2 -1 -1 -1 -1 -2 -2 -2 -2 -1 -1 -1 -1 -2 -2 -1 -1
-0 -0 -1 -1 -1 -1 -1 -1 -1 -2 -2 -2 -1 -1 -1 -1 -2 -2 -2 -2 -2 -2 -2 -2 -2 -2 -2 -1 -1 -1 -1 -2 -2 -2 -2 -0 0 -1 -1 -2 -2 -2 -1
-0 -0 -1 -1 -1 -1 -1 -1 -1 -2 -2 -1 -1 -1 -1 -1 -1 -1 -2 -2 -2 -2 -2 -2 -2 -2 -2 -1 -1 -1 -1 -1 -2 -2 -0 -1 -1 -1 -1 -1 -2 -2 -1
-0 -0 -1 -0 -1 -1 -1 -1 -1 -1 -1 -1 -2 -1 -1 -1 -2 -2 -2 -2 -2 -2 -2 -2 -2 -1 -1 -1 -1 -1 -1 -1 -2 -1 0 -0 -0 -0 -1 -2 -1 -2 -2
-0 -0 0 0 -1 -1 -1 -1 -1 -1 -1 -2 -2 -1 -1 -1 -2 -2 -2 -2 -1 -1 -1 -1 -1 -1 -1 -2 -2 -2 -2 -2 -2 1 0 -1 -0 -2 -2 -1 -1 -2 -2
0 -1 -0 0 -0 -1 -1 -1 -1 -1 -1 -1 -1 -1 -1 -1 -1 -1 -1 -1 -1 -1 -1 -1 -1 -2 -2 -2 -2 -2 -2 -2 -0 0 1 0 0 -1 -1 -1 -1 -2 -2
0 0 -1 -0 -0 -0 -1 -1 -1 -1 -2 -1 -1 -2 -1 -1 -1 -1 -1 -1 -1 -1 -1 -1 -2 -2 -2 -2 -2 -3 -3 -2 -1 0 0 0 -1 -1 -1 -1 -2 -2 -2
0 0 -0 -0 -1 -0 -0 -1 -1 -1 -2 -2 -1 -2 -2 -2 -2 -2 -2 -1 -1 -2 -2 -2 -2 -2 -2 -2 -3 -3 -3 -2 -0 2 0 0 -1 -1 -1 -2 -2 -2 -2
0 0 1 0 0 0 -0 -1 -1 -1 -1 -1 -2 -2 -2 -2 -2 -3 -2 -2 -2 -2 -2 -2 -2 -2 -2 -2 -3 -3 -3 -2 0 2 0 0 -1 -1 -1 -1 -2 -2 -2
1 0 0 0 0 0 0 -1 -1 -2 -2 -1 -2 -1 -1 -1 -1 -1 -1 -2 -2 -2 -2 -2 -2 -2 -2 -2 -2 -2 -2 -0 0 0 0 -1 -2 -2 -1 -1 -1 -1 -1
2 1 1 1 0 0 -1 -0 -0 -1 -1 -0 -0 -0 -0 0 0 -1 -1 -2 -2 -1 -2 -2 -2 -2 -1 0 1 0 3 2 1 2 -1 -1 -1 -2 -2 -2 -1 -1 -1
3 1 2 1 0 0 0 0 0 0 0 0 0 0 1 0 1 1 1 0 1 -0 0 -0 0 0 1 1 1 2 4 4 4 3 1 -2 -2 -2 -2 -2 -2 -2 -1
3 2 2 2 1 2 1 0 0 1 1 1 1 1 1 1 2 1 1 1 1 1 1 1 1 1 1 0 1 2 4 4 4 3 2 -2 -3 -2 -2 -2 -2 -2 -2
2 2 2 2 2 2 2 2 2 2 1 1 1 1 1 1 2 1 2 2 2 2 2 2 1 1 2 2 2 3 4 4 4 4 4 -1 -3 -3 -2 -3 -2 -2 -2
2 2 1 0 1 1 2 2 2 2 2 2 2 1 1 1 2 2 2 2 1 2 2 2 3 2 2 2 2 3 3 5 5 4 4 3 -1 -2 -3 -2 -2 -2 -2
2 1 1 1 2 1 2 2 2 3 2 3 3 2 2 2 2 2 3 2 2 1 1 2 2 2 2 2 3 2 2 3 4 4 4 3 2 -1 -2 -2 -3 -3 -2
2 2 1 1 0 2 2 3 4 2 3 3 3 3 3 2 3 3 3 3 2 2 2 3 2 3 3 4 4 3 3 3 3 4 4 4 3 3 0 -1 -2 -2 -3
2 2 2 1 1 1 3 2 3 3 3 3 3 4 3 2 2 3 3 3 3 3 4 4 4 4 5 5 4 5 4 3 3 2 3 3 4 3 4 2 -1 -1 -2
4 4 4 2 2 3 5 4 5 4 4 4 4 3 3 3 3 4 4 4 4 4 5 5 5 5 5 5 4 5 5 4 4 3 3 2 3 3 3 4 4 1 -1
7 6 5 5 4 5 5 5 5 6 5 5 5 4 3 3 3 4 4 4 4 5 5 5 5 5 5 5 6 5 6 5 5 4 4 4 3 4 4 4 3 4 2
6 5 5 5 5 5 4 5 5 6 5 5 3 3 3 4 4 4 5 5 5 5 6 6 5 6 6 5 6 7 8 6 6 5 5 5 5 4 4 4 3 3 3
7 7 6 6 6 5 5 5 5 5 4 4 5 5 4 5 5 5 5 5 5 5 6 6 6 6 6 6 6 6 9 10 8 6 6 6 6 6 5 4 3 3 2
6 6 5 5 5 5 5 5 5 6 6 5 5 6 6 5 5 5 5 5 5 5 6 6 5 6 6 7 6 5 6 7 8 9 8 6 6 6 6 5 5 4 1
5 5 5 5 5 5 5 6 6 6 6 6 6 7 7 6 5 6 6 6 6 5 6 6 5 6 6 6 7 7 7 7 6 8 10 9 7 7 6 6 6 4 3
5 6 6 6 5 5 6 6 5 6 7 7 7 8 7 7 6 6 6 6 6 6 6 6 6 6 6 6 6 6 6 7 7 8 7 8 9 8 7 6 6 5 4

GFSSE_con_lsi_003.txt.gz
Lid_Strength_Index
1 -0 -1 -1 -1 -1 -1 -1 -1 -1 -2 -2 -2 -1 -2 -2 -2 -2 -2 -2 -2 -2 -2 -2 -2 -2 -1 -1 -1 -1 -1 -2 -2 -2 -2 -2 -2 -2 -2 -2 -2 -1 -1
-0 -0 -0 -1 -1 -1 -1 -1 -1 -1 -2 -1 -1 -1 -1 -1 -1 -2 -2 -2 -2 -2 -2 -2 -1 -1 -1 -1 -1 -1 -1 -1 -2 -2 -2 -2 -1 -2 -2 -2 -2 -1 -1
0 -0 -1 -1 -1 -1 -1 -1 -1 -2 -1 -1 -1 -1 -1 -1 -2 -1 -1 -2 -2 -2 -2 -2 -2 -2 -1 -1 -1 -1 -1 -1 -2 -2 -2 0 -0 -1 -1 -2 -2 -2 -1
-0 -0 -1 -1 -1 -1 -1 -1 -1 -2 -1 -1 -1 -1 -1 -2 -1 -2 -2 -2 -2 -2 -2 -2 -2 -2 -1 -1 -1 -1 -1 -1 -1 -2 -0 -1 -1 -1 -1 -2 -2 -2 -2
-0 -0 -0 -0 -1 -1 -1 -1 -1 -1 -1 -1 -1 -1 -1 -1 -1 -1 -1 -2 -2 -2 -2 -2 -2 -2 -2 -2 -1 -2 -2 -1 -2 -1 0 0 -0 -1 -2 -2 -2 -2 -2
0 0 0 -0 -0 -1 -1 -1 -1 -1 -1 -2 -2 -1 -1 -1 -1 -1 -2 -1 -2 -2 -2 -2 -2 -2 -2 -2 -2 -2 -2 -2 -2 0 1 -0 -0 -1 -2 -2 -2 -1 -2
0 -0 -0 0 -0 -1 -1 -1 -1 -1 -1 -2 -1 -1 -1 -1 -1 -1 -1 -1 -1 -1 -1 -1 -2 -2 -2 -2 -2 -2 -2 -2 -0 0 1 1 0 -1 -2 -2 -2 -2 -1
0 -0 -0 -1 -1 -1 -1 -1 -1 -1 -1 -2 -2 -1 -1 -1 -1 -1 -2 -2 -1 -2 -2 -2 -2 -2 -2 -2 -2 -3 -2 -2 -1 1 2 0 -1 -1 -1 -1 -2 -2 -2
1 -0 -0 -1 -1 -0 -0 -0 -1 -1 -1 -1 -1 -1 -2 -2 -2 -2 -2 -1 -1 -1 -2 -2 -2 -2 -2 -2 -3 -3 -3 -2 0 1 1 -0 -1 -2 -2 -1 -2 -2 -2
1 1 1 1 1 1 1 -0 -1 -1 -1 -1 -1 -2 -2 -2 -2 -2 -2 -2 -1 -2 -2 -2 -2 -3 -3 -3 -3 -3 -2 -2 1 1 0 0 -1 -2 -2 -1 -1 -1 -2
2 2 1 1 1 1 1 -0 -1 -1 -1 -1 -1 -1 -1 0 0 -0 -1 -2 -2 -2 -2 -2 -2 -2 -2 -2 -2 -2 -2 2 2 1 1 -2 -1 -2 -2 -2 -2 -1 -1
3 2 0 1 0 0 -1 0 0 -0 -0 -0 -0 0 0 1 1 -0 -1 -1 -2 -1 -2 -2 -2 -2 -1 1 1 -1 3 4 3 3 2 -2 -2 -2 -2 -2 -2 -2 -2
2 1 1 0 0 0 0 0 0 0 0 0 0 0 1 0 1 1 1 1 1 -0 1 0 0 1 1 1 1 1 2 4 4 3 1 -2 -2 -2 -2 -2 -2 -2 -2
2 1 1 1 0 0 0 0 0 0 1 0 0 1 1 1 1 1 1 1 1 1 1 0 1 1 1 0 0 1 2 4 4 4 3 -1 -3 -2 -2 -3 -3 -2 -3
3 2 2 1 1 1 1 1 1 1 1 0 1 1 1 1 2 2 2 2 2 2 2 2 3 2 3 3 2 2 3 4 4 4 4 0 -1 -3 -3 -3 -3 -3 -3
2 2 3 2 1 2 3 2 2 2 1 1 1 2 3 2 3 2 3 3 2 2 2 2 2 3 3 3 2 2 2 3 4 4 4 4 0 -2 -3 -3 -3 -3 -3
3 2 2 2 2 2 2 2 3 2 2 3 4 4 3 2 3 3 4 4 3 3 3 3 3 3 4 3 4 3 3 3 3 3 4 4 4 1 -1 -2 -2 -3 -3
3 2 1 0 2 1 2 2 3 3 4 4 4 3 3 3 3 4 5 5 4 3 4 4 4 5 5 5 5 4 4 3 3 2 3 4 4 3 2 0 -1 -2 -2
2 1 2 1 0 0 2 4 4 4 4 5 5 4 4 4 4 5 5 4 4 4 5 5 5 5 5 6 5 6 6 5 4 2 3 4 4 4 4 3 2 1 -1
5 4 3 3 2 4 4 5 5 4 4 4 5 5 4 4 4 4 4 4 4 5 6 6 6 6 6 6 5 5 6 6 5 5 5 4 5 5 5 5 4 4 2
7 6 5 5 5 4 4 5 5 6 5 5 5 5 5 5 4 5 5 5 5 6 6 6 6 6 6 6 7 6 7 7 6 5 5 5 5 5 5 5 5 5 5
7 7 6 5 6 5 5 5 4 5 5 4 4 5 5 5 5 5 5 6 6 6 6 6 6 6 6 6 7 7 9 7 6 5 6 6 7 5 5 5 5 7 7
8 7 7 6 6 5 4 4 5 5 5 6 7 6 6 5 5 6 6 6 6 6 7 7 6 6 7 6 6 7 9 10 9 6 6 7 7 7 6 5 5 6 6
7 7 6 6 6 5 5 6 6 6 6 6 6 7 7 6 6 6 6 6 7 7 7 6 6 7 7 8 6 5 6 7 9 10 8 7 7 7 7 7 6 6 5
7 7 6 6 5 6 6 6 6 7 7 7 8 8 8 7 7 6 7 6 7 7 8 8 7 7 7 7 7 7 7 7 7 8 10 9 7 7 6 6 6 6 5
7 7 7 6 6 6 6 6 6 7 7 8 9 9 8 7 7 7 6 7 7 8 8 7 8 7 7 7 6 5 5 6 6 6 7 8 8 7 7 5 6 5 5

GFSSE_con_lsi_006.txt.gz
Lid_Strength_Index
1 -0 -1 -1 -1 -1 -1 -1 -1 -2 -2 -2 -2 -2 -2 -2 -2 -2 -2 -2 -2 -2 -2 -2 -2 -2 -2 -2 -1 -1 -1 -1 -2 -2 -2 -2 -2 -2 -2 -2 -2 -1 -1
0 -0 -0 -1 -1 -1 -1 -2 -2 -2 -2 -1 -1 -1 -1 -2 -1 -1 -2 -2 -2 -2 -2 -2 -2 -2 -2 -2 -2 -1 -1 -1 -2 -1 -1 -1 -2 -2 -2 -2 -3 -1 -1
-0 -0 -1 -1 -1 -1 -1 -2 -1 -2 -1 -1 -1 -1 -1 -2 -2 -2 -2 -2 -2 -2 -2 -2 -2 -2 -2 -2 -2 -2 -2 -1 -1 -1 -1 -1 -1 -2 -1 -2 -2 -2 -2
-0 -0 -1 -1 -1 -1 -1 -1 -1 -1 -1 -1 -1 -1 -2 -1 -2 -2 -2 -2 -2 -2 -2 -2 -2 -2 -2 -2 -2 -2 -2 -2 -2 -1 -1 -1 -1 -2 -2 -2 -2 -2 -1
0 -0 -0 -1 -1 -1 -1 -1 -1 -1 -1 -1 -1 -1 -1 -1 -1 -2 -2 -2 -2 -2 -2 -2 -2 -2 -2 -2 -2 -2 -2 -2 -2 -1 0 -0 -1 -1 -2 -2 -1 -2 -2
0 0 0 -0 -1 -1 -1 -1 -1 -1 -1 -1 -2 -1 -1 -1 -2 -1 -2 -2 -2 -2 -2 -2 -2 -2 -2 -2 -2 -2 -2 -2 -2 -0 0 0 -0 -1 -2 -2 -2 -2 -2
0 0 -0 0 -1 -1 -1 -1 -1 -1 -1 -2 -2 -2 -1 -1 -1 -1 -2 -2 -2 -2 -2 -2 -2 -2 -2 -2 -2 -2 -2 -2 -0 0 1 0 -0 -2 -2 -2 -2 -1 -2
0 -0 -0 -1 -1 -1 -1 -1 -1 -1 -2 -2 -2 -1 -1 -1 -1 -1 -2 -2 -2 -2 -2 -2 -2 -2 -2 -2 -2 -3 -3 -2 -1 1 1 -0 -1 -2 -2 -2 -2 -1 -2
-0 -0 -0 -0 -1 -0 -0 -0 -0 -1 -1 -2 -2 -2 -2 -2 -2 -2 -2 -2 -2 -2 -2 -2 -3 -3 -2 -2 -3 -3 -3 -2 1 1 0 -1 -1 -2 -2 -2 -2 -2 -2
1 1 1 0 -1 0 0 -0 -0 -1 -1 -1 -2 -2 -2 -2 -2 -2 -2 -2 -2 -2 -2 -2 -2 -3 -3 -3 -3 -3 -2 0 3 2 2 0 -2 -2 -2 -2 -2 -2 -2
1 1 0 1 0 1 1 -0 -1 -1 -1 -1 -1 -1 -1 0 0 0 -1 -2 -2 -2 -2 -2 -2 -2 -2 -2 -2 -2 -2 3 4 3 3 -0 -2 -2 -2 -2 -2 -2 -2
2 2 2 2 2 1 -1 1 1 0 0 0 -0 0 0 1 1 -0 -1 -1 -2 -1 -1 -1 -2 -1 -1 1 1 -0 1 2 4 4 3 -1 -2 -2 -2 -2 -2 -2 -2
2 2 2 2 1 1 1 1 1 0 1 0 0 1 1 0 1 1 1 1 1 -0 0 -0 0 1 1 1 1 0 1 1 3 4 3 -1 -2 -2 -2 -2 -3 -3 -3
3 2 1 1 0 1 1 1 1 0 0 1 1 0 1 1 2 1 1 2 2 2 2 1 1 1 1 1 1 1 1 1 3 3 3 0 -1 -2 -3 -3 -3 -3 -3
2 2 2 1 0 0 1 1 1 1 1 1 1 1 2 2 3 2 3 2 2 2 2 2 2 2 3 2 2 2 2 3 3 3 4 1 -0 -1 -2 -3 -3 -3 -3
2 2 2 1 1 2 2 2 2 2 1 1 2 3 3 3 3 2 3 4 4 3 3 3 3 3 3 3 4 3 3 3 3 3 3 3 1 0 -1 -1 -2 -2 -3
3 3 3 2 2 2 2 1 1 2 2 2 3 5 3 3 3 4 5 6 5 4 4 4 4 4 5 4 4 4 4 4 4 3 3 3 3 2 1 0 -0 -1 -1
3 3 2 1 1 1 2 2 2 3 3 3 3 3 4 4 5 6 6 6 5 4 5 5 5 6 6 6 6 6 6 5 4 3 4 4 4 5 4 2 2 2 1
1 2 2 1 1 1 2 3 3 4 4 5 5 5 5 5 5 5 5 5 5 6 6 6 6 6 6 6 6 6 6 6 5 3 4 5 5 5 5 4 4 4 3
3 3 3 3 3 3 3 3 3 5 5 4 4 4 5 5 4 4 5 6 6 6 7 6 6 6 6 6 5 6 6 6 5 5 5 5 5 6 6 6 6 6 5
5 6 5 4 4 4 5 5 5 5 4 3 5 5 5 5 6 6 6 6 6 7 7 7 7 7 7 6 7 7 7 6 6 5 5 6 6 5 5 6 6 6 7
6 5 4 5 5 4 5 5 4 3 4 5 6 7 7 6 6 6 6 7 7 7 7 7 7 7 7 6 7 8 9 8 6 6 6 6 6 6 6 6 6 5 6
7 7 6 6 5 5 4 4 5 6 6 7 7 8 7 6 7 7 7 7 7 7 7 8 7 7 8 7 7 8 10 11 9 7 7 7 7 6 6 5 5 5 5
8 8 7 6 6 6 6 6 6 7 7 7 8 8 8 7 7 6 7 7 7 8 8 7 7 8 8 10 8 7 7 8 9 10 7 7 6 6 6 6 5 5 4
8 8 8 6 6 6 6 6 7 8 7 8 8 8 8 7 7 7 7 8 8 8 8 8 9 9 9 9 9 8 8 7 7 8 10 8 6 6 5 5 5 4 4
8 8 7 7 7 7 7 7 7 8 8 9 9 9 8 8 8 8 8 8 9 9 9 9 9 9 9 9 8 8 7 8 8 7 8 8 8 5 6 4 4 3 3

GFSSE_con_lsi_009.txt.gz
Lid_Strength_Index
1 -1 -1 -1 -1 -1 -1 -1 -2 -2 -2 -2 -2 -2 -2 -2 -2 -2 -2 -2 -2 -2 -2 -2 -2 -2 -2 -2 -2 -2 -2 -1 -1 -2 -2 -2 -2 -2 -2 -2 -3 -1 -2
-0 -1 -1 -1 -1 -2 -2 -2 -2 -2 -2 -2 -2 -2 -2 -2 -2 -2 -2 -2 -3 -2 -2 -2 -2 -2 -2 -2 -2 -2 -2 -2 -2 -1 -2 -2 -2 -2 -2 -2 -2 -2 -2
-0 -1 -1 -1 -1 -2 -2 -2 -2 -2 -2 -2 -1 -2 -2 -2 -2 -2 -2 -2 -2 -2 -2 -2 -2 -2 -2 -2 -2 -2 -2 -2 -2 -2 -2 -2 -2 -2 -2 -2 -2 -2 -1
-1 -1 -1 -1 -1 -1 -1 -1 -1 -2 -1 -1 -1 -2 -2 -2 -2 -2 -2 -2 -2 -2 -2 -2 -2 -2 -2 -2 -2 -2 -2 -2 -2 -2 -2 -2 -1 -2 -2 -2 -2 -2 -1
-1 -1 -1 -1 -1 -1 -1 -1 -1 -1 -2 -2 -2 -2 -2 -2 -2 -2 -2 -3 -2 -2 -2 -2 -2 -2 -2 -2 -2 -2 -2 -2 -2 -2 -2 -2 -2 -1 -2 -2 -2 -2 -2
-1 -1 -1 -1 -1 -1 -1 -1 -1 -1 -1 -2 -2 -2 -2 -2 -2 -2 -2 -2 -2 -2 -2 -2 -2 -2 -2 -2 -2 -2 -2 -2 -2 -2 -2 -2 -2 -2 -2 -2 -2 -2 -2
-0 -1 -1 -0 -1 -1 -1 -1 -1 -1 -1 -2 -2 -2 -2 -2 -2 -2 -2 -2 -2 -2 -2 -2 -2 -2 -2 -2 -2 -2 -3 -2 -2 -2 -2 -2 -2 -2 -2 -2 -2 -2 -2
-0 -1 -1 -1 -1 -1 -1 -1 -1 -1 -2 -2 -2 -2 -1 -2 -2 -2 -2 -2 -2 -2 -2 -2 -2 -2 -2 -2 -2 -3 -3 -3 -1 -1 -2 -2 -2 -2 -2 -2 -2 -2 -2
-1 -1 -1 -1 -1 -0 -0 -0 -1 -1 -2 -2 -2 -2 -2 -2 -2 -2 -2 -2 -2 -2 -2 -2 -2 -2 -2 -2 -2 -2 -2 -1 -0 -0 0 -1 -2 -2 -2 -2 -2 -2 -2
-0 -1 -1 -1 -1 -1 -2 -0 -0 -1 -1 -2 -2 -2 -2 -2 -2 -2 -2 -2 -2 -2 -2 -2 -3 -3 -3 -3 -2 -2 -2 -1 -1 -0 -0 -0 -2 -2 -2 -2 -2 -2 -2
0 -0 -1 -0 -1 -1 -1 -1 -1 -1 -1 -1 -2 -2 -1 -2 -2 -1 -2 -2 -2 -2 -2 -2 -2 -2 -2 -2 -2 -2 -2 -2 -2 -1 -1 -0 -2 -2 -2 -2 -2 -2 -2
2 1 1 0 -0 -1 -1 -1 -1 -1 -2 -2 -2 -1 -2 -2 -2 -2 -1 -1 -1 -2 -2 -2 -2 -2 -1 -2 -2 -2 -2 -2 -2 -2 -2 -1 -2 -2 -2 -3 -3 -3 -3
1 1 1 1 0 -1 -1 -1 -1 -2 -2 -2 -2 -2 -2 -2 -2 -2 -2 -2 -2 -2 -2 -2 -2 -2 -2 -2 -2 -2 -2 -2 -2 -1 -1 -1 -1 -2 -2 -3 -3 -3 -3
1 1 -0 -1 -1 -1 -1 -1 -1 -1 -1 -1 -1 -2 -1 -1 -2 -2 -2 -2 -2 -2 -2 -2 -2 -2 -2 -1 -1 -1 -1 -0 1 0 -0 0 -1 -2 -2 -2 -2 -2 -3
2 1 0 -1 -1 -1 -1 -1 -1 -1 -1 -1 -1 -2 -2 -1 -2 -2 -2 -1 -1 -1 -0 -1 -1 -1 -1 -0 -0 0 1 1 0 0 -1 0 -1 -2 -2 -2 -2 -2 -2
1 1 -0 -0 -1 -1 -1 -1 -1 -1 -0 -0 -0 1 -0 -1 -1 -1 0 1 1 1 1 0 -0 0 1 1 0 0 1 1 1 0 0 0 1 1 0 -0 -1 -1 -2
1 0 0 0 -1 -1 -0 -1 -0 -0 0 1 1 1 2 1 0 1 1 1 2 1 1 1 1 0 1 2 2 2 2 2 2 1 1 1 1 2 2 2 2 1 1
1 1 0 -0 -0 -1 -1 -0 1 2 1 2 2 2 2 2 1 1 2 2 2 2 2 2 2 2 2 2 3 3 3 3 2 0 2 2 2 3 3 3 3 3 2
1 1 0 -0 -0 0 1 4 3 3 3 3 2 3 2 3 2 2 2 3 3 3 2 2 3 3 3 4 5 4 4 4 1 1 2 3 3 3 3 4 4 4 4
1 0 1 1 0 1 2 3 3 2 2 2 3 4 3 3 2 2 3 3 2 2 3 3 3 3 4 4 6 5 4 3 1 1 2 3 3 3 4 4 4 5 5
1 2 2 2 2 1 2 2 2 2 2 3 3 3 3 3 3 3 3 2 2 3 3 3 3 5 5 4 5 5 5 2 1 2 2 3 3 4 3 4 4 5 5
2 2 1 2 2 1 1 1 0 0 2 3 4 4 4 3 3 3 2 3 3 3 3 3 4 5 4 3 6 6 7 6 4 3 3 3 4 4 4 4 4 5 5
2 2 1 1 1 2 1 2 2 2 2 3 4 4 3 3 3 3 3 3 3 3 3 3 4 4 5 4 4 6 8 9 7 5 4 4 4 4 4 4 4 4 3
5 4 3 3 3 3 3 2 2 3 3 3 4 3 3 3 3 3 4 3 3 3 4 4 5 5 5 7 6 5 5 6 9 9 6 5 5 5 5 4 5 4 4
5 4 4 4 4 3 3 3 3 3 3 4 3 4 4 4 4 4 4 4 4 4 5 5 5 6 6 7 7 7 7 7 6 7 9 8 6 5 4 4 3 3 3
5 4 4 4 5 4 4 4 3 4 4 4 4 4 4 4 4 4 5 5 5 5 5 6 6 6 6 6 6 6 7 8 8 7 7 6 6 5 4 3 3 2 2

GFSSE_con_lsi_012.txt.gz
Lid_Strength_Index
0 -1 -1 -1 -1 -1 -1 -1 -1 -2 -2 -2 -2 -2 -2 -2 -2 -2 -2 -2 -3 -2 -2 -2 -2 -2 -2 -2 -2 -2 -2 -2 -2 -2 -2 -1 -2 -2 -2 -2 -3 -2 -2
-1 -1 -1 -1 -1 -2 -2 -2 -1 -2 -2 -2 -2 -2 -2 -2 -2 -2 -2 -2 -3 -2 -2 -2 -2 -2 -2 -2 -2 -2 -2 -2 -2 -1 -2 -1 -2 -2 -2 -1 -2 -2 -2
-0 -1 -2 -1 -1 -2 -2 -2 -2 -2 -2 -2 -2 -2 -2 -2 -2 -2 -2 -2 -2 -2 -2 -2 -2 -2 -2 -2 -2 -2 -2 -2 -2 -2 -2 -2 -2 -2 -2 -2 -2 -2 -2
-1 -1 -1 -1 -1 -1 -1 -2 -2 -2 -1 -1 -2 -2 -2 -2 -2 -2 -2 -2 -2 -2 -2 -2 -2 -2 -2 -2 -2 -2 -2 -2 -2 -4 -2 -2 -2 -2 -2 -2 -2 -2 -2
-1 -1 -1 -1 -1 -2 -2 -2 -2 -1 -2 -2 -2 -2 -2 -2 -2 -2 -2 -2 -2 -2 -2 -2 -2 -2 -2 -2 -2 -2 -2 -2 -3 -2 -2 -2 -2 -2 -2 -2 -2 -2 -2
-1 -1 -1 -1 -1 -2 -2 -2 -2 -2 -2 -2 -2 -2 -2 -2 -2 -2 -2 -2 -2 -2 -2 -2 -2 -2 -2 -2 -2 -2 -2 -3 -3 -2 -2 -2 -2 -2 -2 -2 -2 -2 -2
-0 -1 -1 -0 -1 -1 -2 -1 -1 -1 -2 -2 -2 -2 -2 -2 -2 -2 -2 -2 -2 -2 -2 -2 -2 -2 -2 -2 -2 -2 -3 -3 -1 -1 -1 -2 -2 -2 -2 -2 -2 -2 -2
-0 -1 -1 -1 -1 -1 -1 -1 -1 -1 -2 -2 -2 -1 -1 -2 -2 -2 -2 -2 -2 -2 -2 -2 -2 -2 -2 -2 -2 -2 -2 -2 -1 -1 -1 -1 -2 -2 -2 -2 -1 -2 -2
-1 -1 -1 -1 -1 -0 -0 -1 -1 -1 -2 -2 -2 -2 -2 -2 -2 -2 -1 -2 -2 -2 -2 -2 -2 -2 -2 -2 -2 -2 -2 -1 -2 -1 -0 -1 -2 -2 -2 -2 -2 -2 -2
-0 -1 -1 -1 -1 -2 -2 -0 -1 -1 -2 -2 -2 -2 -2 -3 -2 -2 -2 -2 -1 -2 -1 -2 -2 -2 -2 -3 -3 -3 -3 -3 -2 -2 -1 -1 -2 -2 -2 -2 -2 -2 -2
0 -0 -1 -1 -1 -2 -2 -1 -1 -2 -2 -2 -2 -2 -2 -3 -2 -2 -2 -2 -2 -2 -2 -2 -2 -2 -3 -3 -3 -3 -3 -2 -2 -1 -1 -2 -2 -2 -2 -2 -2 -2 -2
1 1 -0 -0 -1 -1 -1 -2 -2 -2 -2 -2 -2 -2 -3 -2 -2 -2 -2 -2 -2 -2 -2 -3 -2 -3 -2 -2 -2 -3 -2 -2 -2 -2 -2 -1 -2 -2 -2 -2 -3 -3 -2
1 1 -0 -0 -1 -1 -1 -2 -2 -2 -2 -2 -2 -2 -2 -2 -2 -2 -2 -3 -3 -2 -2 -2 -2 -2 -2 -2 -2 -2 -2 -2 -1 -1 -1 -1 -2 -2 -2 -2 -2 -2 -2
1 0 0 -0 -1 -1 -2 -2 -2 -2 -2 -2 -2 -2 -2 -2 -2 -2 -2 -2 -3 -2 -2 -2 -2 -2 -2 -2 -2 -2 -1 -1 -0 -1 -1 -1 -2 -2 -2 -2 -2 -2 -2
1 0 -0 -1 -1 -1 -1 -1 -2 -1 -2 -2 -2 -2 -2 -1 -1 -2 -2 -2 -2 -2 -1 -1 -1 -1 -1 -1 -1 -0 0 -0 -1 -1 -1 -0 -1 -1 -2 -2 -2 -2 -2
0 0 -0 -1 -1 -1 -1 -1 -1 -2 -2 -2 -2 -1 -1 -1 -1 -1 -2 -1 -1 -1 -0 -0 -0 0 0 0 1 -0 -0 -0 0 -0 -0 -1 1 1 0 0 -0 -0 -0
0 0 -0 -1 -1 -1 -1 -1 -1 -0 0 -1 -2 -2 -0 -0 -1 -0 -0 -1 -0 0 1 0 0 0 1 1 1 1 0 0 1 0 0 0 1 2 2 2 2 2 1
0 0 -0 -1 -1 -1 -1 0 -0 0 -0 0 0 1 1 1 0 0 -0 -0 0 0 0 1 1 1 1 1 1 1 1 1 2 0 0 1 1 1 1 3 3 3 3
0 0 0 -0 -0 -1 -1 1 1 -1 1 1 1 1 1 1 0 -1 -0 0 0 1 1 1 1 1 2 2 3 3 2 2 2 2 1 1 1 1 2 2 3 3 4
0 -0 -0 0 -0 -1 -1 0 1 1 0 -0 0 1 0 0 0 -0 0 0 1 1 1 1 2 2 2 3 3 3 2 2 2 1 1 1 1 2 2 2 3 3 3
0 0 0 0 -0 -0 -0 0 1 0 -0 0 0 1 1 1 1 0 1 1 1 2 2 2 2 3 3 2 3 4 4 3 2 2 2 2 2 2 2 3 3 4 4
1 1 0 0 -0 -0 -0 -1 -1 -1 -1 1 1 1 1 1 1 1 1 2 2 2 2 2 2 3 4 3 4 5 7 5 4 2 2 3 3 3 4 4 4 4 4
1 1 0 -0 -0 -1 -1 -1 -0 -1 -0 0 1 1 1 1 1 1 1 1 2 2 3 2 3 3 5 4 4 5 7 8 6 4 4 4 3 4 4 5 4 5 5
1 -0 -0 -0 1 1 0 -0 -0 0 0 1 1 1 1 1 1 1 2 2 2 3 3 3 3 4 5 6 5 5 5 6 8 9 5 5 5 5 5 5 4 4 4
1 1 1 2 1 0 0 -0 0 1 1 1 1 2 1 1 1 2 2 2 3 3 3 3 4 5 5 5 6 6 6 6 6 8 9 7 5 4 3 3 3 2 2
2 2 1 1 1 1 1 1 1 2 2 3 3 3 4 4 4 4 4 3 2 3 3 4 4 4 5 5 6 6 7 8 7 7 7 6 5 4 2 2 2 2 1

GFSSE_con_lsi_015.txt.gz
Lid_Strength_Index
1 -1 -1 -1 -1 -1 -1 -1 -1 -1 -2 -2 -2 -2 -2 -2 -2 -2 -2 -2 -3 -2 -2 -2 -2 -2 -2 -2 -2 -2 -2 -2 -1 -1 -1 -1 -2 -2 -2 -1 -2 -1 -2
-0 -1 -1 -1 -1 -1 -1 -1 -1 -1 -2 -1 -1 -2 -2 -2 -2 -2 -2 -2 -2 -2 -2 -2 -2 -2 -2 -2 -2 -2 -2 -2 -2 -2 -2 -1 -2 -2 -2 -2 -2 -1 -2
-0 -1 -1 -1 -1 -1 -1 -2 -1 -2 -1 -1 -2 -2 -2 -2 -2 -2 -2 -2 -2 -2 -2 -2 -2 -2 -2 -2 -2 -2 -2 -2 -2 -3 -2 -1 -1 -2 -2 -2 -2 -2 -1
-0 -1 -1 -1 -1 -1 -1 -1 -1 -1 -1 -1 -2 -2 -2 -2 -2 -2 -2 -3 -2 -2 -2 -2 -2 -2 -2 -2 -2 -2 -2 -2 -3 -4 -1 -1 -1 -2 -2 -2 -2 -2 -2
-0 -1 -1 -1 -1 -1 -1 -1 -1 -1 -2 -2 -2 -2 -2 -2 -2 -2 -2 -2 -2 -2 -2 -2 -2 -2 -2 -2 -2 -2 -2 -3 -4 -2 -1 -2 -2 -2 -2 -2 -2 -2 -2
-0 -1 -1 -1 -1 -2 -2 -1 -1 -1 -2 -2 -2 -2 -2 -2 -2 -2 -2 -2 -2 -2 -2 -2 -2 -2 -2 -2 -2 -2 -3 -4 -3 -1 -1 -2 -2 -2 -2 -2 -2 -2 -2
-0 -1 -1 -0 -1 -2 -1 -2 -1 -1 -2 -2 -2 -2 -2 -2 -2 -2 -2 -2 -2 -2 -2 -2 -2 -2 -2 -2 -2 -2 -3 -3 -2 -1 -1 -2 -2 -2 -2 -1 -2 -2 -2
-0 -1 -1 -1 -1 -1 -1 -1 -1 -2 -2 -2 -2 -2 -2 -2 -2 -2 -2 -2 -2 -2 -2 -2 -2 -2 -2 -2 -2 -2 -3 -3 -2 -1 -1 -2 -2 -2 -2 -2 -2 -2 -2
-0 -0 -1 -1 -1 -1 -1 -1 -1 -2 -2 -2 -2 -2 -2 -2 -2 -1 -1 -1 -1 -1 -1 -2 -1 -2 -2 -2 -3 -3 -4 -4 -2 -1 -1 -1 -2 -2 -2 -2 -2 -2 -2
-0 -0 -1 -1 -1 -1 -1 -1 -1 -2 -2 -2 -2 -2 -3 -3 -2 -2 -2 -2 -1 -1 -1 -1 -1 -2 -3 -4 -3 -3 -4 -3 -2 -1 -1 -2 -2 -2 -2 -2 -2 -2 -2
0 -0 -1 -1 -1 -1 -1 -1 -2 -2 -2 -2 -2 -3 -1 -2 -2 -2 -3 -2 -2 -2 -2 -2 -3 -3 -4 -3 -3 -3 -3 -1 -2 -1 -1 -2 -2 -2 -2 -2 -2 -2 -2
1 1 -1 -1 -1 -1 -1 -2 -2 -2 -2 -2 -2 -2 -2 -2 -2 -2 -2 -3 -3 -3 -3 -3 -3 -3 -2 -2 -2 -4 -1 -1 -1 -1 -1 -2 -2 -2 -2 -1 -2 -2 -2
1 1 -0 -1 -1 -1 -1 -1 -1 -1 -2 -2 -2 -2 -2 -2 -2 -2 -2 -2 -2 -1 -2 -2 -2 -2 -2 -2 -2 -2 -1 -1 -0 -0 -1 -2 -2 -2 -2 -2 -2 -2 -2
1 1 0 -0 -1 -1 -1 -1 -1 -1 -1 -1 -1 -2 -2 -1 -2 -2 -1 -2 -2 -2 -2 -2 -2 -2 -2 -2 -1 -1 -1 -0 0 0 -1 -2 -2 -2 -2 -2 -2 -2 -2
1 0 -0 -1 -1 -1 -1 -1 -1 -1 -1 -1 -1 -1 -1 -1 -1 -1 -1 -1 -2 -2 -2 -2 -1 -1 -0 -0 -1 0 -0 0 0 0 -1 -1 -1 -1 -1 -2 -2 -2 -1
1 0 -0 -1 -1 -1 -1 -1 -1 -1 -1 -1 -1 -1 -1 -2 -2 -1 -1 -1 -1 -2 -1 -0 0 1 1 0 0 0 0 0 0 0 -0 -1 -1 -0 0 0 0 -0 -0
1 0 -0 -1 -1 -1 -1 -1 -1 -0 -1 -1 -1 -2 -1 -1 -1 -1 -1 -0 -0 -1 -0 0 -0 0 1 1 1 0 0 0 0 0 1 -1 0 1 1 2 2 2 1
0 0 -0 -0 -1 -1 -1 -1 -1 -1 -1 -1 -0 -1 -0 -0 -0 -0 0 -1 -1 -0 -0 0 1 1 1 1 1 1 1 1 1 1 1 0 1 1 2 2 3 3 3
0 0 0 -0 -0 -1 -1 -1 -1 -1 -1 -1 -1 -1 -1 -1 -1 -1 -1 -1 -1 -1 -0 0 0 1 2 2 2 2 2 2 2 2 2 1 1 1 2 1 2 2 4
0 0 0 -0 0 -0 -1 -1 -1 -1 -1 -1 -1 -0 -1 -1 -1 -1 -1 -1 -0 0 0 0 1 1 2 2 3 3 2 3 2 2 2 1 1 2 2 3 3 4 2
0 0 0 1 0 0 0 0 0 0 -0 -1 -1 -1 -1 -0 0 -0 -0 -0 0 1 1 1 1 2 4 3 4 4 4 3 2 2 2 2 2 2 2 3 4 4 4
1 1 1 1 0 -0 -0 -0 -0 -0 -1 -1 -1 -0 -0 -0 0 1 0 0 0 1 1 2 2 3 4 3 5 5 7 6 4 3 3 3 2 3 3 4 4 5 5
1 1 1 0 -0 -0 -1 -1 -0 -1 -1 -0 0 0 0 0 0 0 0 1 1 2 3 2 3 3 5 4 4 6 8 9 7 5 4 4 2 4 4 4 4 5 5
1 0 0 -0 -0 -0 -1 -0 -0 0 1 1 1 1 0 0 0 1 2 2 2 2 3 3 3 4 4 6 5 5 4 5 8 9 6 5 5 5 3 4 5 5 5
1 0 -0 -0 1 -1 -1 -1 -0 1 1 1 1 2 1 2 3 4 4 4 3 3 3 3 3 4 4 5 5 6 6 6 6 8 10 8 6 5 4 3 3 3 2
1 1 1 1 0 -0 0 0 1 2 3 3 4 5 5 5 5 5 5 4 4 3 3 3 3 4 4 5 5 5 6 7 8 8 8 7 6 4 3 2 1 1 1

GFSSE_con_lsi_018.txt.gz
Lid_Strength_Index
1 -0 -1 -1 -1 -1 -1 -1 -1 -1 -1 -2 -2 -2 -2 -2 -2 -2 -2 -2 -3 -3 -3 -3 -3 -3 -3 -2 -2 -2 -2 -2 -2 -1 -1 -1 -2 -2 -2 -2 -2 -1 -2
0 -1 -1 -1 -1 -1 -1 -1 -1 -1 -2 -2 -2 -2 -2 -2 -2 -2 -2 -3 -3 -3 -3 -3 -3 -2 -2 -2 -2 -2 -2 -2 -3 -2 -1 -2 -2 -2 -2 -2 -2 -1 -2
0 -1 -1 -1 -1 -1 -1 -1 -1 -2 -2 -2 -2 -2 -2 -2 -2 -2 -2 -3 -3 -3 -3 -3 -3 -2 -3 -2 -2 -2 -2 -3 -3 -3 -2 -0 -1 -2 -2 -2 -2 -2 -2
-0 -1 -1 -1 -1 -1 -1 -1 -1 -2 -2 -2 -2 -2 -2 -2 -2 -2 -3 -3 -3 -2 -3 -2 -2 -2 -2 -2 -2 -2 -3 -3 -4 -3 -0 -1 -1 -2 -2 -2 -2 -2 -2
-0 -1 -1 -1 -1 -1 -1 -2 -1 -2 -2 -2 -2 -2 -2 -2 -2 -2 -2 -3 -3 -2 -2 -2 -2 -2 -2 -3 -3 -4 -4 -4 -3 -2 -0 -0 -0 -1 -2 -2 -2 -2 -2
-0 -1 -1 -1 -1 -2 -1 -1 -1 -2 -2 -2 -2 -3 -2 -2 -2 -2 -2 -3 -2 -2 -2 -2 -2 -2 -3 -3 -3 -4 -4 -4 -3 1 -0 -1 -0 -2 -2 -2 -2 -2 -2
0 -1 -1 -0 -1 -2 -1 -1 -1 -1 -2 -2 -2 -3 -3 -2 -2 -2 -2 -2 -2 -2 -2 -2 -2 -2 -3 -3 -4 -4 -4 -4 -1 1 0 -0 -1 -3 -2 -2 -2 -2 -2
0 -1 -1 -1 -1 -1 -1 -1 -1 -1 -2 -2 -2 -2 -2 -3 -3 -3 -3 -3 -2 -2 -2 -2 -2 -2 -3 -3 -4 -4 -4 -4 -1 -0 -0 0 -2 -2 -2 -2 -2 -2 -3
-0 -0 -1 -1 -1 -1 -1 -1 -1 -2 -2 -2 -3 -3 -3 -3 -3 -3 -3 -2 -2 -2 -2 -2 -2 -3 -3 -3 -3 -4 -3 -3 -2 0 -1 -0 -3 -2 -2 -2 -2 -3 -2
-0 -0 -0 -1 -1 -1 -1 -1 -1 -2 -2 -2 -3 -3 -3 -3 -3 -3 -2 -3 -3 -3 -3 -3 -3 -4 -4 -3 -4 -3 -3 -3 0 0 -0 -0 -2 -2 -2 -2 -2 -2 -2
2 0 -0 -0 -0 -1 -1 -1 -2 -2 -3 -2 -3 -2 -1 -1 -1 -1 -2 -4 -4 -3 -3 -3 -3 -3 -3 -3 -3 -3 -4 1 1 0 -0 -2 -3 -2 -2 -2 -2 -2 -2
2 1 0 -0 -0 -0 -1 -1 -1 -1 -1 -1 -1 -1 -1 -1 -1 -1 -2 -2 -2 -2 -2 -3 -3 -3 -3 -0 -1 -2 1 0 1 1 -0 -3 -2 -2 -2 -2 -2 -2 -2
1 1 0 0 -0 -0 -0 -0 -1 -1 -1 -1 -1 -1 -1 -1 -1 -1 -1 -1 -1 -2 -1 -1 -1 -1 -1 -0 1 0 0 1 2 2 -1 -3 -2 -2 -2 -2 -2 -2 -2
2 1 0 -0 -0 -0 -1 -0 -0 -0 -1 -1 -1 -1 -1 -0 -0 -0 -0 -0 -0 -0 -0 -0 -0 -1 1 1 1 1 1 2 2 2 -0 -2 -2 -1 -2 -2 -2 -2 -2
2 1 1 0 -0 -0 -0 -0 -0 -0 -0 -1 -1 -1 -1 -0 -0 -0 -0 -1 -0 -0 1 1 1 1 2 1 1 1 2 2 2 2 1 -1 -2 -1 -1 -1 -1 -1 -1
1 1 0 0 -0 -1 -0 -0 -0 -0 -1 -1 -1 -1 -1 -0 -0 -0 0 0 0 0 1 1 1 2 2 2 2 1 1 2 2 2 2 1 -1 -1 -0 -0 -0 0 0
1 1 1 0 -0 -0 -0 -0 -0 -1 -1 -0 -1 -1 -1 -0 -0 -0 1 1 1 1 0 0 1 1 2 2 2 2 2 3 3 2 2 3 1 -0 1 1 1 1 2
1 1 0 0 0 -0 -0 -0 -1 -0 -1 -1 -1 -1 -0 -0 -0 0 1 0 -0 0 0 1 1 2 2 3 3 3 3 3 4 3 3 3 2 2 1 1 2 2 3
1 1 1 0 0 0 -0 -0 -0 -1 -0 -1 -0 -0 -0 -0 -0 0 0 -0 0 0 1 1 2 2 3 4 4 5 4 5 4 4 4 4 3 3 3 1 1 2 3
1 1 1 1 0 0 -0 -0 -0 -0 -0 -0 -1 -0 -0 1 0 0 -0 1 1 1 2 2 2 2 3 5 4 5 5 4 5 4 4 3 2 2 3 4 4 5 3
1 1 1 1 0 0 1 1 1 1 1 0 0 0 0 1 1 1 1 1 1 2 2 3 3 5 5 4 6 6 6 5 5 6 5 5 5 4 3 3 5 6 6
2 1 1 1 1 0 0 0 0 0 0 0 1 1 1 1 1 2 2 2 2 3 3 3 4 5 5 5 7 7 9 8 7 6 6 6 6 4 5 5 6 6 7
2 2 1 1 1 1 0 0 0 1 1 1 2 2 2 1 2 2 2 3 3 3 4 4 5 5 7 6 6 8 10 11 9 7 7 7 7 7 6 6 7 6 7
2 1 1 1 1 0 0 1 1 2 2 2 2 2 2 2 3 4 4 4 5 4 4 4 5 5 6 8 7 6 7 8 11 12 9 9 8 8 7 7 7 6 6
2 1 1 1 1 1 0 0 1 2 2 2 3 4 4 5 5 6 6 5 5 5 4 4 5 6 6 7 7 8 8 8 9 11 12 11 9 8 6 6 6 5 4
1 1 1 2 1 1 1 1 2 3 4 5 6 6 6 6 7 6 6 6 5 5 5 5 5 5 6 6 6 7 8 9 10 10 11 11 10 8 6 5 5 4 3

GFSSE_con_lsi_021.txt.gz
Lid_Strength_Index
1 -0 -1 -1 -1 -1 -1 -1 -1 -1 -2 -2 -2 -2 -2 -2 -2 -2 -3 -3 -3 -3 -3 -3 -3 -3 -2 -2 -2 -2 -2 -2 -2 -2 -2 -2 -2 -2 -2 -2 -2 -1 -2
0 -0 -1 -1 -1 -2 -1 -1 -1 -1 -2 -2 -2 -2 -2 -2 -2 -3 -3 -3 -3 -3 -3 -3 -3 -3 -3 -2 -2 -2 -2 -3 -3 -3 -2 -2 -2 -2 -2 -2 -2 -1 -2
0 -1 -1 -1 -1 -1 -1 -1 -1 -2 -2 -2 -2 -2 -2 -2 -2 -3 -3 -3 -3 -3 -3 -3 -3 -3 -3 -2 -2 -2 -3 -3 -2 -2 -1 -1 -0 -2 -2 -2 -2 -2 -2
-0 -0 -1 -1 -1 -1 -1 -1 -2 -2 -2 -2 -2 -2 -3 -3 -2 -2 -2 -3 -3 -3 -3 -3 -3 -3 -2 -2 -3 -3 -3 -3 -3 -2 -0 -0 -1 -2 -2 -2 -2 -2 -2
-0 -0 -1 -1 -1 -1 -1 -1 -2 -2 -2 -2 -2 -3 -3 -2 -2 -2 -3 -3 -3 -2 -2 -2 -2 -2 -2 -4 -4 -4 -4 -3 -3 -1 0 0 0 -1 -2 -2 -2 -2 -2
-0 -1 -1 -1 -1 -1 -1 -2 -2 -2 -2 -2 -2 -3 -3 -2 -2 -2 -2 -3 -2 -2 -2 -2 -2 -2 -4 -4 -4 -4 -4 -4 -2 1 1 -1 -1 -2 -2 -2 -2 -2 -2
0 -0 -1 -1 -1 -1 -2 -2 -2 -2 -2 -2 -2 -3 -3 -2 -2 -2 -2 -2 -2 -2 -2 -2 -2 -3 -3 -4 -4 -4 -3 -3 1 1 1 0 -0 -2 -2 -2 -2 -2 -2
0 -0 -1 -1 -1 -1 -1 -1 -1 -2 -2 -2 -2 -3 -3 -3 -3 -3 -3 -3 -3 -2 -3 -3 -3 -3 -3 -4 -4 -4 -3 -3 -0 1 0 0 -2 -2 -2 -2 -2 -2 -2
2 1 -1 -1 -1 -1 -1 -1 -1 -2 -2 -3 -3 -3 -3 -3 -3 -3 -3 -3 -3 -3 -3 -3 -4 -4 -4 -3 -4 -4 -3 -3 1 0 -0 0 -2 -2 -2 -2 -2 -2 -2
2 2 1 -0 -1 -1 -1 -1 -2 -2 -3 -3 -3 -3 -3 -3 -3 -3 -3 -4 -4 -3 -4 -4 -3 -4 -3 -3 -3 -3 -3 -2 3 1 0 0 -2 -2 -2 -2 -2 -2 -2
1 1 1 -0 -0 -0 -1 -1 -2 -3 -3 -3 -2 -2 -1 -0 -0 -2 -2 -3 -3 -2 -3 -3 -3 -3 -3 -2 -3 -3 -3 2 3 2 0 -2 -2 -2 -2 -2 -2 -2 -2
3 2 -0 -0 -0 -0 -1 -0 -1 -1 -1 -1 1 1 1 0 0 -1 -1 -2 -2 -2 -2 -2 -2 -3 -2 1 2 -1 2 3 3 1 -0 -3 -3 -2 -2 -2 -2 -2 -2
1 1 0 -0 -0 0 -0 -0 1 1 1 -0 0 1 0 -0 -0 -0 -0 -0 -1 -1 0 -1 -0 1 2 2 1 2 2 3 4 1 -1 -2 -2 -2 -2 -2 -2 -2 -1
2 1 0 0 0 0 -0 1 1 0 0 -0 0 1 0 1 1 1 1 1 1 1 2 2 2 2 3 2 2 3 3 3 3 2 0 -2 -2 -1 -1 -1 -1 -1 -1
2 1 1 1 1 1 0 0 0 1 1 1 1 1 1 1 1 2 1 1 2 2 3 3 3 3 2 2 3 2 2 3 3 3 2 -2 -2 -1 -1 -1 -1 -1 -0
2 2 1 1 1 0 1 1 2 2 2 0 0 0 0 1 2 1 2 2 3 3 3 3 3 3 4 3 3 3 3 3 4 4 2 1 -2 -2 -1 -0 0 0 1
2 1 2 1 1 0 1 2 2 0 1 0 1 0 1 2 2 2 3 3 3 3 3 3 3 3 3 3 4 4 4 4 4 4 4 3 1 -1 -0 1 2 2 2
1 2 1 0 1 1 2 1 1 0 2 2 1 1 1 1 1 2 2 3 3 3 3 3 3 4 4 4 5 5 5 5 5 5 5 5 2 2 0 0 1 2 2
1 1 2 1 1 2 1 1 0 1 2 2 2 2 3 2 2 2 3 3 3 3 3 4 4 4 5 6 6 7 7 6 6 4 5 5 4 3 3 -0 0 2 3
1 1 1 1 2 2 2 1 1 1 2 2 2 3 2 3 3 3 3 3 3 4 4 5 5 6 6 7 5 6 7 6 6 7 7 6 6 5 4 5 7 5 3
2 2 1 1 2 2 2 2 2 3 3 3 3 3 3 3 3 4 4 4 4 5 5 5 6 7 7 7 8 8 8 7 8 8 7 7 7 6 5 5 6 8 7
2 2 2 2 2 2 1 1 2 3 3 3 3 3 3 3 4 3 4 5 5 5 6 6 7 8 7 7 9 10 11 9 8 7 8 7 8 7 6 5 7 7 7
2 2 2 2 2 1 1 4 3 4 4 4 4 4 4 3 4 5 6 6 7 6 7 7 7 7 9 8 8 9 12 13 11 9 9 9 9 9 9 8 7 7 8
3 3 2 2 1 1 3 3 4 5 5 4 4 4 5 6 7 7 7 7 8 8 8 7 6 7 8 9 8 7 9 10 13 13 11 10 9 9 9 8 8 7 6
2 2 2 2 3 4 3 3 4 5 5 6 7 8 8 7 7 7 7 8 8 7 7 7 7 7 8 9 9 9 10 10 11 12 14 12 11 10 9 8 7 6 5
3 4 5 5 5 5 5 6 5 6 8 8 9 9 9 8 8 8 8 8 8 7 7 7 7 8 8 8 8 9 10 11 11 12 13 13 12 10 9 7 6 6 5

GFSSE_con_lsi_027.txt.gz
Lid_Strength_Index
1 -0 -1 -1 -1 -1 -1 -1 -1 -2 -2 -2 -2 -2 -2 -2 -2 -3 -2 -3 -3 -3 -3 -3 -3 -2 -2 -2 -2 -2 -2 -1 -2 -2 -2 -2 -2 -2 -2 -2 -2 -1 -2
0 -0 -1 -1 -1 -1 -1 -1 -1 -2 -2 -2 -2 -2 -2 -2 -2 -2 -3 -3 -3 -3 -3 -3 -3 -3 -2 -2 -2 -2 -2 -2 -2 -2 -2 -2 -2 -2 -2 -2 -2 -1 -2
0 -0 -0 -1 -1 -1 -1 -2 -2 -2 -2 -2 -2 -2 -2 -2 -2 -2 -2 -3 -3 -3 -3 -3 -3 -3 -2 -2 -2 -2 -2 -2 -2 -2 -2 0 -0 -2 -2 -2 -2 -2 -2
-0 -0 -0 -1 -1 -1 -1 -1 -2 -2 -2 -2 -2 -2 -2 -2 -2 -2 -2 -2 -3 -3 -3 -3 -3 -3 -2 -3 -3 -3 -2 -2 -2 -2 0 -0 -0 -2 -2 -2 -2 -2 -2
0 -0 -0 -1 -1 -1 -1 -2 -2 -2 -2 -2 -2 -2 -2 -3 -2 -2 -2 -2 -3 -3 -2 -3 -3 -2 -3 -3 -3 -3 -3 -3 -2 -1 0 0 0 -2 -2 -2 -2 -2 -2
0 -0 -0 -0 -1 -1 -1 -1 -2 -2 -2 -2 -2 -2 -2 -2 -2 -2 -2 -2 -3 -2 -2 -2 -2 -2 -3 -3 -2 -3 -3 -2 -1 1 1 -0 -0 -2 -2 -2 -2 -2 -2
0 -0 -0 -0 -1 -1 -2 -2 -2 -2 -2 -2 -2 -2 -2 -2 -2 -2 -2 -2 -2 -2 -2 -2 -3 -4 -3 -4 -3 -3 -3 -2 0 1 1 0 -0 -2 -2 -2 -2 -2 -2
1 -0 -0 -1 -1 -1 -1 -1 -1 -1 -2 -2 -2 -2 -2 -2 -2 -2 -2 -2 -3 -3 -3 -4 -4 -4 -4 -3 -3 -3 -2 -1 1 1 0 1 -2 -2 -2 -2 -2 -2 -2
0 0 -0 -1 -1 -1 -1 -1 -1 -1 -2 -2 -2 -2 -2 -2 -2 -2 -3 -3 -3 -3 -3 -3 -3 -3 -3 -3 -2 -2 -2 -1 2 0 -0 1 -2 -2 -2 -2 -2 -2 -2
1 1 2 1 1 -0 -0 -1 -1 -1 -2 -2 -2 -2 -2 -2 -3 -3 -3 -3 -3 -3 -3 -3 -3 -4 -3 -3 -2 -2 -2 -0 2 1 1 0 -2 -2 -2 -2 -2 -2 -2
2 2 2 1 0 0 0 -1 -1 -2 -2 -2 -2 -2 -1 -0 -0 -1 -2 -2 -3 -2 -2 -3 -3 -2 -1 -2 -3 -1 0 2 2 1 1 -2 -2 -2 -2 -2 -2 -2 -2
2 2 2 1 0 0 -0 0 1 -0 -0 -0 -0 -0 0 0 -0 -1 -2 -2 -2 -2 -2 -2 -1 -1 1 3 2 1 4 3 2 1 1 -2 -2 -2 -2 -2 -2 -2 -2
3 3 2 -0 0 1 1 0 -0 0 0 0 0 1 1 1 0 0 1 0 2 1 3 3 3 4 4 4 4 4 4 4 5 3 1 -2 -2 -2 -1 -2 -2 -2 -1
2 2 1 0 0 0 0 0 0 -0 -0 -0 1 0 1 2 3 3 3 3 4 4 4 4 4 5 5 5 5 5 5 6 6 4 2 -1 -2 -1 -1 -1 -1 -1 -1
2 2 1 1 1 0 0 0 0 0 1 2 1 1 2 3 3 3 4 4 4 5 5 5 6 5 6 5 5 6 6 6 6 6 5 1 -1 -1 -0 -1 -1 -0 0
2 1 1 1 1 1 1 1 1 2 2 2 2 2 2 3 4 4 5 5 5 5 5 6 5 5 6 6 6 6 6 7 7 7 6 5 -0 -2 -1 -1 0 1 1
2 1 1 1 2 1 1 2 2 3 3 3 3 3 3 3 4 4 5 5 5 5 5 5 5 5 6 6 7 7 7 7 7 7 7 6 2 -0 -1 0 1 2 1
1 1 1 1 2 2 3 3 3 4 4 3 2 2 3 3 4 5 6 5 5 5 5 5 6 6 7 7 8 8 8 7 7 8 7 5 4 4 2 0 1 2 2
1 1 3 2 3 3 3 3 4 4 4 3 4 4 3 3 4 5 5 5 5 5 6 6 7 7 8 8 7 9 9 9 9 8 8 8 7 5 6 3 2 2 3
2 2 3 3 4 3 3 3 4 4 3 3 5 5 4 3 3 4 5 5 5 6 7 7 8 8 8 8 7 8 9 9 9 9 10 9 9 9 8 7 8 7 3
3 3 3 3 3 3 3 3 5 5 4 5 5 6 4 4 4 5 5 6 6 6 7 7 8 8 8 9 9 9 10 10 10 10 10 11 10 9 9 8 8 9 9
3 3 3 2 3 3 3 3 4 4 5 6 6 6 5 4 5 5 6 6 7 7 8 8 8 8 8 9 10 11 12 11 10 10 11 11 11 10 10 9 10 9 9
3 3 2 2 2 2 2 3 5 6 7 7 8 7 5 5 6 7 8 8 8 8 9 9 8 9 10 9 10 10 13 14 13 11 12 12 12 11 11 10 10 9 9
3 2 2 2 2 2 3 3 4 5 6 8 8 7 8 7 8 8 8 8 8 8 9 9 8 9 9 10 10 9 11 11 14 14 12 12 12 11 12 11 11 10 10
2 2 2 2 2 2 3 3 5 6 7 8 8 9 9 8 8 8 8 9 9 8 9 8 9 9 9 10 10 10 12 13 13 14 15 14 12 11 12 11 11 11 10
3 3 2 3 3 3 3 4 6 8 8 9 10 10 10 10 10 9 9 9 8 7 8 8 9 9 10 10 10 11 12 12 13 14 15 14 14 12 12 11 11 11 10

GFSSE_con_lsi_030.txt.gz
Lid_Strength_Index
1 -0 -1 -1 -1 -1 -1 -1 -1 -2 -2 -2 -2 -2 -2 -2 -2 -2 -3 -3 -3 -3 -3 -3 -2 -2 -2 -2 -2 -2 -2 -2 -2 -2 -2 -2 -2 -2 -2 -2 -2 -1 -2
0 -0 -1 -1 -1 -1 -2 -1 -2 -2 -2 -2 -2 -2 -2 -2 -2 -3 -3 -3 -3 -3 -3 -3 -2 -2 -2 -2 -2 -2 -2 -2 -2 -2 -2 -2 -2 -2 -2 -2 -2 -1 -2
0 -0 -0 -1 -1 -1 -2 -2 -2 -2 -2 -2 -2 -2 -3 -2 -2 -2 -2 -2 -3 -3 -3 -3 -2 -2 -2 -2 -2 -2 -2 -2 -2 -2 -2 -1 -0 -3 -3 -2 -2 -2 -2
-0 -0 -0 -1 -1 -1 -1 -2 -2 -2 -2 -2 -2 -2 -2 -2 -2 -2 -2 -2 -3 -3 -3 -3 -3 -3 -2 -2 -2 -2 -2 -2 -2 -2 -0 -1 -1 -2 -2 -2 -2 -2 -2
-0 -0 -0 -1 -1 -1 -1 -2 -2 -2 -2 -2 -2 -2 -2 -2 -2 -2 -2 -2 -3 -3 -3 -3 -3 -2 -2 -3 -3 -2 -2 -2 -2 -1 0 -0 -0 -2 -2 -2 -2 -2 -2
-0 -0 -0 -1 -1 -1 -2 -2 -2 -2 -2 -2 -2 -2 -2 -2 -2 -2 -2 -2 -3 -3 -3 -3 -2 -3 -3 -3 -3 -2 -2 -2 -1 0 0 -0 -0 -2 -2 -2 -2 -2 -2
0 -0 -0 -0 -1 -1 -1 -2 -2 -2 -2 -2 -2 -2 -2 -2 -2 -2 -2 -2 -3 -3 -3 -2 -3 -4 -3 -3 -3 -3 -3 -2 1 1 0 0 -1 -2 -2 -2 -2 -2 -2
1 0 -0 -1 -1 -1 -1 -1 -1 -1 -2 -2 -2 -2 -2 -2 -2 -2 -3 -3 -3 -3 -3 -3 -3 -4 -3 -4 -3 -2 -2 -2 0 0 0 0 -2 -2 -2 -2 -2 -2 -2
2 1 1 -1 -1 -1 -1 -1 -1 -1 -1 -1 -2 -2 -2 -2 -3 -3 -3 -3 -3 -3 -3 -4 -3 -4 -3 -3 -3 -3 -2 -2 0 0 -0 -0 -2 -2 -2 -2 -2 -2 -2
3 2 2 2 1 1 0 -1 -1 -1 -1 -1 -2 -2 -2 -2 -3 -3 -3 -3 -3 -3 -3 -3 -4 -3 -3 -3 -3 -3 -2 -1 1 0 0 -0 -2 -2 -2 -2 -2 -2 -2
3 3 2 2 1 1 1 -0 -0 -2 -2 -2 -2 -2 -1 -0 -0 -1 -2 -3 -3 -2 -3 -3 -2 -2 -2 -2 -2 -1 0 2 2 1 0 -2 -2 -2 -2 -2 -2 -2 -2
3 2 2 2 2 1 0 2 2 -0 -0 -0 -0 0 -0 0 -0 -1 -2 -2 -2 -2 -2 -1 -1 0 2 4 3 2 4 3 2 1 1 -2 -2 -2 -2 -2 -2 -2 -1
3 2 2 2 2 1 2 2 2 2 1 0 0 0 0 0 0 0 1 2 3 2 4 4 4 5 5 5 5 5 5 5 5 2 1 -2 -2 -1 -2 -2 -2 -1 -1
3 3 2 1 1 1 1 2 2 2 1 0 1 1 1 1 1 2 3 4 4 5 5 5 5 5 6 6 5 6 6 6 6 5 4 -1 -2 -2 -1 -2 -2 -1 -1
2 1 1 1 0 1 1 0 0 0 0 0 1 1 2 2 3 4 5 5 5 5 6 6 6 6 6 6 6 6 6 7 7 6 6 2 -1 -2 -1 -1 -1 -1 -0
2 2 2 1 1 1 1 1 0 1 1 1 2 2 3 3 4 5 5 5 6 6 6 6 6 6 7 7 7 7 7 7 7 7 6 5 -1 -2 -1 -1 -0 0 1
2 1 1 1 1 2 1 0 1 3 3 2 2 3 3 4 5 6 7 7 6 6 6 5 6 6 7 7 8 7 7 8 8 7 5 3 3 0 -1 -0 1 1 1
2 1 1 0 2 3 1 1 2 3 3 3 3 4 4 5 6 7 5 6 6 5 6 6 7 7 7 8 8 8 8 8 8 8 7 5 4 5 3 1 1 2 3
1 1 1 1 3 3 2 3 4 4 4 4 4 4 4 4 5 5 6 6 6 6 6 7 7 8 8 8 8 9 9 9 9 8 9 8 7 7 7 4 4 3 3
1 2 2 3 3 3 3 3 5 5 5 5 4 5 4 4 5 5 5 6 6 7 7 8 8 8 8 8 7 9 10 9 9 10 10 9 9 9 8 8 8 7 4
2 3 3 3 4 3 3 5 6 6 5 5 5 5 5 5 5 5 6 6 6 7 7 7 8 8 9 9 9 9 10 10 10 11 10 10 10 9 9 9 9 9 9
2 2 3 3 4 3 3 4 5 5 5 6 7 6 6 6 5 5 6 7 7 8 8 8 8 9 9 9 10 11 12 11 10 10 11 11 11 10 9 9 9 9 9
3 3 3 3 4 4 4 4 6 6 7 8 8 8 8 7 6 7 8 8 9 9 9 9 9 9 10 10 10 10 12 13 13 11 11 11 11 11 10 10 9 9 9
3 3 2 3 4 3 3 4 5 5 7 7 8 8 10 10 9 8 8 9 9 9 9 8 8 8 9 10 10 9 11 11 13 13 12 12 11 11 10 10 10 9 9
4 3 3 3 3 3 3 3 4 6 6 7 9 11 11 11 9 8 9 9 9 9 8 8 9 9 9 10 10 10 11 12 13 14 14 13 12 11 11 11 10 10 9
4 4 3 2 3 3 3 4 5 7 7 8 10 12 11 11 9 9 9 9 8 7 9 9 9 9 9 10 9 10 11 12 13 14 15 14 14 12 11 10 10 10 9

GFSSE_con_lsi_033.txt.gz
Lid_Strength_Index
1 -1 -1 -1 -1 -1 -1 -1 -1 -1 -2 -2 -2 -2 -3 -2 -2 -3 -3 -3 -3 -3 -2 -2 -2 -2 -2 -2 -2 -2 -2 -2 -2 -2 -3 -2 -3 -2 -2 -2 -2 -2 -2
-0 -1 -1 -1 -1 -2 -2 -1 -2 -2 -2 -2 -2 -2 -2 -2 -3 -3 -3 -3 -3 -3 -2 -2 -2 -2 -2 -2 -2 -2 -2 -2 -2 -2 -3 -3 -3 -3 -3 -2 -2 -2 -2
0 -1 -1 -1 -1 -1 -2 -2 -2 -2 -2 -2 -2 -2 -2 -2 -2 -2 -2 -2 -3 -3 -2 -2 -2 -2 -2 -2 -2 -2 -2 -2 -2 -2 -3 -2 -2 -3 -2 -2 -2 -2 -2
-0 -1 -1 -1 -1 -1 -2 -2 -2 -2 -2 -2 -2 -2 -2 -2 -2 -3 -2 -2 -3 -3 -2 -2 -2 -2 -2 -2 -2 -2 -2 -2 -2 -3 -2 -2 -2 -2 -2 -2 -2 -2 -2
-0 -1 -1 -1 -1 -1 -2 -2 -2 -2 -2 -2 -2 -2 -2 -2 -2 -2 -2 -2 -3 -3 -3 -3 -2 -2 -2 -2 -2 -2 -2 -2 -2 -2 -2 -2 -2 -2 -2 -2 -2 -2 -2
-0 -1 -1 -1 -1 -1 -2 -2 -2 -2 -2 -2 -2 -2 -2 -2 -2 -2 -2 -2 -3 -3 -3 -3 -2 -2 -3 -3 -3 -2 -2 -2 -3 -2 -2 -2 -2 -2 -2 -2 -2 -2 -2
-0 -1 -1 -0 -1 -1 -2 -2 -2 -2 -2 -2 -2 -2 -2 -2 -2 -2 -2 -2 -3 -3 -3 -3 -2 -3 -3 -3 -3 -3 -2 -2 -2 -2 -2 -2 -2 -2 -2 -2 -2 -2 -2
1 -0 -1 -1 -1 -1 -1 -1 -2 -1 -2 -2 -2 -2 -2 -2 -2 -2 -2 -2 -3 -3 -3 -4 -4 -3 -3 -4 -3 -3 -3 -3 -2 -2 -2 -2 -2 -2 -2 -2 -2 -2 -2
2 1 -0 -0 -1 -1 -1 -1 -1 -1 -1 -1 -1 -2 -2 -2 -3 -3 -3 -3 -3 -3 -3 -3 -4 -3 -3 -3 -3 -3 -3 -2 -2 -2 -2 -2 -2 -2 -2 -2 -2 -2 -2
3 2 2 2 1 1 0 -1 -1 -1 -1 -1 -2 -2 -2 -2 -3 -3 -3 -3 -3 -3 -3 -3 -4 -3 -2 -2 -2 -1 -1 -2 -2 -2 -2 -2 -2 -2 -2 -2 -2 -2 -2
3 3 3 3 1 1 -0 -1 -1 -2 -1 -1 -2 -2 -2 -2 -2 -2 -3 -3 -3 -2 -3 -2 -2 -2 -2 -1 -1 -1 -1 -1 -2 -2 -2 -2 -2 -2 -2 -2 -2 -2 -2
5 4 4 2 3 -0 1 1 -0 -0 0 -1 -1 -2 -2 -2 -2 -2 -2 -2 -2 -2 -1 -1 -0 0 1 1 1 1 1 -0 -1 -1 -2 -2 -2 -2 -2 -2 -2 -2 -2
4 3 2 3 2 1 1 2 1 1 0 -0 -1 -2 -2 -1 -2 -2 -2 -0 0 1 2 2 2 2 2 1 1 2 2 2 1 -1 -1 -2 -2 -2 -2 -2 -2 -2 -1
3 2 2 2 3 2 1 2 2 1 1 -1 -1 -2 -2 -1 -1 -1 1 1 1 2 2 2 2 2 2 2 2 2 2 2 2 2 2 -1 -1 -2 -2 -2 -2 -1 -1
3 3 2 2 2 0 0 1 1 0 -0 -1 -1 -2 -2 -1 -1 1 1 2 2 2 2 3 2 2 2 3 3 3 3 3 2 2 1 -0 -1 -2 -1 -2 -1 -1 -0
1 1 0 0 -1 -1 -0 -1 -1 -1 -1 -1 -1 -1 -1 -1 1 2 2 2 2 2 2 2 2 2 3 3 3 3 4 3 2 2 1 -1 -1 -2 -1 -2 -1 -0 0
1 1 0 -0 -1 -1 -1 -1 -1 -1 -1 -1 -1 -0 -0 1 1 2 3 3 3 2 2 2 2 2 3 4 4 4 4 4 3 2 1 -0 -0 -0 -1 -0 1 1 1
1 1 0 -0 -0 -0 -1 -1 -1 -1 -1 -1 -1 -0 1 2 2 2 3 3 2 2 2 2 2 3 3 3 4 4 4 4 4 3 1 1 1 1 1 1 1 2 3
1 1 1 -0 0 0 -1 -1 -1 -0 0 0 0 0 1 2 3 3 2 2 2 2 2 3 3 3 4 4 4 4 4 5 5 5 3 3 3 3 3 4 3 3 3
1 0 0 0 -0 -0 -0 -1 -0 1 1 1 1 1 2 2 2 2 3 3 2 3 3 3 3 3 3 3 5 5 5 5 5 5 5 5 5 5 4 4 4 4 5
1 1 1 1 0 1 1 1 1 2 2 2 2 1 1 2 3 2 3 2 2 3 3 3 4 4 4 4 4 5 6 5 5 6 5 5 6 5 5 4 4 4 5
1 1 1 1 0 1 0 0 0 2 2 3 3 2 2 3 3 3 2 2 3 3 3 3 4 4 4 5 5 6 7 7 6 6 6 6 6 5 5 6 5 5 5
2 1 1 1 1 0 -0 0 2 3 4 4 4 4 4 4 4 4 3 3 4 4 5 4 4 5 6 6 6 6 8 8 7 6 6 6 6 5 5 5 5 5 5
2 1 1 1 1 0 1 1 2 2 3 3 4 4 5 4 5 5 6 5 5 5 5 5 5 5 5 6 6 5 5 5 8 9 6 6 6 6 5 5 5 4 4
2 1 1 1 1 1 2 1 2 2 2 4 5 6 6 6 6 7 6 5 5 5 5 4 5 5 5 6 5 5 5 6 6 8 9 8 6 6 6 5 4 4 5
1 1 1 1 1 2 2 2 2 2 4 5 7 8 7 7 7 6 6 5 5 5 5 5 6 6 5 5 5 5 6 7 7 8 9 8 8 7 6 4 5 5 4

GFSSE_con_lsi_036.txt.gz
Lid_Strength_Index
1 -1 -1 -1 -1 -1 -1 -1 -1 -1 -2 -2 -2 -2 -2 -2 -2 -2 -2 -2 -2 -3 -2 -2 -2 -2 -2 -2 -2 -2 -2 -2 -2 -3 -3 -3 -3 -2 -2 -2 -2 -2 -2
-0 -1 -1 -1 -1 -1 -1 -1 -1 -2 -2 -2 -2 -2 -2 -2 -2 -2 -2 -2 -2 -2 -2 -2 -2 -2 -2 -2 -2 -2 -2 -2 -3 -3 -3 -3 -3 -3 -2 -2 -2 -2 -2
-0 -1 -1 -1 -1 -1 -1 -2 -2 -2 -2 -2 -2 -2 -2 -2 -2 -2 -2 -2 -2 -2 -2 -2 -2 -2 -2 -2 -2 -2 -2 -2 -3 -4 -4 -2 -2 -2 -2 -2 -3 -2 -2
-0 -1 -1 -1 -1 -1 -1 -2 -2 -2 -2 -2 -2 -2 -2 -2 -2 -2 -2 -2 -2 -2 -2 -2 -2 -2 -2 -2 -2 -2 -2 -2 -3 -4 -2 -2 -2 -2 -2 -2 -2 -2 -2
-0 -1 -1 -1 -1 -1 -1 -2 -2 -2 -2 -2 -2 -2 -2 -2 -2 -2 -2 -2 -2 -3 -2 -2 -2 -2 -2 -2 -2 -2 -2 -3 -3 -3 -2 -2 -2 -2 -2 -2 -2 -2 -2
-0 -1 -1 -1 -1 -1 -1 -2 -2 -2 -2 -2 -2 -2 -2 -2 -2 -2 -2 -2 -3 -3 -2 -2 -2 -2 -2 -3 -3 -2 -3 -3 -4 -2 -2 -2 -2 -2 -2 -2 -2 -2 -2
-0 -1 -1 -0 -1 -1 -1 -2 -2 -2 -2 -2 -2 -2 -2 -2 -2 -2 -2 -2 -3 -3 -2 -2 -2 -3 -3 -3 -2 -2 -3 -3 -2 -2 -2 -2 -2 -2 -2 -2 -2 -2 -2
0 -1 -1 -1 -1 -1 -1 -1 -1 -1 -1 -2 -2 -2 -2 -2 -2 -2 -2 -2 -2 -3 -3 -2 -3 -3 -3 -2 -2 -2 -2 -3 -2 -2 -2 -2 -3 -2 -2 -2 -2 -2 -2
-1 -0 -0 -0 -1 -1 -1 -1 -1 -1 -1 -1 -1 -1 -2 -2 -2 -2 -3 -3 -3 -3 -3 -3 -3 -3 -2 -2 -2 -3 -3 -3 -2 -2 -2 -2 -2 -2 -2 -2 -2 -2 -2
1 0 1 2 1 0 -0 -1 -1 -1 -1 -1 -1 -1 -2 -2 -3 -3 -3 -3 -2 -2 -3 -3 -3 -2 -2 -2 -2 -2 -2 -3 -2 -2 -2 -2 -2 -2 -2 -2 -2 -2 -2
3 2 2 2 2 1 1 -1 -1 -1 -1 -1 -1 -1 -0 -0 -1 -2 -3 -2 -2 -2 -3 -2 -2 -2 -2 -1 -1 -2 -2 -2 -1 -2 -2 -2 -2 -2 -2 -2 -2 -2 -2
4 3 3 3 3 2 2 -0 -1 -1 -0 -0 0 0 0 -2 -2 -2 -2 -2 -2 -2 -2 -1 -0 -1 -2 -2 -1 -1 -1 -1 -1 -1 -2 -2 -1 -2 -2 -2 -2 -2 -2
4 4 3 2 2 2 2 0 -0 -0 -0 -0 -0 -1 -1 -2 -2 -2 -2 -2 -1 -1 0 0 -0 -1 -1 -1 -1 -1 -0 -0 -0 -0 -1 -2 -2 -1 -2 -2 -2 -1 -1
4 4 4 3 3 2 1 1 1 1 1 0 -0 -1 -1 -1 -2 -2 -2 -2 -1 -1 -1 -1 -0 -0 -0 -1 -1 -0 0 0 1 1 0 -1 -1 -2 -2 -2 -1 -1 -1
5 5 3 3 2 2 1 2 1 1 1 0 0 -1 -2 -2 -2 -2 -2 -1 -1 -1 -1 0 -0 -0 -0 -0 0 1 1 2 2 2 1 -1 -1 -2 -1 -2 -2 -1 -0
4 4 3 3 2 2 2 1 1 0 0 -0 -2 -2 -2 -2 -2 -1 -1 -0 -0 -1 -1 -0 -1 -0 -0 0 1 2 2 2 2 1 1 0 -1 -2 -1 -2 -1 -0 0
2 3 2 1 0 0 -0 -0 0 -0 -1 -2 -2 -2 -2 -2 -2 -1 -1 -0 -0 -0 -0 -0 -0 -0 0 1 2 2 2 2 2 2 1 1 0 0 -1 -0 0 1 1
1 1 -0 -0 -1 -1 -1 -1 -1 -2 -2 -1 -1 -2 -2 -2 -2 -1 -0 0 1 -0 -0 -1 -0 0 1 1 2 2 2 2 2 2 1 1 1 1 1 1 1 2 3
0 0 0 -0 -0 -1 -1 -1 -1 -2 -1 -1 -2 -2 -2 -1 -1 -1 0 1 -0 0 -0 -0 1 1 2 2 3 2 2 2 3 3 2 1 1 1 0 3 3 3 3
0 0 -0 -0 -0 -1 -1 -1 -1 -1 -1 -1 -1 -1 -2 -1 -1 -0 1 0 -0 0 0 1 1 2 2 2 4 4 3 3 3 3 3 3 2 2 2 2 3 3 5
0 0 0 0 -0 -0 0 0 0 1 -0 -0 -1 -1 -2 -1 -0 -1 0 0 0 -0 0 1 2 3 3 2 3 3 4 4 4 4 3 3 4 4 3 3 3 3 4
1 1 0 0 0 -0 -0 -0 -0 -0 -0 -1 -1 -1 -1 -1 -0 0 0 1 -0 1 1 2 3 3 2 3 4 4 5 5 4 4 4 4 4 4 4 4 4 4 4
1 1 1 0 0 -0 -0 -0 -0 -0 -1 0 1 0 0 -0 0 1 1 1 1 2 2 3 3 3 3 3 3 5 6 6 5 4 4 4 4 4 4 4 4 4 4
1 0 0 0 0 -0 -0 -0 0 1 2 0 0 0 1 2 1 2 2 2 2 2 3 3 3 2 3 4 4 4 4 4 7 7 5 4 4 4 4 4 4 4 3
1 1 0 0 0 -0 -0 -0 1 1 1 0 0 1 2 2 2 2 3 3 4 3 4 3 3 3 3 5 5 4 4 4 5 6 8 6 5 5 4 4 4 3 3
1 1 1 1 1 0 0 0 1 1 1 1 1 2 3 3 3 4 4 4 3 4 3 3 4 3 4 4 4 4 5 6 6 6 7 7 7 5 5 4 4 3 3

GFSSE_con_lsi_039.txt.gz
Lid_Strength_Index
1 -1 -1 -1 -1 -1 -1 -1 -1 -1 -1 -2 -2 -2 -2 -2 -2 -2 -2 -2 -2 -2 -2 -2 -3 -2 -2 -2 -2 -2 -2 -2 -2 -3 -3 -3 -3 -2 -2 -2 -2 -1 -2
-0 -1 -0 -1 -1 -1 -1 -1 -1 -1 -2 -2 -2 -2 -2 -2 -2 -2 -2 -2 -2 -3 -2 -2 -2 -2 -2 -2 -2 -2 -2 -3 -2 -3 -3 -3 -2 -2 -2 -2 -2 -2 -2
0 -1 -1 -0 -1 -1 -1 -1 -1 -2 -2 -2 -2 -2 -2 -2 -2 -2 -2 -2 -2 -2 -2 -2 -2 -2 -2 -2 -2 -2 -3 -3 -3 -3 -4 -2 -2 -2 -2 -2 -2 -2 -2
-0 -1 -1 -1 -1 -1 -1 -1 -1 -2 -2 -2 -2 -2 -2 -2 -2 -2 -2 -2 -2 -2 -2 -2 -2 -2 -2 -2 -2 -2 -3 -3 -3 -3 -2 -2 -2 -2 -2 -2 -2 -2 -2
0 -1 -1 -1 -1 -1 -1 -1 -1 -2 -2 -2 -2 -2 -2 -2 -2 -2 -2 -2 -2 -2 -2 -2 -2 -2 -2 -2 -3 -3 -3 -3 -2 -2 -2 -2 -2 -2 -2 -2 -2 -2 -2
1 -1 -1 -0 -1 -1 -1 -1 -1 -1 -1 -2 -2 -2 -2 -2 -2 -2 -2 -2 -2 -2 -2 -2 -2 -2 -2 -3 -3 -3 -4 -4 -3 -2 -2 -2 -2 -2 -2 -2 -2 -2 -2
1 -0 -1 -0 -1 -1 -1 -1 -1 -1 -1 -1 -2 -2 -2 -2 -2 -2 -2 -2 -2 -2 -2 -2 -2 -2 -2 -3 -2 -3 -3 -3 -1 -2 -2 -2 -2 -2 -2 -2 -2 -2 -2
0 -0 -0 -1 -1 -1 -1 -1 -1 -1 -1 -1 -1 -2 -2 -2 -2 -2 -2 -2 -2 -2 -2 -2 -2 -2 -2 -2 -3 -2 -3 -4 -2 -1 -2 -2 -3 -2 -2 -2 -2 -2 -2
0 -0 -0 -1 -1 -1 -1 -1 -1 -1 -1 -1 -1 -1 -1 -2 -2 -2 -2 -2 -2 -2 -2 -2 -2 -3 -2 -2 -2 -2 -3 -3 -2 -2 -1 -2 -2 -2 -2 -2 -2 -2 -2
0 0 -0 -0 -1 -1 -1 -1 -1 -1 -1 -1 -1 -1 -2 -2 -2 -2 -2 -2 -2 -2 -2 -2 -2 -2 -2 -1 -2 -3 -3 -3 -2 -2 -2 -2 -2 -2 -2 -2 -2 -2 -2
2 2 2 1 1 -0 -1 -1 -1 -1 -1 -1 -1 -1 0 0 0 -1 -2 -2 -2 -2 -2 -2 -3 -2 -2 -2 -2 -2 -2 -1 -1 -1 -2 -2 -2 -2 -2 -2 -2 -2 -2
4 3 3 3 3 2 0 -1 -1 -1 -1 -0 0 0 1 -1 -1 -1 -2 -2 -2 -2 -2 -2 -2 -2 -2 -1 -1 -2 -1 -1 -0 -0 -2 -2 -1 -2 -2 -2 -2 -2 -1
3 4 3 3 3 3 2 1 0 -1 -0 -1 0 -1 -1 -1 -1 -2 -1 -2 -2 -2 -0 0 0 -2 -2 -2 -1 -1 -0 -0 0 1 -1 -2 -2 -1 -2 -2 -1 -1 -1
4 4 4 3 3 3 3 2 1 1 0 -0 -0 -1 -1 -1 -1 -1 -1 -2 -2 -2 -1 -2 -1 -2 -2 -1 -1 -0 -0 1 1 2 0 -1 -1 -1 -2 -2 -2 -1 -1
5 4 4 3 4 3 3 2 1 0 1 1 0 -0 -0 -1 -1 -2 -2 -1 -2 -2 -2 -1 -1 -1 -1 -1 -0 1 2 2 2 2 1 -1 -1 -1 -1 -2 -2 -1 -0
5 4 3 3 3 3 3 3 2 2 1 0 0 -1 -1 -2 -2 -1 -1 -1 -1 -2 -2 -1 -1 -1 -0 -0 1 2 2 2 2 1 1 0 -1 -1 -1 -2 -2 -1 -0
4 4 3 4 2 3 3 2 2 1 1 0 -0 -3 -2 -2 -2 -2 -1 -1 -1 -2 -2 -1 -1 -1 0 1 2 2 2 2 2 2 2 1 0 -0 -1 -1 -1 0 0
4 4 4 3 3 2 1 0 1 -0 -1 -1 -2 -2 -2 -1 -2 -2 -1 -1 -1 -1 -1 -1 -1 0 1 1 2 2 2 2 2 3 2 1 2 1 1 1 1 2 2
1 0 2 0 1 -0 -1 -1 -1 -2 -1 -1 -2 -2 -2 -1 -1 -1 -1 -1 -1 -1 -1 -1 -0 0 1 2 2 2 2 2 3 3 2 2 2 2 1 2 2 3 3
0 0 0 -0 -0 -0 -0 -1 -1 -1 -1 -2 -1 -1 -1 -1 -1 -1 -1 -1 -1 -0 -1 -0 0 1 2 1 3 3 2 2 3 3 3 3 2 2 3 2 2 3 3
1 1 1 0 -0 -0 0 0 0 1 -0 -0 -1 -1 -1 -1 -1 -1 -1 -1 -1 -1 -1 -1 1 2 2 1 2 2 2 3 3 3 3 3 3 3 3 3 3 3 4
1 1 1 0 0 0 0 -0 -0 -0 -0 -1 -1 -1 -1 -1 -1 -1 -1 -1 -1 -0 -0 1 2 3 2 2 3 3 4 4 4 3 3 3 3 3 4 3 3 4 4
1 1 1 0 1 0 -0 -0 -0 -0 -0 0 0 -0 -1 -1 -1 -1 -1 -0 0 0 1 2 2 2 2 2 2 4 5 6 4 3 4 3 3 4 3 3 4 4 4
1 1 0 0 0 0 -0 1 0 1 2 1 0 -0 -0 -1 -1 -0 0 -0 0 1 1 2 3 2 2 3 2 3 3 4 6 6 4 4 4 4 3 4 4 4 4
1 1 1 0 0 0 0 0 1 1 1 0 0 0 -0 -0 0 1 1 0 1 2 1 2 2 2 3 3 3 3 3 3 3 5 6 5 4 4 4 4 4 4 4
1 1 1 1 1 0 0 0 0 1 1 1 1 1 1 0 1 1 1 1 2 3 2 3 2 2 2 3 3 3 4 5 5 5 6 6 6 5 4 4 4 4 4

GFSSE_con_lsi_042.txt.gz
Lid_Strength_Index
1 -0 -0 -1 -1 -1 -1 -1 -1 -1 -1 -2 -2 -2 -2 -2 -2 -2 -2 -2 -2 -2 -2 -2 -2 -2 -2 -2 -2 -2 -2 -2 -2 -3 -3 -3 -3 -3 -2 -2 -2 -1 -2
0 -0 -0 -1 -1 -1 -1 -1 -1 -1 -1 -2 -2 -2 -2 -2 -2 -2 -2 -2 -2 -2 -2 -2 -2 -3 -3 -2 -2 -2 -2 -2 -2 -2 -3 -3 -3 -2 -2 -2 -2 -1 -2
0 -0 -0 -0 -1 -1 -1 -1 -1 -1 -2 -2 -2 -2 -2 -2 -2 -2 -2 -2 -2 -3 -2 -2 -2 -2 -2 -2 -3 -3 -3 -3 -2 -2 -3 -1 -1 -2 -2 -2 -3 -2 -2
0 -0 -0 -0 -1 -1 -1 -1 -1 -2 -2 -2 -2 -2 -2 -2 -2 -2 -2 -2 -2 -3 -2 -2 -2 -2 -2 -2 -3 -3 -3 -3 -3 -3 -1 -1 -1 -2 -2 -2 -2 -2 -2
0 -0 -0 -0 -1 -1 -1 -1 -1 -1 -2 -2 -2 -2 -2 -2 -2 -2 -2 -2 -2 -3 -2 -2 -2 -2 -2 -3 -3 -3 -3 -3 -3 -2 -0 -0 -1 -2 -2 -2 -2 -2 -2
0 -0 -0 -0 -1 -1 -1 -1 -1 -1 -1 -1 -1 -2 -2 -2 -2 -2 -1 -2 -2 -2 -2 -2 -2 -2 -3 -3 -3 -4 -4 -3 -3 -0 -0 -1 -1 -2 -2 -2 -2 -2 -2
0 -0 -0 0 -1 -1 -1 -1 -1 -1 -1 -1 -1 -1 -2 -2 -2 -2 -1 -2 -2 -2 -2 -2 -2 -2 -3 -4 -4 -4 -3 -3 -0 0 -0 -0 -1 -3 -2 -2 -2 -2 -2
0 -0 -0 -1 -1 -1 -1 -1 -1 -1 -1 -1 -1 -1 -2 -2 -2 -2 -2 -2 -2 -2 -2 -2 -2 -3 -3 -3 -3 -3 -3 -3 -1 -0 -0 -0 -3 -2 -3 -2 -2 -2 -2
-0 -0 -0 -0 -1 -0 -0 -1 -1 -1 -1 -1 -1 -1 -1 -1 -1 -2 -2 -2 -2 -2 -2 -2 -3 -3 -3 -3 -2 -2 -3 -3 -1 -0 -0 -0 -3 -2 -2 -2 -2 -2 -2
1 1 0 0 -0 -0 -0 -0 -1 -1 -1 -1 -1 -1 -1 -1 -2 -2 -2 -2 -2 -2 -2 -3 -3 -3 -2 -2 -1 -1 -2 -3 0 0 -0 -1 -3 -2 -2 -2 -2 -2 -2
1 1 -0 -0 0 -0 -1 -1 -1 -1 -1 -1 -1 -1 -0 1 1 -0 -1 -2 -2 -2 -2 -3 -3 -2 -2 -1 -2 -2 -2 1 1 -0 -0 -3 -2 -2 -2 -2 -2 -2 -2
3 3 2 1 0 -0 -1 -1 -0 -1 -1 -1 -0 0 1 0 0 -0 -1 -1 -2 -2 -2 -3 -2 -2 -1 1 1 -2 1 1 1 -0 -0 -2 -2 -2 -2 -2 -2 -1 -1
4 3 3 2 2 1 1 0 0 0 -0 0 0 -0 1 1 1 1 1 1 0 -1 0 -0 -0 1 -0 0 0 1 1 2 3 1 -1 -2 -2 -2 -2 -2 -2 -1 -1
4 4 3 3 2 2 2 1 1 0 1 1 -0 -0 0 0 1 1 1 1 0 -1 1 0 -0 0 0 0 1 1 2 3 4 2 -0 -2 -2 -1 -2 -2 -2 -1 -1
5 4 4 4 4 3 3 3 2 1 1 0 0 -0 0 0 -0 0 -0 -0 -0 -0 -0 -0 0 0 1 1 2 3 3 3 4 3 2 -1 -1 -1 -1 -2 -2 -1 -1
5 4 4 4 4 3 4 4 4 2 2 1 1 0 -0 -1 -0 -0 -0 -0 -0 -1 -0 -0 0 0 1 1 3 4 4 4 4 4 3 1 -1 -2 -2 -2 -2 -1 -1
4 3 4 3 3 4 4 3 3 3 2 3 2 -0 -1 -1 -0 -0 0 0 -0 -0 -0 0 1 1 2 2 3 4 4 4 4 4 4 2 1 -0 -1 -2 -2 -1 -0
4 4 3 2 3 3 4 4 4 3 3 3 1 -1 -1 -1 -1 -0 0 0 -0 -0 0 1 1 1 2 3 4 4 4 4 5 4 3 3 2 2 1 -0 -0 1 1
3 3 3 4 4 4 4 4 3 2 0 1 -0 -1 -1 -1 -1 -0 0 -0 -0 0 1 1 1 2 3 4 4 4 4 5 5 4 4 4 4 4 3 1 1 1 2
1 2 2 2 3 3 3 1 0 0 -0 -0 -0 -0 -1 -0 -1 -0 -0 -0 0 1 1 2 2 3 3 5 4 5 4 4 5 5 5 4 4 4 4 3 4 4 2
1 2 2 2 2 1 1 1 1 2 1 0 -0 -0 -1 -0 -0 -0 0 0 0 1 2 1 2 4 5 5 5 4 4 4 5 5 5 5 5 5 5 5 6 6 5
2 1 1 1 1 1 1 1 1 1 0 0 -0 -0 -0 -0 -0 -0 0 1 0 1 1 2 2 4 4 4 5 6 7 6 6 5 5 5 6 5 5 5 6 6 6
2 2 1 1 1 1 0 0 0 0 0 1 1 0 -0 -0 -0 -0 0 1 1 1 2 3 3 4 6 5 5 6 8 9 7 6 6 6 6 6 6 6 6 6 6
2 1 1 1 1 1 0 1 1 2 2 1 1 0 0 -0 -0 0 0 0 0 1 2 3 3 4 4 5 5 3 4 7 9 9 6 6 6 6 6 6 6 5 6
2 2 1 1 1 1 1 1 1 2 1 1 1 1 1 0 1 0 1 1 1 2 2 3 4 4 4 6 5 5 5 6 7 9 10 8 7 6 6 6 6 6 5
2 2 1 1 1 1 1 1 1 2 2 2 2 2 1 2 1 1 1 1 1 2 3 4 4 4 5 6 6 6 6 7 9 9 9 8 9 7 6 6 6 7 6

GFSSE_con_lsi_045.txt.gz
Lid_Strength_Index
2 -0 -1 -1 -1 -1 -1 -1 -1 -1 -1 -2 -2 -2 -2 -2 -2 -2 -2 -2 -2 -2 -2 -2 -2 -2 -2 -2 -2 -2 -2 -2 -2 -3 -3 -3 -3 -2 -2 -2 -2 -1 -2
3 -1 -0 -1 -1 -1 -1 -1 -1 -1 -2 -2 -2 -2 -2 -2 -2 -2 -2 -2 -2 -3 -2 -2 -2 -2 -2 -2 -2 -2 -2 -2 -2 -2 -2 -2 -2 -2 -3 -2 -2 -1 -2
1 1 -1 -0 -1 -1 -1 -1 -1 -2 -2 -2 -2 -2 -2 -2 -2 -2 -2 -2 -2 -3 -2 -1 -2 -2 -2 -2 -2 -3 -3 -2 -2 -2 -2 -1 -1 -3 -2 -2 -3 -2 -2
0 -0 -1 -1 -1 -1 -1 -1 -1 -2 -2 -2 -2 -2 -2 -2 -2 -2 -2 -2 -2 -3 -2 -2 -2 -2 -2 -2 -3 -3 -3 -3 -3 -3 -1 -0 -1 -2 -2 -2 -2 -2 -2
-0 -0 -1 -1 -1 -1 -1 -1 -1 -1 -2 -2 -2 -2 -2 -2 -2 -2 -2 -2 -2 -3 -2 -2 -2 -2 -2 -2 -3 -4 -3 -3 -3 -2 0 0 -0 -2 -2 -2 -2 -2 -2
0 -0 -0 -0 -1 -1 -1 -1 -1 -1 -1 -1 -1 -2 -2 -2 -2 -2 -2 -2 -2 -3 -2 -2 -1 -1 -2 -2 -3 -3 -3 -3 -2 0 0 -1 -0 -2 -3 -2 -2 -2 -2
1 -0 -1 -0 -0 -1 -1 -1 -1 -1 -1 -1 -1 -1 -1 -2 -2 -2 -1 -2 -2 -3 -2 -1 -1 -2 -2 -2 -3 -3 -3 -2 0 0 0 0 -0 -2 -3 -2 -2 -2 -2
0 -0 -0 -1 -1 -1 -1 -1 -1 -1 -1 -1 -1 -1 -1 -1 -1 -1 -1 -2 -2 -2 -2 -2 -2 -2 -3 -3 -3 -3 -3 -2 -0 0 -0 0 -2 -2 -3 -2 -2 -2 -2
0 0 0 -0 -1 -1 -1 -1 -0 -1 -1 -1 -1 -1 -1 -1 -1 -1 -1 -2 -2 -2 -2 -2 -2 -2 -3 -3 -2 -2 -2 -2 1 0 -0 0 -3 -3 -2 -2 -2 -2 -2
1 1 1 1 0 -0 -1 -0 -1 -1 -1 -1 -1 -1 -1 -1 -1 -1 -1 -2 -2 -2 -2 -2 -2 -3 -2 -1 -1 -1 -2 -2 1 0 -0 -1 -3 -2 -2 -2 -2 -2 -2
2 1 1 1 0 0 0 -1 -1 -1 -1 -1 -1 -1 -0 0 -0 -1 -1 -2 -1 -1 -2 -2 -3 -3 -2 -1 -1 -2 -1 1 -0 -0 0 -3 -2 -2 -2 -2 -2 -2 -1
3 2 0 1 1 0 -0 -0 -0 -1 -0 -0 0 2 2 1 0 -0 -1 -1 -1 -1 -2 -3 -3 -2 -0 3 3 1 3 1 0 0 -0 -3 -2 -2 -2 -2 -2 -2 -1
3 2 1 1 0 0 0 0 -0 -0 -0 0 1 1 1 1 1 1 1 1 1 0 -1 -1 -1 1 1 2 3 3 4 3 2 1 -1 -2 -2 -2 -2 -2 -2 -1 -1
5 4 2 2 1 1 0 0 0 0 0 0 1 1 1 2 2 2 2 3 3 3 4 3 2 2 3 2 2 3 5 5 3 2 -0 -2 -2 -2 -2 -2 -2 -1 -1
5 5 4 3 2 2 2 1 1 0 0 0 0 1 1 2 2 2 2 2 2 2 2 1 2 2 3 3 4 5 5 5 4 4 3 -1 -2 -2 -2 -2 -2 -2 -1
5 5 4 4 3 3 3 2 2 2 2 1 1 1 1 1 1 1 1 1 1 0 1 2 2 2 2 3 5 5 5 5 5 4 4 2 -1 -2 -2 -2 -2 -1 -2
4 4 4 4 3 4 5 3 3 3 3 5 4 2 1 1 0 0 0 0 0 1 1 2 2 2 3 4 5 5 5 5 5 5 4 2 1 -1 -2 -2 -2 -1 -1
4 4 4 3 4 4 4 3 3 4 3 4 5 2 1 -0 -0 0 1 1 0 1 2 2 3 4 4 5 5 6 6 6 6 6 4 3 3 2 -0 -2 -2 -1 -1
3 3 4 4 4 4 4 4 4 4 4 4 4 3 -0 -0 -0 0 1 1 1 2 2 2 3 4 5 5 5 6 7 6 6 5 5 5 4 3 3 0 -0 0 0
3 2 3 3 4 4 4 5 5 5 4 4 2 1 -1 -0 -0 0 1 0 1 2 2 3 4 5 5 5 4 6 7 6 7 7 6 4 5 3 4 4 3 3 1
3 3 3 4 3 3 3 4 4 4 3 1 1 -1 0 1 -0 0 1 2 2 2 3 3 5 6 6 6 7 6 7 7 7 7 7 7 6 6 5 5 5 6 4
3 3 3 3 3 3 2 2 2 2 1 1 0 -0 -0 -1 -0 1 1 2 2 3 3 4 5 6 7 6 7 8 9 8 7 7 7 7 8 7 8 7 6 6 7
3 3 3 3 3 2 2 1 1 2 2 2 1 1 0 -0 -0 0 1 2 2 2 3 4 5 6 7 7 7 7 10 11 9 8 8 8 8 8 8 7 6 7 7
2 2 2 2 2 1 0 1 1 2 3 2 1 0 0 0 1 1 1 2 2 1 3 4 4 5 5 6 6 6 7 8 10 11 9 8 8 8 8 7 7 7 7
2 2 1 1 1 1 1 1 1 3 2 1 1 1 1 1 1 1 2 2 3 3 3 3 4 4 4 5 6 6 6 7 8 9 11 10 8 8 7 7 7 7 7
2 2 1 2 1 1 1 1 1 3 2 2 2 2 2 2 3 2 2 3 2 3 3 3 4 4 5 5 6 6 7 7 7 8 10 10 10 9 7 7 7 8 7

GFSSE_con_lsi_048.txt.gz
Lid_Strength_Index
2 -0 -1 -1 -1 -1 -1 -1 -1 -1 -1 -2 -2 -1 -1 -2 -2 -2 -2 -2 -2 -3 -2 -2 -3 -2 -2 -2 -2 -2 -2 -2 -2 -2 -3 -2 -2 -2 -2 -2 -2 -1 -2
2 -0 -0 -1 -1 -1 -1 -1 -1 -1 -2 -2 -1 -1 -1 -2 -2 -2 -2 -2 -2 -3 -2 -2 -2 -2 -2 -2 -2 -2 -2 -2 -2 -2 -2 -2 -2 -3 -2 -2 -2 -1 -2
1 -1 -1 -1 -1 -1 -1 -1 -1 -2 -2 -2 -2 -1 -1 -2 -2 -2 -2 -2 -3 -3 -2 -2 -2 -2 -2 -2 -2 -2 -2 -2 -2 -2 -2 -0 -0 -2 -2 -2 -2 -2 -2
3 0 -1 -1 -1 -1 -1 -1 -1 -2 -2 -2 -2 -2 -1 -2 -2 -2 -2 -2 -3 -3 -2 -2 -2 -2 -2 -2 -2 -2 -2 -2 -2 -2 0 -0 -1 -2 -2 -2 -2 -2 -2
1 -0 0 -1 -1 -1 -1 -1 -1 -1 -1 -1 -1 -2 -2 -2 -2 -2 -2 -2 -3 -3 -2 -2 -2 -1 -2 -2 -2 -2 -2 -2 -2 -1 1 0 -0 -2 -2 -2 -2 -2 -2
0 0 -0 -1 -1 -1 -1 -1 -1 -1 -1 -1 -1 -2 -2 -2 -2 -2 -2 -2 -3 -3 -2 -2 -1 -1 -2 -2 -2 -2 -2 -2 -1 1 1 -1 -0 -2 -2 -2 -2 -2 -2
1 -0 0 -1 -1 -1 -1 -1 -1 -1 -1 -1 -1 -1 -1 -2 -2 -2 -2 -2 -2 -3 -2 -2 -1 -1 -1 -2 -2 -2 -2 -2 1 2 1 1 -0 -2 -3 -3 -2 -2 -2
1 0 -0 -1 -1 -1 -1 -1 -1 -1 -1 -1 -1 -1 -1 -1 -1 -2 -2 -2 -2 -2 -2 -2 -2 -1 -1 -3 -2 -2 -2 -2 0 1 0 0 -2 -2 -3 -2 -2 -2 -2
-0 0 0 -0 -1 -0 0 -1 -0 -1 -1 -1 -1 -1 -1 -1 -1 -1 -2 -2 -2 -2 -2 -1 -1 -1 -1 -3 -3 -3 -2 -2 1 0 -0 0 -3 -3 -3 -2 -2 -2 -1
1 1 1 0 -0 0 2 1 -1 -1 -1 -1 -1 -1 -1 -1 -1 -1 -2 -2 -2 -1 -1 -1 -1 -1 -2 -2 -2 -2 -2 -2 1 1 0 -0 -3 -3 -2 -2 -2 -1 -1
2 1 1 0 -0 0 1 0 -0 -1 -1 -1 -0 -0 0 -0 -1 -1 -1 -2 -2 -1 -1 -0 -1 -1 -1 -2 -2 -2 -1 1 0 0 1 -3 -2 -2 -2 -2 -2 -1 -1
3 2 1 1 1 1 1 1 -0 -0 -0 -0 1 2 1 0 -0 -1 -1 -1 -1 -1 -0 0 0 -0 0 4 3 -0 1 0 0 0 0 -3 -2 -2 -2 -2 -2 -1 -1
3 2 2 1 1 2 2 2 0 -0 0 1 2 1 1 0 1 1 1 1 1 0 2 2 1 1 2 3 4 4 2 1 1 0 -1 -2 -2 -2 -2 -2 -2 -1 -1
4 2 2 2 1 1 2 2 -0 0 1 1 1 0 1 2 2 2 3 2 2 3 4 4 3 3 4 4 5 5 3 2 1 1 0 -2 -2 -2 -2 -2 -2 -1 -1
5 3 2 1 1 0 1 0 0 0 0 0 1 1 2 2 3 3 4 3 3 3 4 3 3 4 4 5 5 5 5 3 3 2 2 -2 -2 -2 -2 -2 -2 -2 -1
5 4 3 2 1 1 1 1 1 0 0 0 1 1 2 2 3 3 3 3 2 3 3 2 3 4 5 5 5 5 5 5 4 4 3 2 -1 -2 -2 -2 -2 -2 -2
4 4 4 3 3 3 3 2 2 2 2 2 1 1 2 2 2 2 2 2 2 2 2 2 3 3 3 5 5 6 5 5 5 5 4 2 1 -1 -1 -2 -2 -2 -2
4 4 3 3 3 3 3 3 3 4 3 5 4 2 2 1 1 1 1 1 1 2 2 2 3 4 5 6 6 7 6 7 7 5 4 3 3 2 -1 -2 -2 -2 -2
3 3 4 3 3 4 3 4 4 4 4 4 4 4 1 1 0 0 1 1 2 2 3 3 4 4 6 6 6 6 7 7 7 6 4 4 4 3 2 -1 -1 -1 -1
2 3 3 3 4 4 3 4 4 4 4 4 4 4 3 2 0 1 1 1 2 3 3 4 4 5 6 6 5 5 7 7 8 8 6 5 5 4 4 3 3 3 -0
3 3 3 3 4 4 4 5 5 5 4 4 5 3 2 1 -0 0 1 1 2 3 3 4 5 7 7 6 7 7 7 7 8 8 8 8 6 5 5 5 5 5 3
3 3 3 4 4 4 3 3 3 4 4 4 3 3 1 1 0 0 1 2 2 3 4 4 6 7 7 7 8 8 9 8 8 8 9 8 9 7 6 5 6 6 6
4 3 3 3 4 3 3 3 3 4 3 3 3 2 1 1 1 -0 0 2 2 3 3 4 6 6 6 6 6 7 10 9 10 9 9 8 8 9 8 7 7 7 7
4 3 3 3 3 2 2 3 3 3 4 3 2 1 0 0 0 0 0 2 2 3 3 4 5 6 6 6 6 5 6 8 10 11 9 9 9 8 8 9 8 8 7
3 3 3 3 3 2 2 2 2 2 1 2 2 2 1 1 0 0 1 2 2 2 3 4 5 5 5 5 5 6 7 8 8 9 11 10 9 8 8 8 8 8 8
3 4 3 3 3 2 3 3 2 2 2 3 3 2 1 1 0 1 2 2 2 2 3 4 4 5 5 6 5 6 6 7 8 9 10 10 9 9 7 8 8 8 8

GFSSE_con_lsi_051.txt.gz
Lid_Strength_Index
1 -0 -0 -1 -1 -1 -1 -1 -1 -1 -1 -2 -2 -2 -2 -2 -2 -2 -2 -2 -2 -2 -2 -2 -2 -2 -2 -2 -2 -2 -2 -2 -2 -2 -2 -2 -2 -2 -2 -2 -2 -1 -2
0 -0 -0 -1 -1 -1 -1 -1 -1 -1 -1 -1 -2 -2 -2 -2 -2 -2 -2 -2 -2 -2 -2 -2 -2 -2 -2 -2 -2 -2 -2 -2 -2 -2 -3 -2 -2 -2 -2 -2 -2 -1 -2
0 -0 -0 -1 -1 -1 -1 -1 -1 -1 -2 -1 -2 -2 -2 -2 -2 -2 -2 -2 -2 -2 -2 -2 -2 -2 -2 -2 -2 -2 -2 -2 -2 -2 -2 -1 -1 -2 -2 -2 -3 -2 -2
0 0 -0 -1 -1 -1 -1 -1 -1 -2 -2 -1 -2 -2 -2 -2 -2 -2 -2 -2 -2 -2 -2 -2 -2 -2 -2 -2 -2 -2 -2 -2 -2 -1 0 -1 -0 -2 -2 -2 -2 -2 -2
2 -0 -0 -1 -1 -1 -1 -1 -1 -1 -1 -1 -1 -2 -2 -2 -2 -2 -2 -2 -2 -2 -2 -2 -1 -2 -2 -2 -2 -2 -2 -2 -2 -1 1 1 -0 -2 -2 -2 -2 -2 -3
3 1 -0 -1 -1 -1 -1 -1 -1 -1 -1 -1 -1 -2 -2 -2 -2 -2 -2 -2 -2 -3 -2 -2 -2 -2 -2 -2 -2 -2 -1 -2 -1 1 1 -1 0 -2 -2 -2 -2 -2 -2
3 2 0 -1 -1 -1 -1 -1 -1 -1 -1 -1 -1 -1 -2 -2 -2 -2 -2 -2 -2 -3 -2 -2 -2 -2 -2 -2 -1 -1 -1 -1 1 2 2 1 -0 -3 -3 -2 -2 -2 -2
0 0 0 -1 -1 -1 -1 -1 -1 -1 -1 -1 -1 -1 -2 -2 -2 -2 -2 -2 -2 -2 -2 -2 -2 -2 -2 -1 -1 -1 -2 -2 1 1 1 0 -2 -3 -3 -2 -2 -2 -2
0 -0 -0 -0 -0 -1 -0 -1 -1 -1 -1 -1 -1 -1 -1 -1 -1 -2 -2 -2 -2 -2 -1 -1 -1 -1 -2 -1 -2 -2 -2 -1 2 1 0 0 -2 -2 -3 -2 -2 -1 -1
0 1 1 1 1 1 1 1 -0 -0 -1 -1 -1 -1 -1 -1 -1 -2 -2 -2 -2 -1 -1 -0 -0 -1 -1 -1 -2 -2 -2 -1 2 1 1 -0 -3 -3 -2 -2 -2 -1 -1
1 1 0 2 2 2 2 1 1 -1 -1 -0 -1 -1 -0 -0 -0 -1 -1 -2 -1 -1 -1 -0 1 -0 -1 -1 -2 -2 -0 2 1 1 1 -3 -2 -2 -2 -2 -1 -1 -1
3 1 1 1 2 3 2 3 4 2 -0 -0 -0 1 -0 -0 -0 -0 -1 -1 -1 -0 -0 0 1 2 3 3 -0 -0 1 0 0 1 0 -3 -2 -2 -2 -2 -2 -1 -1
3 2 1 1 0 1 3 4 3 2 1 2 2 1 0 -0 -0 1 1 1 1 1 3 4 4 5 5 4 3 2 0 0 0 0 -1 -2 -2 -2 -2 -2 -2 -1 -1
2 2 1 1 2 2 2 2 2 1 1 2 1 1 1 1 2 3 2 2 3 3 4 4 5 6 6 5 4 2 2 1 1 1 -0 -2 -3 -2 -2 -2 -2 -2 -1
3 2 1 2 2 3 3 3 2 1 2 2 1 2 2 2 3 3 3 4 4 5 5 4 6 6 6 6 6 5 3 2 1 1 1 -1 -2 -2 -2 -2 -2 -2 -1
4 2 2 2 2 3 3 2 0 1 1 1 1 2 3 3 3 3 4 4 5 5 4 4 5 6 7 7 7 5 4 4 4 3 2 1 -1 -2 -2 -2 -2 -2 -1
4 4 2 1 1 2 1 1 1 1 0 1 1 2 3 3 3 4 4 4 4 5 3 4 5 5 7 7 7 6 5 5 5 5 4 3 1 -1 -1 -2 -2 -2 -2
4 4 3 1 2 2 2 2 2 3 1 1 2 2 2 2 2 3 3 4 3 3 3 4 4 5 7 8 8 7 6 6 5 5 5 4 3 2 -0 -1 -2 -2 -2
3 3 4 3 3 3 3 4 4 3 3 3 1 2 2 1 1 2 2 3 2 3 3 3 5 5 6 7 7 7 7 7 7 5 5 5 5 4 2 -1 -1 -2 -2
3 2 3 4 3 3 3 4 3 4 5 5 4 3 1 1 1 2 2 2 2 3 3 4 5 6 6 7 6 6 7 7 8 8 6 5 5 4 3 3 1 1 -1
2 3 3 4 4 4 4 4 4 5 5 5 4 4 3 2 1 1 2 2 3 3 3 4 5 6 7 7 8 7 8 8 8 9 8 7 6 5 5 4 4 4 3
3 3 3 3 3 3 3 3 3 4 4 4 4 4 3 2 2 1 1 2 2 4 4 4 6 8 8 7 8 8 9 8 8 9 9 8 8 6 6 5 5 5 5
3 3 3 3 4 3 3 3 4 4 5 6 5 4 3 2 2 1 0 2 3 3 3 4 5 7 8 7 7 7 9 10 9 8 8 8 9 9 7 6 5 6 6
4 3 3 4 4 4 3 4 4 4 5 4 4 4 4 2 1 2 1 1 2 3 4 4 4 6 6 8 7 7 7 7 9 10 9 8 8 9 9 8 7 6 7
4 4 3 3 3 3 3 4 5 5 4 4 4 4 3 2 1 0 1 1 1 3 3 3 4 5 5 5 6 8 7 8 8 9 9 9 9 9 8 7 8 9 7
4 4 4 3 3 3 3 3 4 4 3 4 4 3 3 2 1 1 0 1 2 2 3 3 3 4 5 5 5 6 6 7 9 8 9 9 9 8 7 7 7 8 8

GFSSE_con_lsi_057.txt.gz
Lid_Strength_Index
1 -1 -1 -1 -1 -1 -1 -1 -1 -1 -1 -1 -1 -2 -2 -2 -2 -2 -2 -2 -2 -2 -2 -2 -2 -2 -2 -2 -2 -2 -2 -2 -2 -2 -2 -2 -2 -2 -2 -2 -2 -1 -2
-0 -1 -1 -1 -1 -1 -1 -1 -1 -1 -1 -1 -1 -1 -2 -2 -2 -2 -2 -2 -2 -3 -2 -2 -2 -2 -2 -2 -2 -2 -2 -2 -2 -2 -2 -2 -2 -2 -2 -2 -2 -1 -2
-0 -1 -1 -1 -1 -1 -1 -1 -1 -1 -1 -1 -1 -1 -2 -2 -2 -2 -2 -2 -2 -3 -2 -2 -2 -2 -2 -2 -2 -2 -2 -2 -2 -2 -3 -1 -1 -2 -3 -2 -3 -2 -2
-0 -1 -1 -1 -1 -1 -1 -1 -1 -1 -1 -1 -1 -2 -2 -2 -2 -2 -2 -2 -2 -3 -3 -3 -3 -2 -2 -2 -2 -2 -2 -2 -2 -2 -1 -0 -1 -2 -3 -2 -3 -3 -3
-0 -1 -1 -1 -1 -1 -1 -1 -1 -1 -1 -1 -1 -2 -2 -2 -2 -2 -2 -2 -2 -3 -3 -3 -3 -2 -2 -2 -2 -2 -2 -2 -2 -1 -1 -1 -1 -2 -2 -3 -2 -3 -2
0 -1 -1 -0 -1 -1 -1 -1 -1 -1 -1 -1 -1 -2 -2 -2 -2 -2 -2 -2 -2 -2 -2 -2 -2 -2 -2 -2 -2 -2 -2 -1 -1 -0 -1 -1 -1 -2 -2 -2 -2 -2 -2
2 -1 -1 -0 -1 -1 -1 -1 -1 -1 -1 -1 -1 -1 -2 -2 -2 -2 -2 -2 -2 -2 -2 -2 -2 -2 -2 -2 -2 -1 -1 -1 -0 -0 -1 -1 -2 -2 -2 -2 -2 -2 -2
1 1 -1 -1 -1 -1 -1 -1 -1 -1 -1 -1 -1 -1 -1 -2 -2 -2 -2 -2 -2 -2 -2 -2 -2 -2 -2 -2 -1 -1 -1 -0 0 -0 -1 -2 -2 -2 -3 -2 -2 -2 -2
1 1 -0 -1 -1 -0 0 -0 -0 -1 -1 -1 -1 -1 -1 -1 -1 -2 -2 -2 -2 -2 -2 -2 -2 -2 -1 -1 -0 -1 -0 -0 0 -1 -1 -2 -2 -2 -3 -2 -2 -2 -1
0 -0 -0 -0 0 0 -1 -0 -0 -1 -1 -1 -1 -1 -1 -1 -1 -2 -2 -2 -2 -2 -2 -2 -2 -2 -1 -0 -0 -0 0 -1 -1 -1 -2 -2 -3 -3 -2 -2 -2 -1 -1
1 0 0 0 2 0 -0 0 -1 -1 -1 -1 -1 -1 -1 -1 -1 -1 -1 -1 -1 -1 -2 -2 -2 -1 -1 -0 -0 -0 0 -1 -2 -2 -2 -3 -3 -3 -3 -2 -2 -1 -1
2 1 1 1 0 1 0 1 0 -0 -1 -1 -1 -1 -1 -1 -1 -1 -1 -1 -1 -1 -2 -2 -1 -1 0 1 1 1 1 -1 -2 -2 -2 -3 -3 -3 -2 -2 -1 -1 -1
3 2 1 1 1 1 1 1 1 2 0 -1 -1 -1 -1 -0 -1 -1 -0 0 -1 -1 -1 -1 -0 1 0 1 1 1 -1 -1 -2 -2 -2 -3 -2 -2 -2 -2 -1 -1 -1
3 2 1 1 1 1 1 2 2 2 1 1 -1 -1 0 1 1 0 1 1 1 1 0 -0 1 1 1 1 1 -0 -2 -1 -2 -2 -2 -2 -3 -2 -3 -2 -2 -1 -0
2 2 2 2 1 1 2 2 3 2 1 1 -1 -0 1 2 2 1 1 2 2 2 2 2 1 1 1 1 0 -0 -1 -2 -2 -2 -2 -2 -2 -2 -2 -3 -2 -2 -1
2 2 2 2 1 2 3 2 2 2 2 1 0 0 1 2 2 2 2 2 2 3 3 2 2 2 2 1 1 -0 -1 -2 -2 -2 -2 -2 -2 -2 -2 -2 -2 -2 -2
2 1 1 2 2 3 3 3 2 2 2 2 0 0 1 1 1 1 2 2 2 2 3 4 3 3 3 2 1 0 -1 -2 -2 -2 -1 -2 -2 -1 -2 -2 -2 -2 -2
3 2 1 2 2 3 3 3 2 3 2 2 1 0 1 1 1 1 2 2 2 2 3 4 5 5 4 4 3 1 0 0 0 1 -1 -2 -2 -2 -1 -2 -2 -2 -2
2 3 1 2 2 1 1 2 1 2 2 2 1 1 1 1 2 2 1 1 2 2 3 3 4 4 5 5 4 2 2 2 2 3 1 1 -0 -1 -1 -1 -1 -2 -2
2 2 3 2 2 2 2 2 1 1 1 1 1 1 1 1 1 1 1 1 2 2 2 3 3 3 4 4 5 5 4 4 4 2 2 2 1 1 1 0 -1 -1 -1
1 2 3 2 2 2 2 3 2 3 2 1 1 0 0 1 1 1 1 1 1 2 2 2 2 3 4 4 4 5 5 4 3 3 3 2 1 2 1 1 0 -1 -1
2 2 2 2 2 2 2 2 1 2 3 1 0 -0 0 0 1 0 1 1 1 1 1 1 2 2 2 4 4 4 4 4 4 3 4 4 2 3 3 2 1 -0 -0
2 2 2 2 2 2 2 2 2 2 3 3 3 2 1 0 0 0 0 0 0 0 1 0 0 1 3 4 3 2 5 5 4 4 4 4 5 4 4 3 2 2 0
2 1 1 2 2 2 2 2 3 3 4 3 3 3 2 2 1 0 1 1 1 0 0 -0 0 1 1 2 4 4 3 3 5 5 6 5 4 6 4 4 2 1 2
2 1 1 2 2 2 2 1 2 3 3 3 3 4 3 2 2 2 2 1 -0 -0 -1 -0 0 1 1 1 2 3 4 6 6 5 5 6 6 6 4 3 3 2 2
2 1 1 1 3 2 2 2 2 2 3 4 4 4 4 3 2 2 2 2 0 -1 -0 -0 -1 0 1 1 1 3 5 6 6 6 6 5 5 5 3 3 3 4 4

GFSSE_con_lsi_060.txt.gz
Lid_Strength_Index
0 -1 -1 -1 -1 -1 -1 -1 -1 -1 -1 -1 -1 -1 -1 -1 -1 -1 -2 -2 -2 -2 -2 -2 -2 -2 -2 -2 -2 -2 -2 -2 -2 -2 -2 -2 -2 -2 -2 -2 -2 -1 -2
-0 -1 -1 -1 -1 -1 -1 -1 -1 -1 -1 -1 -1 -1 -1 -1 -1 -1 -2 -2 -2 -2 -2 -2 -2 -2 -2 -2 -2 -2 -2 -2 -2 -2 -2 -2 -2 -2 -2 -2 -2 -2 -2
-0 -1 -1 -1 -1 -1 -1 -1 -1 -1 -1 -1 -1 -1 -1 -1 -1 -1 -2 -2 -2 -2 -2 -2 -2 -2 -2 -2 -2 -2 -2 -2 -2 -2 -3 -2 -1 -2 -2 -2 -2 -2 -2
-0 -1 -1 -1 -1 -1 -1 -1 -1 -1 -1 -1 -1 -1 -1 -1 -2 -2 -2 -2 -2 -2 -2 -2 -2 -2 -2 -2 -2 -2 -2 -2 -2 -3 -2 -2 -2 -2 -2 -2 -2 -2 -2
-0 -1 -1 -1 -1 -1 -1 -1 -1 -1 -1 -1 -1 -1 -2 -2 -2 -2 -2 -2 -2 -3 -2 -2 -2 -2 -2 -2 -2 -2 -2 -2 -2 -2 -1 -1 -2 -2 -2 -2 -2 -2 -2
0 -1 -1 -0 -1 -1 -1 -1 -1 -1 -1 -1 -1 -1 -2 -2 -2 -2 -2 -2 -2 -3 -2 -2 -2 -2 -2 -2 -2 -2 -2 -2 -2 -1 -0 -1 -2 -2 -3 -2 -2 -2 -2
0 -1 -1 0 -1 -1 -1 -1 -1 -1 -1 -1 -1 -1 -1 -2 -2 -2 -2 -2 -2 -2 -2 -2 -2 -2 -2 -2 -2 -2 -2 -2 -1 -0 -1 -1 -2 -3 -3 -3 -2 -2 -2
-0 -0 -1 -1 -1 -0 -1 -1 -0 -1 -1 -1 -1 -1 -1 -1 -1 -1 -2 -2 -2 -2 -2 -2 -2 -2 -2 -2 -1 -1 -1 -1 -0 -0 -1 -2 -3 -3 -2 -2 -2 -2 -2
-1 -0 -1 -1 -1 -1 -0 -0 -0 -1 -1 -1 -1 -1 -1 -1 -1 -1 -1 -2 -2 -2 -2 -2 -2 -2 -1 -1 -1 -0 -1 -2 -1 -1 -1 -2 -2 -2 -2 -2 -2 -2 -2
-0 0 -0 -1 -1 -1 -1 -0 -1 -1 -1 -1 -1 -1 -1 -1 -1 -1 -1 -1 -2 -2 -2 -2 -2 -2 -1 -1 -0 -0 0 -1 -0 -1 -2 -2 -2 -2 -2 -2 -2 -2 -1
0 0 -0 -0 -1 -1 -1 -1 -1 -1 -1 -1 -1 -1 -0 -1 -1 -1 -1 -1 -1 -1 -2 -2 -2 -1 -1 -1 -0 0 0 -0 -0 -2 -2 -2 -2 -3 -2 -2 -2 -1 -1
2 1 0 -0 -0 -0 -0 0 -0 -1 -1 -1 -1 -2 -1 -2 -2 -0 -1 -1 -1 -1 -2 -2 -1 -1 -0 0 0 0 0 -1 -1 -2 -2 -3 -3 -3 -3 -2 -2 -1 -1
1 1 0 0 -1 -0 -0 -0 0 -0 0 -1 -1 -1 -2 -1 -1 -1 -1 -2 -2 -1 -1 -1 -0 0 0 1 1 0 -0 -0 -1 -2 -2 -3 -2 -3 -3 -2 -2 -1 -1
2 1 0 -0 -0 -0 -0 0 0 1 0 0 1 -1 -1 -0 0 -1 -1 -1 -1 -1 -1 -1 -0 -1 -0 1 1 0 0 -0 -2 -2 -2 -2 -2 -2 -3 -2 -2 -1 -1
2 1 1 0 -0 0 1 1 1 1 1 1 1 -0 -0 0 0 1 -0 -1 -1 -1 -1 -0 -1 -0 0 1 1 1 0 -0 -2 -2 -2 -2 -2 -2 -2 -3 -2 -2 -1
2 1 1 1 1 -0 1 1 2 1 1 1 1 -0 0 1 1 1 1 1 0 -1 -1 -0 0 1 1 1 1 1 1 -1 -2 -2 -2 -2 -2 -2 -2 -2 -2 -2 -2
2 1 1 1 0 -0 1 1 1 2 1 1 1 -0 0 1 1 1 2 1 1 0 0 0 0 1 1 1 1 1 0 -1 -2 -2 -2 -2 -2 -1 -2 -2 -2 -2 -2
1 1 1 1 1 -0 0 1 1 2 1 1 1 0 1 1 1 1 2 2 2 1 1 1 1 2 2 2 2 1 1 0 -1 -2 -2 -2 -2 -1 -1 -2 -2 -2 -2
1 1 1 1 2 2 2 2 2 2 2 1 0 1 1 1 1 2 2 1 1 2 2 2 2 2 3 3 3 2 1 1 -1 -1 -1 -2 -1 -2 -2 -2 -2 -2 -2
1 1 1 1 2 2 2 1 1 2 2 1 1 1 1 1 1 1 2 1 1 1 1 2 2 2 3 3 4 3 2 1 0 -0 0 1 0 -1 -1 -2 -2 -2 -1
1 1 2 2 2 1 3 2 2 2 3 2 2 1 0 1 0 1 1 1 0 1 1 1 1 2 3 3 4 4 3 2 1 1 1 1 0 0 -0 -0 -0 -1 -1
1 1 1 2 2 2 1 2 1 1 1 2 2 2 0 -0 0 0 0 0 0 0 0 0 1 1 2 2 3 2 3 3 2 2 2 1 1 1 1 0 1 1 -0
2 2 1 1 1 2 1 1 2 2 2 2 2 2 1 -1 -1 0 0 -0 -0 0 0 -0 0 1 2 1 0 1 3 4 2 1 2 2 2 1 1 1 2 1 0
2 1 1 1 1 1 1 2 2 3 3 3 2 1 0 -0 -1 -0 0 -0 -1 -1 0 -0 -1 -0 0 2 0 1 0 1 3 4 1 2 2 4 2 3 2 1 1
1 1 1 1 1 1 1 1 2 3 3 3 2 1 0 0 -0 -0 0 -1 -1 -1 -1 -1 -0 0 -0 1 1 1 1 1 2 3 5 3 3 3 3 2 2 1 1
1 1 1 1 1 1 1 1 2 2 3 3 2 3 2 1 0 -0 -0 -1 -1 -0 0 1 -0 -0 -0 0 0 0 1 2 2 3 5 5 5 3 4 2 1 1 1

GFSSE_con_lsi_063.txt.gz
Lid_Strength_Index
0 -1 -1 -1 -1 -1 -1 -1 -1 -1 -1 -1 -1 -1 -1 -1 -1 -1 -1 -1 -2 -2 -2 -2 -2 -2 -2 -2 -2 -2 -2 -2 -2 -2 -2 -2 -2 -2 -2 -2 -2 -1 -2
-0 -1 -1 -1 -1 -1 -1 -1 -1 -1 -1 -1 -1 -1 -1 -1 -1 -1 -1 -1 -2 -2 -2 -2 -2 -2 -2 -2 -2 -2 -2 -2 -2 -2 -2 -2 -2 -2 -2 -2 -2 -1 -2
-0 -1 -1 -1 -1 -1 -1 -1 -1 -1 -1 -1 -1 -1 -1 -1 -1 -1 -1 -1 -2 -2 -2 -2 -2 -2 -2 -2 -2 -2 -2 -2 -2 -2 -2 -1 -1 -2 -2 -2 -2 -2 -2
-0 -1 -1 -1 -1 -1 -1 -1 -1 -1 -1 -1 -1 -1 -1 -1 -1 -1 -1 -1 -2 -2 -2 -2 -2 -2 -2 -2 -2 -2 -2 -2 -2 -2 -2 -1 -1 -2 -2 -2 -2 -2 -2
-0 -1 -0 -1 -0 -1 -1 -1 -1 -1 -1 -1 -1 -1 -1 -1 -2 -2 -1 -1 -2 -2 -2 -2 -2 -2 -2 -2 -2 -2 -2 -2 -2 -2 -1 -1 -2 -2 -2 -2 -2 -2 -3
-0 -1 0 -1 -1 -1 -1 -1 -1 -1 -1 -1 -1 -1 -1 -2 -2 -2 -1 -2 -2 -2 -2 -2 -2 -2 -2 -2 -2 -2 -2 -3 -2 -1 -1 -1 -1 -2 -2 -2 -2 -2 -2
-0 -1 -1 -0 -1 -1 -1 -1 -1 -1 -1 -1 -1 -1 -1 -1 -2 -2 -2 -2 -2 -2 -2 -2 -2 -2 -2 -2 -2 -2 -2 -2 -0 -0 -0 -0 -1 -2 -3 -2 -2 -2 -2
-0 -1 -1 -1 -1 -1 -0 -1 -1 -0 -0 -1 -1 -1 -1 -1 -1 -2 -2 -2 -2 -2 -2 -2 -2 -2 -2 -2 -2 -1 -1 -2 -0 -0 -0 -0 -2 -2 -2 -2 -2 -2 -2
-0 -0 -1 -1 -0 -1 -1 -0 -0 -0 -0 -1 -1 -1 -1 -1 -1 -1 -2 -2 -2 -2 -2 -2 -2 -2 -2 -2 -1 -0 -0 -1 -0 -0 0 -1 -1 -2 -2 -2 -2 -2 -2
0 -0 -0 -1 -1 -1 -1 -1 -0 -0 -0 -0 -1 -1 -0 -1 -1 -1 -1 -1 -2 -2 -2 -2 -2 -2 -1 -1 -1 -0 0 -0 0 0 0 -1 -2 -2 -2 -2 -2 -2 -2
1 0 -0 -0 -1 -1 -1 -1 -1 -1 -0 -0 -1 -0 -0 -1 -1 -1 -1 -1 -1 -1 -2 -2 -1 -1 -1 -1 -1 -1 -0 0 0 0 1 -2 -2 -3 -2 -2 -2 -2 -1
2 1 0 -0 -0 -1 -1 -1 -1 -1 -0 -1 -1 -1 -1 -2 -2 -1 -1 -1 -1 -1 -1 -1 -1 -1 -0 1 0 0 -0 -0 0 0 0 -2 -2 -3 -2 -2 -2 -2 -1
1 1 0 -0 -0 -0 -0 -1 -1 1 -0 -1 -1 -1 -1 -2 -2 -1 -2 -2 -1 -1 -0 -0 0 1 1 1 0 -0 -0 -0 0 0 0 -2 -2 -2 -2 -2 -2 -1 -1
2 1 0 -0 -0 -0 -1 0 -0 0 0 -0 -0 -0 -0 -1 -1 -1 -1 -1 -0 -0 -0 1 1 -0 1 1 0 0 -0 0 0 0 -0 -2 -2 -2 -3 -2 -2 -1 -1
2 1 1 -0 -0 -0 -0 -0 -0 0 1 1 0 -0 -0 -1 -1 -1 -1 -1 -0 -1 -1 0 -0 1 1 1 0 0 0 -0 -0 0 -0 -2 -2 -3 -2 -3 -2 -2 -1
2 1 0 0 -0 -0 0 -0 -0 0 1 1 1 1 0 -0 -0 -1 -1 -1 -0 -1 -1 -0 0 0 1 1 1 1 0 -0 -0 -0 -1 -2 -2 -2 -3 -2 -3 -2 -2
1 1 1 0 0 0 0 1 1 1 1 1 1 1 1 0 -0 -0 -0 -0 -1 -1 -1 -1 -0 0 1 1 1 1 0 -0 -0 -1 -1 -1 -2 -1 -2 -2 -2 -2 -2
1 2 1 0 1 0 -0 0 1 1 1 1 1 1 2 1 0 0 1 1 0 -1 -0 0 1 1 2 2 2 2 1 1 0 -0 -1 -2 -2 -2 -1 -2 -2 -3 -2
1 1 1 0 1 0 -0 0 1 1 2 2 2 1 1 0 1 1 1 1 0 1 0 1 1 1 2 2 2 2 1 1 1 0 -1 -1 -2 -2 -2 -1 -1 -2 -2
1 1 1 1 1 1 1 1 1 1 2 2 2 1 1 1 1 1 1 1 1 2 2 1 1 1 2 2 3 3 2 2 1 1 1 -0 -2 -2 -2 -2 -2 -1 -1
1 1 1 1 1 2 2 1 2 2 2 2 1 1 0 2 1 1 1 1 1 2 2 1 2 2 3 2 4 4 3 2 2 2 1 0 -0 -0 -1 -1 -2 -1 -2
1 2 2 2 2 2 2 2 1 2 2 2 2 1 0 1 1 0 1 1 1 1 0 1 1 2 2 2 4 4 5 4 3 2 1 1 -0 0 1 -1 -1 -1 -1
2 2 2 1 2 2 3 2 1 1 2 3 2 2 2 1 1 0 -0 -0 -0 -0 0 0 0 0 2 2 1 2 4 5 3 1 1 1 0 0 1 -0 -1 -0 -0
2 1 1 1 1 1 2 3 2 2 3 2 2 2 2 2 0 0 1 0 -0 -0 -0 -0 -0 0 1 2 1 1 0 1 4 4 1 1 0 2 2 2 1 0 0
1 1 1 1 1 1 1 1 1 2 1 2 2 2 2 2 1 1 0 1 0 -0 -0 -0 0 0 0 1 1 1 1 1 1 3 5 3 2 2 2 3 3 2 1
1 1 1 1 1 1 1 1 2 2 2 3 2 2 2 2 1 -0 0 0 1 0 0 -0 -0 0 0 0 1 1 2 2 3 3 4 3 3 1 1 2 3 3 1

GFSSE_con_lsi_066.txt.gz
Lid_Strength_Index
1 -0 -0 -1 -1 -1 -1 -1 -1 -1 -1 -1 -1 -1 -1 -1 -1 -1 -1 -1 -2 -2 -2 -2 -2 -2 -2 -2 -2 -2 -2 -2 -1 -2 -2 -2 -2 -2 -2 -2 -2 -1 -2
0 -0 -0 -0 -1 -1 -1 -1 -1 -1 -1 -1 -1 -1 -1 -1 -1 -1 -1 -1 -1 -2 -2 -2 -2 -2 -2 -2 -2 -2 -2 -1 -1 -2 -2 -2 -2 -2 -2 -2 -2 -1 -2
0 -0 -1 -0 -1 -1 -1 -1 -1 -1 -1 -1 -1 -1 -1 -1 -1 -1 -1 -1 -1 -2 -2 -2 -2 -2 -2 -2 -2 -2 -2 -2 -2 -2 -2 -1 -1 -2 -2 -2 -2 -2 -2
-0 -0 -1 -1 -0 -1 -1 -1 -1 -1 -1 -1 -1 -1 -1 -1 -1 -1 -1 -1 -1 -2 -2 -2 -2 -2 -2 -2 -2 -2 -2 -2 -2 -2 -1 -1 -1 -2 -2 -2 -2 -2 -2
-0 -0 -0 -1 -0 -0 -1 -1 -1 -1 -1 -1 -1 -1 -1 -1 -1 -1 -1 -1 -2 -2 -2 -2 -2 -2 -2 -2 -2 -2 -2 -1 -2 -1 -0 -0 -1 -2 -2 -2 -2 -2 -2
-0 -1 0 -0 -1 -0 -1 -1 -1 -1 -1 -1 -1 -1 -1 -1 -1 -1 -1 -2 -2 -2 -2 -2 -2 -2 -2 -2 -2 -2 -2 -2 -2 0 -0 -1 -1 -2 -2 -2 -2 -2 -2
-0 -1 -0 0 -0 -1 -0 -1 -1 -1 -0 -1 -1 -1 -1 -1 -1 -1 -1 -2 -2 -2 -2 -2 -2 -2 -2 -2 -2 -2 -2 -2 0 1 1 0 0 -1 -2 -2 -2 -2 -2
-1 -1 -1 -1 -1 -0 -0 -0 -1 -1 -1 -1 -1 -1 -1 -1 -1 -1 -1 -2 -2 -2 -2 -2 -2 -2 -2 -2 -1 -1 -1 -2 0 1 1 1 -1 -2 -2 -2 -2 -2 -2
-1 -0 -0 -1 -1 0 0 1 1 1 0 -1 -0 -1 -1 -1 -1 -1 -1 -2 -2 -2 -2 -2 -2 -2 -2 -1 -1 -0 -0 -1 2 2 1 1 -1 -1 -2 -2 -2 -2 -2
0 -0 0 -0 0 0 -0 0 0 1 1 -0 -0 -0 -1 -1 -1 -1 -1 -1 -1 -2 -2 -2 -2 -2 -1 -1 -0 -1 0 -1 2 2 2 1 -1 -1 -2 -2 -2 -2 -2
1 1 0 0 -0 -0 -0 -1 -1 -1 -0 1 -0 -0 -0 -1 -1 -1 -1 -1 -1 -1 -1 -1 -2 -1 -1 -0 -1 -1 -1 1 1 2 2 -0 -1 -1 -2 -2 -2 -2 -2
2 1 0 0 0 -0 -0 -0 -0 0 1 2 -0 -0 -0 -0 -1 -1 -1 -1 -1 -1 -1 -1 -1 -1 0 2 2 1 2 1 2 2 1 -0 -0 -1 -2 -2 -2 -2 -1
2 1 1 0 0 0 0 -0 -0 1 0 -1 -0 -0 -0 -0 -0 -1 -0 -0 -0 -1 0 1 0 2 3 3 2 2 1 1 1 2 1 -0 -0 -1 -1 -2 -2 -1 -1
2 1 1 0 0 0 -0 -0 -0 0 -0 -0 -0 -0 -0 -0 -0 -0 0 1 1 1 2 2 2 2 3 2 1 1 1 1 2 2 1 -0 -0 -1 -2 -2 -2 -1 -1
2 2 1 0 0 0 0 -0 0 0 0 0 -0 -0 -0 -0 0 -0 1 1 2 1 2 3 2 2 2 2 1 1 1 1 2 2 2 -0 -0 -1 -2 -2 -2 -2 -1
2 2 1 1 0 0 0 0 0 1 1 1 1 0 -0 -0 -0 0 0 1 1 2 1 2 1 2 2 2 2 2 1 1 2 2 2 1 -0 -1 -1 -2 -2 -2 -2
2 1 1 1 0 0 0 0 0 0 1 1 1 1 1 0 0 -0 0 1 1 1 1 2 1 2 2 2 2 2 1 1 1 2 2 2 1 -1 -1 -2 -2 -2 -2
2 2 1 1 1 0 0 0 0 0 1 1 1 1 1 1 1 0 0 1 1 1 1 2 2 2 3 3 3 3 2 2 2 1 2 1 1 -0 -1 -2 -2 -3 -2
2 2 1 1 1 1 1 0 0 1 1 1 1 1 1 1 1 1 1 1 0 1 1 2 3 2 3 3 3 3 3 3 2 2 1 1 1 0 -0 -1 -2 -2 -2
1 1 1 1 1 1 0 1 1 1 0 1 2 2 2 2 1 1 1 1 2 2 2 3 3 2 3 4 3 3 3 3 3 3 3 2 1 1 -0 -1 -1 -1 -1
2 2 2 2 2 1 1 2 2 3 2 2 2 3 3 2 1 2 2 2 2 3 3 3 3 4 4 3 4 5 5 4 4 4 3 3 2 2 1 -0 -1 -1 -1
2 2 2 2 2 1 2 2 1 2 2 2 2 2 2 2 2 2 2 2 2 2 3 3 4 5 4 4 6 6 8 7 5 4 4 4 4 3 2 1 -0 -0 -0
3 2 2 2 2 2 1 1 1 1 2 2 2 2 2 2 2 3 1 2 2 2 2 2 3 4 4 4 4 6 7 8 6 5 4 4 4 3 3 2 2 2 1
2 2 2 1 2 2 2 2 3 3 3 3 2 2 2 2 2 2 1 2 2 1 1 1 1 2 2 4 4 3 3 3 5 6 4 4 3 3 3 3 3 2 1
2 2 2 1 1 1 2 2 2 2 2 2 2 2 2 2 2 1 1 1 1 1 1 1 1 1 2 2 3 3 3 3 3 4 6 5 4 3 4 3 3 4 2
2 2 2 2 2 1 2 2 2 2 2 3 3 3 3 3 3 2 1 1 1 1 1 1 1 1 1 1 2 2 2 3 4 4 5 4 5 3 3 3 3 4 3

GFSSE_con_lsi_069.txt.gz
Lid_Strength_Index
1 -0 -0 -1 -1 -1 -1 -1 -1 -1 -1 -1 -1 -1 -1 -1 -1 -1 -1 -1 -2 -2 -2 -2 -2 -2 -2 -2 -2 -2 -2 -2 -1 -2 -2 -2 -2 -2 -2 -2 -2 -1 -2
0 -0 -0 -0 -1 -1 -1 -1 -1 -1 -1 -1 -1 -1 -1 -1 -1 -1 -1 -1 -2 -2 -2 -2 -2 -2 -2 -2 -2 -2 -2 -1 -1 -2 -2 -2 -2 -2 -2 -2 -2 -1 -2
1 -0 -0 -0 -1 -1 -1 -1 -1 -1 -1 -1 -1 -1 -1 -1 -1 -1 -1 -1 -1 -2 -2 -2 -2 -2 -2 -2 -1 -2 -2 -2 -2 -2 -2 -1 -1 -2 -2 -2 -2 -2 -2
1 0 -0 -0 -1 -1 -1 -1 -1 -1 -1 -1 -1 -1 -1 -1 -1 -1 -1 -1 -1 -2 -2 -2 -2 -2 -2 -2 -1 -1 -2 -2 -2 -2 -1 -1 -1 -2 -2 -2 -2 -2 -2
1 0 -0 -0 -0 -1 -1 -1 -1 -1 -1 -1 -1 -1 -1 -1 -1 -1 -1 -1 -2 -2 -2 -2 -2 -2 -2 -1 -1 -2 -2 -2 -2 -1 -0 -1 -1 -2 -2 -2 -2 -2 -2
1 -0 0 -0 -0 -0 -1 -1 -1 -1 -1 -1 -1 -1 -1 -1 -1 -1 -1 -1 -2 -2 -2 -2 -2 -2 -2 -1 -1 -2 -2 -2 -1 1 -1 -1 -1 -2 -2 -2 -2 -2 -2
1 0 1 0 -0 -0 -0 -1 -1 -1 -1 -1 -1 -1 -1 -1 -1 -1 -1 -1 -2 -2 -2 -2 -2 -2 -2 -2 -2 -2 -2 -1 1 1 1 -1 -1 -2 -2 -2 -2 -2 -2
1 1 0 0 -0 -0 -0 -0 -0 -1 -1 -1 -1 -1 -1 -1 -1 -1 -1 -1 -1 -2 -2 -2 -2 -2 -2 -2 -1 -1 -1 -1 0 1 1 0 -1 -1 -2 -2 -2 -2 -2
1 1 1 1 0 1 1 1 1 0 1 -0 -1 -1 -1 -1 -1 -1 -1 -2 -1 -2 -2 -2 -2 -2 -2 -1 -1 -1 -1 -1 1 1 1 1 -1 -1 -1 -1 -1 -2 -2
1 1 1 2 2 2 1 1 1 -1 -1 -0 -0 -1 -0 -1 -1 -1 -1 -1 -1 -2 -2 -2 -2 -2 -1 -1 -0 -1 -1 -0 2 2 2 1 -1 -1 -1 -2 -2 -2 -2
1 1 1 2 2 2 2 1 0 -1 -1 -1 -1 1 -0 -0 -0 -1 -1 -1 -1 -1 -1 -2 -1 -1 -0 -0 -0 -0 -0 2 2 2 2 -0 -0 -1 -1 -1 -1 -1 -2
3 2 2 1 2 2 1 1 1 0 -0 0 1 1 -1 -0 -0 -1 -1 -1 -1 -1 -1 -2 -1 -0 1 2 3 1 2 2 2 2 2 -1 -0 -0 -0 -0 -1 -1 -1
2 2 2 1 1 2 1 1 1 1 1 2 2 3 -0 -0 -0 -0 -0 -1 -0 -1 0 0 1 2 3 3 3 3 2 2 2 2 1 -1 -0 -0 -0 -0 -1 -1 -1
3 2 2 1 1 1 0 1 1 1 1 2 2 2 -0 -0 -0 -0 0 0 1 1 2 2 3 4 4 3 3 2 2 2 2 2 1 -0 -0 -0 -0 -0 -1 -1 -1
3 3 2 1 1 1 1 1 1 1 1 1 0 -0 -0 0 0 1 1 1 2 2 3 4 4 4 5 4 2 2 2 2 2 2 3 0 0 -0 -0 -0 -1 -1 -1
2 2 2 1 1 1 1 1 0 1 1 0 0 0 0 -0 1 1 1 2 2 3 4 4 4 5 5 4 3 2 2 2 3 3 2 2 1 -0 -0 -1 -1 -2 -1
2 2 2 1 1 1 1 1 1 1 0 0 1 1 0 -0 1 1 2 2 2 2 4 4 4 3 4 3 3 2 2 2 3 3 2 2 1 1 0 -1 -1 -2 -1
2 2 1 1 1 1 1 1 1 1 1 1 1 1 1 -0 0 1 2 2 1 2 3 3 3 3 4 4 4 3 2 2 3 3 2 2 2 2 1 -1 -2 -3 -2
2 2 2 2 1 1 2 1 1 1 1 1 1 1 1 1 0 1 2 2 1 2 2 3 3 4 4 5 4 4 4 2 3 2 3 3 2 2 2 -0 -1 -2 -2
2 2 2 2 1 1 1 1 1 0 1 1 1 1 1 1 1 1 1 1 1 2 2 3 3 4 4 4 4 4 4 4 3 3 3 2 2 2 1 1 -0 -1 -1
2 2 2 2 1 1 1 2 2 3 1 1 1 1 2 2 2 1 2 2 2 1 3 3 3 4 5 5 6 6 5 4 4 4 3 3 2 2 2 1 0 -0 -1
3 2 2 2 1 1 1 1 2 2 1 1 1 1 2 2 2 2 2 2 3 2 3 3 4 5 5 5 6 7 8 7 6 5 5 4 3 2 1 1 1 -0 -1
3 3 2 2 1 1 1 1 2 2 2 2 2 2 2 2 2 2 2 2 2 2 3 4 4 5 6 6 5 7 8 9 8 7 6 6 5 5 4 2 0 -0 -0
3 3 2 2 2 1 1 2 2 3 3 3 2 2 2 2 3 3 2 2 2 2 3 4 3 5 4 6 5 4 5 5 7 8 7 6 6 5 5 4 3 0 0
3 3 3 3 2 2 1 2 3 3 3 3 2 2 2 3 3 3 3 3 3 3 3 3 3 3 3 4 5 5 5 5 5 6 8 6 6 4 4 3 3 3 2
3 3 3 3 2 1 1 2 2 3 3 4 3 3 2 3 3 2 3 2 2 3 2 2 2 2 2 2 3 4 4 5 5 5 6 6 6 5 4 4 3 3 3

GFSSE_con_lsi_072.txt.gz
Lid_Strength_Index
1 -0 -0 -1 -1 -1 -1 -1 -1 -1 -1 -1 -1 -1 -1 -1 -1 -1 -1 -1 -1 -2 -2 -2 -2 -2 -2 -2 -2 -2 -2 -1 -1 -2 -2 -2 -2 -2 -2 -2 -2 -1 -2
0 -0 -0 -1 -1 -1 -1 -1 -1 -1 -1 -1 -1 -1 -1 -1 -1 -1 -1 -1 -1 -2 -2 -2 -2 -2 -2 -2 -1 -1 -1 -1 -1 -1 -2 -2 -2 -2 -2 -2 -2 -1 -2
1 -0 -0 -0 -1 -1 -1 -1 -1 -1 -1 -1 -1 -1 -1 -1 -1 -1 -1 -1 -1 -2 -2 -2 -2 -2 -2 -2 -1 -1 -1 -1 -1 -2 -2 -1 -1 -2 -2 -2 -2 -2 -2
0 -0 -0 -0 -0 -1 -1 -1 -1 -1 -1 -1 -1 -1 -1 -1 -1 -1 -1 -1 -1 -2 -2 -2 -2 -2 -2 -1 -1 -1 -2 -2 -1 -2 -1 -1 -1 -2 -2 -2 -2 -2 -2
1 -0 -0 -0 -0 -1 -1 -1 -1 -1 -1 -1 -1 -1 -1 -1 -1 -1 -1 -1 -1 -2 -2 -2 -2 -2 -1 -1 -1 -2 -2 -2 -2 -1 -0 -1 -1 -1 -2 -2 -2 -2 -2
1 0 0 0 -0 -0 -1 -1 -1 -1 -1 -1 -1 -1 -1 -1 -1 -1 -1 -1 -2 -2 -2 -2 -2 -2 -1 -1 -1 -2 -2 -2 -1 -0 -1 -1 -1 -2 -2 -2 -2 -2 -2
1 1 0 0 -0 -0 -1 -1 -1 -1 -0 -1 -1 -1 -1 -1 -1 -1 -1 -1 -1 -2 -2 -2 -2 -1 -1 -2 -2 -2 -1 -1 1 0 0 -1 -1 -2 -2 -2 -2 -2 -2
1 1 1 -0 -0 -0 -0 -0 -0 -0 -0 -0 -1 -1 -1 -1 -1 -1 -1 -1 -1 -1 -1 -1 -2 -2 -2 -1 -2 -1 -1 -1 1 1 0 -1 -2 -2 -1 -1 -1 -2 -2
1 1 1 1 1 1 1 0 0 -0 -0 -1 -1 -1 -2 -1 -1 -1 -1 -1 -1 -1 -1 -1 -2 -2 -2 -1 -1 -0 -0 -0 2 1 1 0 -1 -1 -1 -1 -1 -2 -2
2 2 2 2 3 3 2 1 1 -0 -0 -1 -1 -0 -1 -1 -1 -1 -1 -1 -1 -1 -1 -2 -1 -1 -1 -1 -0 -0 -0 -0 2 2 2 1 -1 -1 -1 -0 -1 -1 -2
2 2 2 3 2 2 2 1 0 -0 -0 -1 -1 -0 -0 -0 -1 -1 -1 -1 -1 -1 -1 -1 -1 -1 -0 -1 -0 -0 0 2 2 2 2 -1 -1 -1 -1 -0 -0 -1 -2
3 3 2 3 3 2 2 1 1 0 0 0 0 -0 1 2 -1 -0 -1 -1 -1 -1 -1 -1 -1 -0 1 2 1 0 2 2 2 2 1 -1 -1 -1 -0 -0 -0 -1 -1
3 3 2 3 2 2 2 2 2 2 1 1 0 0 2 1 -0 -0 -0 -0 -0 -1 1 1 1 3 4 4 3 3 2 2 2 2 1 -0 -1 -1 -0 -0 -0 -0 -0
3 3 3 2 2 2 2 2 2 1 2 2 1 0 2 1 -0 -0 -0 -0 -0 1 2 2 3 4 4 3 2 3 3 2 2 2 1 -0 -1 -0 -0 -0 -0 0 0
4 3 3 2 1 1 1 2 2 2 2 2 2 1 -0 -0 0 0 0 0 1 1 2 3 4 5 4 3 3 3 3 3 3 2 2 -0 -0 -0 -0 -0 -0 0 -0
3 3 3 2 1 1 2 2 1 1 1 2 2 2 0 0 1 1 1 1 2 2 3 3 5 5 5 4 3 3 3 3 3 3 2 1 0 -0 -0 0 0 -0 -0
2 3 3 2 1 1 2 2 1 1 0 1 1 1 0 1 2 1 2 2 2 3 4 5 5 6 5 4 3 3 3 3 3 3 3 2 2 1 0 0 0 0 0
2 3 2 1 2 2 2 2 0 0 0 0 0 1 0 1 2 2 2 3 2 3 4 4 4 5 5 4 3 3 3 3 3 3 3 3 3 2 1 0 -0 -0 -0
2 2 3 2 2 3 1 1 1 1 0 0 0 1 1 2 2 3 3 2 3 3 4 4 4 5 6 5 4 3 3 4 4 3 3 3 3 3 3 1 0 -0 -1
2 2 2 1 2 3 2 1 1 1 1 1 1 1 1 1 2 2 3 2 3 3 3 3 4 5 4 5 4 4 4 4 4 4 3 3 3 3 3 3 2 1 -0
3 2 2 2 2 2 2 2 2 2 2 2 1 1 2 1 1 2 3 2 3 3 3 3 4 5 5 5 6 7 6 4 4 4 3 3 3 3 3 2 2 2 1
3 3 2 2 2 2 2 1 2 2 1 1 1 1 1 1 1 2 2 2 2 2 3 3 4 5 5 5 5 7 8 7 6 5 4 3 3 3 3 2 2 2 1
3 3 2 2 1 1 1 2 2 2 2 2 2 2 1 1 2 1 2 1 2 2 3 4 5 5 6 6 5 6 9 9 8 7 6 4 4 3 3 2 2 1 1
3 3 2 2 2 1 1 2 3 3 3 2 2 2 2 1 2 2 2 2 2 2 3 3 3 5 5 6 6 6 6 6 7 9 7 6 6 4 4 3 2 1 1
3 3 3 3 2 2 1 2 2 3 2 2 2 2 2 2 2 3 2 2 3 2 2 3 3 4 5 6 7 6 6 4 5 7 9 8 7 6 5 4 3 1 1
3 3 3 3 3 2 1 2 2 3 3 3 3 3 2 2 3 3 2 2 2 2 2 3 2 3 3 4 5 5 5 5 6 6 8 8 8 6 5 4 4 4 3

GFSSE_con_lsi_075.txt.gz
Lid_Strength_Index
1 0 -0 -1 -1 -1 -1 -1 -1 -1 -1 -1 -1 -1 -1 -1 -1 -1 -1 -1 -1 -1 -2 -2 -2 -2 -2 -1 -1 -1 -1 -1 -1 -1 -2 -2 -2 -2 -2 -2 -1 -1 -2
0 -0 -0 -0 -1 -1 -1 -1 -1 -1 -1 -1 -1 -1 -1 -1 -1 -1 -1 -1 -1 -2 -2 -1 -2 -2 -2 -1 -1 -1 -1 -1 -1 -1 -2 -2 -2 -2 -2 -2 -2 -1 -2
1 -0 -0 -0 -1 -1 -1 -1 -1 -1 -1 -1 -1 -1 -1 -1 -1 -1 -1 -1 -1 -2 -2 -2 -2 -2 -2 -1 -1 -1 -1 -1 -1 -1 -1 -0 -0 -2 -2 -1 -2 -2 -2
0 -0 -0 -0 -0 -1 -1 -1 -1 -1 -1 -1 -1 -1 -1 -1 -1 -1 -1 -1 -1 -2 -2 -2 -2 -2 -1 -1 -1 -1 -1 -1 -1 -2 -0 -0 -1 -2 -2 -2 -2 -2 -2
0 -0 -0 -0 -0 -0 -1 -1 -1 -1 -1 -1 -1 -1 -1 -1 -1 -1 -1 -1 -1 -2 -2 -2 -2 -1 -1 -1 -1 -1 -1 -1 -1 -1 0 -0 -1 -1 -2 -2 -2 -2 -2
1 -0 0 -0 -0 -0 -1 -1 -1 -1 -0 -1 -1 -1 -1 -1 -1 -1 -1 -1 -2 -2 -2 -2 -2 -1 -1 -1 -1 -1 -1 -1 -1 -0 -0 -1 -1 -2 -2 -2 -2 -2 -2
2 0 0 0 -0 -0 -1 -1 -1 -0 -0 -1 -1 -1 -1 -1 -1 -1 -1 -1 -1 -2 -2 -2 -1 -1 -1 -1 -2 -1 -1 -1 0 0 0 -1 -1 -2 -2 -2 -2 -2 -2
2 1 0 -0 -0 -0 -0 -0 -0 0 -0 -1 -1 -1 -1 -1 -1 -1 -1 -1 -1 -1 -1 -1 -1 -1 -1 -1 -1 -1 -1 -0 1 0 -0 -1 -1 -2 -2 -2 -1 -1 -2
1 2 2 1 -0 0 0 0 0 0 -0 -1 -1 -1 -1 -1 -1 -1 -1 -1 -1 -1 -1 -1 -1 -1 -2 -2 -2 -1 -0 -0 2 1 -0 -1 -2 -2 -2 -1 -1 -1 -1
2 3 2 2 3 2 2 1 1 0 -0 -1 -1 1 0 -1 -1 -1 -1 -1 -1 -1 -1 -1 -1 -1 -1 -1 -1 -0 0 0 3 3 0 -0 -1 -1 -1 -1 -0 -0 -1
3 3 3 3 3 3 2 1 1 -0 0 -1 -1 -1 -0 -1 -1 -1 -0 -1 -1 -1 -1 -1 -1 -1 -1 -1 -0 -0 1 2 3 3 1 -1 -1 -1 -1 -0 -0 -0 -0
4 3 2 2 3 3 1 1 1 1 1 1 -0 -0 -0 -0 -1 -1 -0 -0 -1 -1 -1 -1 -1 -1 -0 1 1 1 2 2 3 3 2 -1 -0 -1 -1 -0 -0 -0 0
3 3 2 1 2 2 2 2 1 1 0 1 0 0 0 1 -0 -0 -0 -0 -0 -1 -0 0 1 1 2 2 3 3 3 2 3 3 1 -0 -1 -1 -1 -0 0 -0 0
3 3 2 2 2 2 2 2 2 1 1 2 2 0 1 2 1 -0 -0 1 0 0 1 2 3 3 3 3 3 3 3 3 3 3 2 0 -1 -1 -1 -0 -0 0 -0
3 3 2 1 3 3 2 2 3 2 2 2 1 1 2 1 1 -0 0 1 0 1 2 3 4 4 4 3 3 3 3 3 3 2 2 -0 -0 -1 -1 -0 -0 0 0
3 4 2 1 1 2 1 2 2 2 1 1 2 1 1 0 0 0 1 1 2 1 2 3 4 5 4 3 4 3 3 3 3 3 2 1 0 -0 -0 -0 -0 0 0
3 3 3 1 1 2 2 2 1 1 1 1 2 2 1 0 0 1 1 2 3 3 3 4 5 5 4 3 3 3 3 3 3 3 3 3 2 1 0 -0 0 0 0
4 3 3 1 3 3 3 2 1 1 0 0 1 2 1 0 0 1 2 3 2 4 4 4 5 5 5 4 4 4 4 3 3 4 3 3 3 2 1 0 0 0 0
3 3 3 3 3 3 2 2 1 0 0 0 0 1 1 1 1 2 3 2 3 4 3 4 5 5 5 4 4 4 4 4 4 3 4 4 3 3 3 1 1 1 0
2 3 3 3 3 2 1 1 1 1 1 0 0 1 2 2 2 3 3 3 3 4 4 4 5 5 5 4 4 4 5 5 4 4 4 3 4 3 3 3 2 2 1
3 3 3 3 3 2 2 2 3 2 2 1 1 1 2 2 3 4 4 3 3 5 4 4 4 5 6 5 6 6 6 5 5 5 4 4 4 3 3 3 3 3 2
3 3 3 3 2 1 2 1 2 1 2 1 1 2 1 2 3 3 3 4 4 5 5 4 4 5 5 5 6 6 8 6 5 5 5 4 4 3 3 3 3 3 2
3 3 3 3 3 2 2 2 2 2 2 2 2 2 2 1 2 3 3 3 4 4 4 4 4 4 6 6 5 6 8 8 7 6 5 4 4 4 4 3 3 3 2
3 3 3 2 2 2 2 2 2 3 3 3 2 2 1 1 1 2 2 2 2 3 3 3 4 4 5 5 7 6 6 6 7 9 7 4 3 4 4 4 3 3 2
3 3 3 2 2 2 2 2 2 3 3 2 2 1 2 2 2 1 2 2 2 2 2 3 4 5 5 5 6 7 6 5 6 7 8 7 6 4 3 4 3 3 2
3 3 3 3 3 2 2 2 2 3 3 3 2 2 2 2 2 2 2 2 2 2 3 3 3 4 5 4 4 5 6 6 6 6 7 7 7 7 5 5 4 3 2

GFSSE_con_lsi_078.txt.gz
Lid_Strength_Index
1 0 -0 -1 -1 -1 -1 -1 -0 -0 -1 -1 -1 -1 -1 -1 -1 -1 -1 -1 -1 -1 -2 -2 -2 -2 -2 -1 -2 -1 -1 -1 -1 -1 -1 -2 -2 -2 -2 -2 -1 -1 -2
1 -0 -0 -1 -1 -1 -1 -1 -1 -1 -1 -1 -1 -1 -1 -1 -1 -1 -1 -1 -1 -1 -2 -2 -2 -2 -2 -1 -1 -1 -1 -1 -1 -1 -2 -2 -2 -2 -2 -1 -2 -1 -2
1 -0 -0 -0 -1 -1 -1 -1 -1 -1 -1 -1 -1 -1 -1 -1 -1 -1 -1 -1 -1 -2 -2 -2 -2 -2 -1 -1 -1 -1 -1 -1 -1 -1 -1 -1 -1 -2 -2 -2 -2 -2 -2
0 -0 -0 -0 -0 -1 -1 -1 -1 -1 -1 -1 -1 -1 -1 -1 -1 -1 -1 -1 -1 -2 -2 -2 -2 -2 -1 -1 -1 -1 -1 -1 -1 -2 -1 -1 -1 -2 -2 -2 -2 -2 -2
0 -0 0 -0 -0 -1 -1 -1 -1 -1 -1 -1 -1 -1 -1 -1 -1 -1 -1 -1 -1 -2 -2 -2 -2 -1 -1 -1 -1 -1 -1 -1 -1 -0 -0 -0 -1 -1 -2 -2 -2 -2 -2
0 -0 0 -0 -0 -1 -1 -1 -1 -1 -0 -0 -1 -1 -1 -1 -1 -1 -1 -1 -1 -2 -2 -2 -1 -1 -1 -1 -1 -1 -1 -1 -0 0 -0 -1 -1 -2 -2 -2 -2 -2 -2
1 -0 -0 0 -0 -0 -1 -1 -1 -0 -0 -1 -1 -1 -1 -1 -1 -1 -1 -1 -1 -1 -1 -2 -1 -1 -1 -1 -1 -1 -1 -1 1 1 0 -1 -1 -2 -2 -2 -2 -2 -2
2 1 0 -0 -0 -0 -0 -0 -0 -0 -0 -0 -0 -1 -1 -1 -1 -1 -1 -1 -1 -1 -1 -1 -1 -1 -1 -1 -1 -1 -1 -0 0 0 -1 -1 -2 -2 -2 -2 -2 -2 -2
2 2 1 0 -0 0 0 0 0 -0 0 -0 -0 -1 -1 -1 -1 -1 -1 -1 -1 -1 -1 -1 -1 -1 -1 -1 -1 -0 -0 -1 0 0 -1 -1 -2 -2 -2 -2 -1 -1 -1
2 2 2 1 0 0 -0 0 1 -0 0 -0 -0 -0 -1 -1 -1 -1 -0 -1 -1 -1 -1 -1 -1 -1 -1 -1 -0 -0 -0 -0 1 1 0 -1 -2 -2 -1 -1 -1 -1 -1
3 3 3 2 2 2 2 1 1 0 0 -0 -1 -1 -1 -1 -1 -1 -1 -1 -1 -1 -1 -1 -1 -1 -1 -1 -1 -1 0 2 2 2 1 -2 -2 -1 -1 -1 -1 -0 -1
3 3 2 3 4 4 2 2 1 1 1 1 1 1 1 -0 -0 -1 -1 -1 -1 -1 -1 -1 -1 -1 -1 0 0 0 2 3 3 2 1 -1 -1 -1 -1 -1 -0 -0 -1
3 4 2 2 3 3 2 1 1 1 1 1 1 1 0 -0 -0 -0 -0 -0 -0 -1 1 0 -0 0 1 1 3 3 3 3 3 3 1 -0 -1 -1 -0 -1 -1 -0 -0
4 4 2 1 2 2 2 1 1 1 1 1 0 -0 0 -0 -0 0 -0 -0 0 1 2 2 1 1 2 2 3 3 3 3 3 3 1 -0 -1 -1 -1 -1 -1 -0 0
4 4 2 2 1 1 1 2 2 1 1 1 0 1 0 1 0 -0 0 0 0 1 2 3 3 3 3 3 3 3 3 3 3 3 1 0 -1 -1 -1 -1 -1 -0 0
3 3 2 2 1 3 2 2 2 2 1 2 1 0 1 1 1 0 0 1 1 2 2 4 3 3 4 4 4 3 3 3 3 2 2 1 0 -0 -1 -0 -0 -0 -0
3 3 2 2 2 3 2 2 2 2 2 2 1 1 1 1 1 -0 0 1 1 2 3 4 5 4 4 3 4 4 3 3 3 3 2 2 1 0 -0 -0 -0 0 0
4 4 2 1 1 3 2 1 1 2 2 1 1 1 1 1 -0 -0 0 1 2 3 3 4 4 4 4 4 4 4 4 3 3 3 3 3 2 2 1 0 0 -0 0
3 4 3 1 3 4 4 2 2 1 0 0 0 1 1 1 0 -0 1 2 3 3 3 4 5 4 4 4 4 4 5 4 3 3 3 3 3 3 2 1 1 1 0
4 4 2 2 3 4 2 2 1 1 0 0 0 0 1 1 0 1 2 3 3 4 4 4 5 6 4 4 4 5 5 4 4 4 3 3 3 3 3 2 2 2 1
4 3 3 3 3 3 3 2 2 3 2 1 0 0 1 1 1 2 3 4 4 5 4 4 5 5 5 4 5 6 6 5 5 4 4 4 4 3 3 3 3 3 2
3 3 3 2 3 2 1 1 1 2 1 1 1 1 1 3 3 3 4 4 4 4 4 4 4 5 5 4 6 6 7 6 5 4 4 4 4 3 3 3 3 3 3
3 3 3 3 3 3 1 2 2 1 1 2 1 1 2 2 3 3 4 4 5 4 4 4 4 5 5 5 4 6 8 8 6 6 5 5 4 4 3 3 3 3 3
3 2 3 3 3 2 1 2 2 3 3 2 2 1 1 2 3 3 3 4 5 5 5 4 4 5 4 5 6 5 5 6 7 9 6 5 4 4 3 2 2 2 2
3 3 3 4 3 2 2 2 3 3 3 2 2 2 2 1 1 2 2 3 4 4 4 4 4 5 4 5 6 6 6 6 6 7 8 7 5 4 3 3 2 2 2
3 3 3 3 3 2 3 2 3 3 2 3 3 2 2 2 1 1 2 2 2 3 3 3 4 4 4 4 4 5 6 6 7 7 8 7 6 5 3 3 3 3 2

GFSSE_con_lsi_081.txt.gz
Lid_Strength_Index
1 -0 -1 -1 -1 -1 -1 -1 -0 -0 -1 -1 -1 -1 -1 -1 -1 -1 -1 -1 -1 -1 -2 -2 -2 -2 -1 -2 -2 -1 -1 -1 -1 -1 -2 -2 -2 -2 -2 -2 -2 -1 -2
0 -1 -0 -1 -1 -1 -1 -1 -1 -1 -1 -1 -1 -1 -1 -1 -1 -1 -1 -1 -1 -2 -2 -2 -2 -2 -2 -1 -1 -1 -1 -1 -1 -1 -1 -2 -2 -2 -2 -2 -2 -2 -2
0 -1 -1 -0 -1 -1 -1 -1 -1 -1 -1 -1 -1 -1 -1 -1 -1 -1 -1 -1 -1 -1 -2 -1 -2 -2 -1 -1 -1 -1 -1 -1 -1 -1 -2 -1 -1 -2 -2 -2 -2 -2 -2
-0 -1 -1 -0 -1 -1 -1 -1 -1 -1 -1 -1 -1 -1 -1 -1 -1 -1 -1 -1 -1 -1 -2 -2 -2 -2 -1 -1 -1 -1 -1 -1 -1 -1 -1 -1 -1 -2 -2 -2 -2 -2 -2
-0 -1 -1 -0 -1 -1 -1 -1 -1 -0 -1 -1 -1 -1 -1 -1 -1 -1 -1 -1 -1 -1 -2 -2 -2 -2 -1 -1 -1 -1 -1 -1 -1 -1 -1 -1 -1 -2 -2 -2 -2 -2 -2
0 -1 -0 -0 -0 -1 -1 -1 -1 -1 -0 -0 -1 -1 -1 -1 -1 -1 -1 -1 -1 -1 -2 -2 -2 -1 -1 -1 -1 -1 -1 -1 -1 -1 -1 -1 -1 -2 -2 -2 -2 -2 -2
0 -1 -1 0 -0 -1 -1 -1 -1 -0 -1 -0 -0 -1 -1 -1 -1 -1 -1 -1 -1 -1 -1 -1 -1 -1 -1 -1 -1 -1 -1 -1 -1 -1 -1 -1 -2 -2 -2 -2 -2 -2 -2
0 -0 -1 -0 -0 -0 -1 -0 -0 -0 -0 -0 -0 -0 -1 -1 -1 -1 -1 -1 -1 -1 -1 -1 -1 -1 -1 -1 -1 -0 -0 -1 -1 -1 -1 -1 -2 -2 -2 -2 -2 -2 -2
-0 -0 0 0 -1 -0 0 0 0 -0 -0 0 0 -0 -0 -1 -1 -1 -1 -2 -1 -1 -1 -1 -1 -1 -1 -1 -1 -0 -0 -1 -1 -1 -1 -1 -2 -2 -2 -2 -2 -2 -2
0 -0 -0 -0 -1 -1 -1 0 0 0 -0 -0 -0 -0 -0 -0 -0 -1 -1 -2 -1 -1 -1 -1 -1 -1 -1 -1 -0 -0 -0 -1 -2 -1 -2 -2 -2 -2 -2 -2 -1 -1 -1
1 0 -0 0 -0 -1 -1 -0 0 -0 0 -0 -1 -0 -0 -1 -1 -2 -1 -1 -1 -1 -1 -1 -1 -1 -0 -0 -0 -0 -1 -1 -2 -1 -1 -2 -2 -2 -2 -2 -1 -1 -1
2 1 0 1 1 0 1 -0 -1 -1 -1 0 -0 -0 -1 -1 -1 -1 -1 -1 -1 -1 -1 -1 -1 -0 -0 -1 -0 0 -1 -1 -1 -1 -1 -1 -2 -2 -2 -1 -1 -1 -0
2 2 1 1 1 2 1 1 1 0 -0 1 1 0 -1 -2 -1 -1 -1 -1 -1 -1 -1 -1 -1 -1 -1 -1 -1 -1 -1 -1 -1 -0 -0 -1 -2 -1 -1 -0 -0 -0 -1
2 1 1 1 1 1 1 1 1 1 -0 1 1 0 -0 -1 -1 -1 -1 -1 -0 -0 -0 -1 -1 -1 -1 -1 -1 -0 -1 -0 0 1 -0 -1 -2 -1 -1 -1 -1 -1 -0
2 1 1 1 0 0 0 1 0 -0 0 0 1 1 -1 -1 -0 -1 -1 -1 -0 0 0 -1 -1 -1 -1 -1 -1 -1 0 0 0 1 0 -0 -1 -1 -1 -1 -1 -1 -0
2 2 1 1 0 -0 0 0 0 0 -0 0 0 -0 0 -0 -0 -0 -0 -0 -0 1 1 -1 -1 -1 -0 -1 -0 -0 0 1 1 1 0 -1 -0 -1 -1 -1 -1 -1 -0
2 1 1 1 -0 0 0 -0 0 1 1 1 0 -0 -0 -0 -0 -0 -0 -0 -1 1 2 0 -0 -0 0 0 0 0 1 1 1 1 0 -0 0 0 -0 -1 -1 -0 0
2 2 1 1 0 0 0 0 0 1 2 2 1 1 0 -0 -1 -0 -0 -0 -0 1 2 1 1 1 1 1 1 1 1 1 1 0 0 0 0 1 0 -0 -0 -0 -0
1 1 1 1 1 1 1 1 -0 0 1 2 1 1 1 1 -0 -0 -0 -0 -0 2 2 2 1 1 2 2 2 2 1 2 1 1 1 0 0 0 -0 1 1 1 0
1 1 1 2 1 0 1 1 0 1 0 -0 0 -0 -0 -0 0 -0 0 1 1 2 2 2 2 1 1 2 2 2 2 1 1 1 1 1 1 0 0 0 0 1 1
2 2 2 2 1 2 2 2 2 2 1 0 0 -1 -1 -0 -0 1 1 2 1 2 2 2 2 1 2 1 2 3 2 2 2 2 1 1 1 1 1 0 1 1 1
2 2 3 2 1 2 1 1 2 1 1 0 -0 -0 -0 0 -0 1 2 2 2 2 2 3 2 2 2 2 3 3 5 4 3 2 2 1 1 1 2 1 1 1 1
3 2 3 2 1 2 1 1 1 1 1 1 1 1 1 1 1 2 2 3 3 2 3 3 2 1 2 2 1 2 5 5 4 3 2 2 1 1 1 2 1 1 1
3 2 2 2 2 2 0 1 2 2 3 2 1 1 1 2 2 3 3 3 4 3 3 3 3 1 1 2 2 3 1 2 4 5 3 2 2 2 1 2 1 1 0
2 2 2 3 2 2 1 1 2 2 2 1 1 1 1 1 2 3 3 4 4 4 3 3 2 2 1 1 2 2 3 2 2 3 5 4 3 2 2 1 1 1 1
2 2 3 3 3 2 1 1 1 1 2 2 2 2 2 1 1 1 2 3 4 4 3 3 3 3 3 2 3 3 3 4 4 4 4 4 3 3 2 1 1 1 1

GFSSE_con_lsi_084.txt.gz
Lid_Strength_Index
0 -1 -1 -1 -1 -1 -1 -1 -1 -0 -1 -1 -1 -1 -1 -1 -1 -1 -1 -1 -1 -1 -1 -1 -2 -1 -1 -1 -1 -1 -1 -1 -1 -1 -1 -1 -1 -2 -1 -2 -2 -1 -2
-0 -1 -0 -1 -1 -1 -1 -1 -1 -1 -1 -1 -1 -1 -1 -1 -1 -1 -1 -1 -1 -1 -2 -1 -2 -2 -2 -1 -1 -1 -1 -1 -1 -1 -2 -2 -2 -2 -2 -2 -2 -2 -2
-0 -1 -1 -1 -1 -1 -1 -1 -1 -1 -1 -1 -1 -1 -1 -1 -1 -1 -1 -1 -1 -1 -2 -1 -1 -1 -1 -1 -1 -1 -1 -1 -1 -1 -1 -2 -1 -2 -2 -2 -2 -2 -2
-0 -1 -1 -1 -1 -1 -1 -1 -1 -1 -1 -1 -1 -1 -1 -1 -1 -1 -1 -1 -1 -1 -2 -2 -2 -1 -1 -1 -1 -1 -1 -1 -1 -1 -2 -1 -1 -2 -2 -2 -2 -2 -2
-0 -1 -1 -1 -1 -1 -1 -1 -1 -1 -1 -1 -1 -1 -1 -1 -1 -1 -1 -1 -1 -1 -2 -2 -1 -1 -1 -1 -1 -1 -1 -1 -1 -1 -1 -1 -1 -2 -2 -2 -2 -2 -2
-0 -1 -0 -0 -0 -1 -1 -1 -1 -1 -0 -0 -0 -1 -1 -1 -1 -1 -1 -1 -1 -1 -2 -2 -1 -1 -1 -1 -1 -1 -1 -1 -1 -1 -1 -1 -1 -2 -2 -2 -2 -2 -2
-0 -1 -1 0 -0 -1 -1 -1 -0 -0 -0 -0 -0 -0 -1 -1 -1 -1 -1 -1 -1 -1 -1 -1 -1 -1 -1 -1 -1 -1 -1 -1 -1 -1 -1 -1 -1 -2 -2 -2 -2 -2 -2
-0 -1 -1 -1 -1 -0 -0 -0 -0 -0 -0 -0 -0 -0 -1 -1 -1 -1 -1 -1 -1 -1 -1 -1 -1 -1 -1 -1 -1 -1 -1 -1 -1 -1 -1 -1 -2 -2 -2 -2 -2 -2 -2
-1 -1 -1 -1 -1 -0 0 0 0 0 -0 -0 -0 -0 -0 -0 -1 -1 -1 -1 -1 -1 -1 -1 -1 -1 -1 -1 -1 -0 -0 -1 -1 -1 -1 -1 -2 -2 -2 -2 -2 -2 -2
-0 -1 -0 -1 -1 -1 -1 0 0 -0 -0 0 -0 0 -0 -1 -1 -1 -1 -1 -1 -2 -1 -1 -1 -1 -1 -0 -0 0 -0 -1 -1 -1 -1 -1 -2 -2 -2 -2 -2 -2 -2
0 -0 -1 -0 -0 -1 -1 -1 -0 -0 -0 -0 -1 -0 0 -2 -2 -1 -1 -1 -1 -1 -1 -1 -1 -1 -0 0 0 -0 -0 -1 -1 -1 -1 -2 -2 -2 -2 -1 -2 -2 -2
1 0 -0 -0 -0 -0 -0 -1 -1 -1 -2 -2 -2 -1 -1 -2 -2 -1 -1 -1 -1 -1 -1 -1 -1 -0 -0 -2 -1 -1 -1 -1 -1 -1 -1 -2 -2 -1 -2 -1 -1 -1 -1
1 1 0 0 -0 -1 -0 -0 -1 -1 -1 -2 -2 -1 -1 -1 -1 -1 -1 -1 -2 -1 -1 -1 -1 -2 -1 -1 -1 -1 -1 -2 -2 -2 -1 -2 -2 -1 -2 -2 -1 -1 -1
1 1 0 0 -0 -0 -0 -0 -0 -0 -0 -1 -1 -2 -1 -0 -1 -1 -1 -1 -1 -1 -0 -0 -1 -2 -1 -1 -1 -1 -2 -2 -2 -2 -2 -1 -2 -1 -2 -1 -1 -0 -1
1 1 1 -0 -0 0 1 1 0 -0 -0 -0 -1 -1 -1 -0 -0 -1 -1 -1 -1 -1 -0 -0 -1 -1 -1 -1 -1 -1 -1 -1 -2 -1 -1 -1 -1 -2 -1 -1 -1 -1 -1
1 1 0 0 -0 -0 -0 -0 1 0 0 -1 -1 -1 -1 -1 -0 -0 -0 -1 -1 -0 -0 -0 -1 -0 -1 -1 -1 -1 -1 -1 -1 -1 -0 -0 -0 -1 -1 -1 -1 -1 -0
1 1 1 0 -0 -0 -0 -0 -0 -0 -1 -0 -1 -1 -1 -1 -1 -1 -0 -0 -1 -1 -0 -0 -1 -1 -1 -1 -1 -1 -1 -1 -0 -0 -0 -0 -0 -0 -0 -1 -1 -1 -0
1 1 1 0 0 0 -0 -0 -0 -0 -0 -0 -1 -1 -1 -0 -1 -0 0 -0 -1 -1 -0 0 -0 -0 -0 -0 -0 -0 -1 -1 -0 0 0 -0 0 0 0 -0 -1 -1 -0
1 1 1 0 0 0 -0 -0 -0 -0 -0 -0 -0 -0 -0 -0 -1 -0 -0 -1 -1 -0 -0 1 0 -0 0 0 0 -0 -0 0 0 1 1 0 -0 0 -0 1 0 0 -0
1 1 1 1 0 0 1 0 0 0 0 0 1 0 0 0 -0 -0 -0 -0 -0 -0 1 1 1 -0 0 0 1 1 0 0 1 1 1 1 -0 -0 -0 -0 0 1 1
1 1 1 1 1 1 1 1 1 1 1 0 -0 0 -0 -0 -0 -0 0 0 1 1 1 2 0 1 1 -0 1 2 2 1 1 1 1 1 0 0 -0 -0 0 1 1
1 1 1 1 1 1 1 1 1 1 1 0 -0 -1 -1 -1 -1 -0 0 0 1 2 2 2 1 1 1 0 2 2 5 3 2 1 1 1 0 0 1 1 1 1 1
2 2 2 1 1 1 0 1 0 0 0 1 1 0 -0 -0 -0 -0 -0 1 1 2 3 2 0 1 2 1 0 2 5 5 3 2 1 1 1 1 1 0 0 0 0
2 1 1 1 1 1 0 1 1 2 3 1 1 0 -0 -0 0 1 1 2 2 2 2 2 1 0 1 2 1 1 1 2 4 5 1 1 1 1 0 1 1 1 1
1 2 1 1 1 1 1 0 1 1 1 1 1 1 1 1 1 2 2 2 2 2 2 2 1 0 0 1 1 1 1 1 1 3 4 3 1 1 0 0 0 0 0
1 2 2 2 2 1 1 1 1 1 1 1 2 2 1 1 1 2 3 3 3 3 3 2 0 0 1 1 1 1 2 3 3 2 3 3 3 2 1 0 0 0 -0

GFSSE_con_lsi_090.txt.gz
Lid_Strength_Index
1 0 -0 -0 -1 -0 -0 -0 -0 -1 -1 -1 -1 -1 -1 -1 -1 -1 -1 -1 -1 -1 -1 -1 -1 -1 -1 -1 -1 -1 -1 -1 -1 -1 -1 -1 -2 -2 -2 -1 -1 -1 -2
0 -0 -0 -0 -1 -1 -1 -1 -1 -1 -1 -1 -1 -1 -1 -1 -1 -1 -1 -1 -1 -1 -1 -1 -1 -1 -1 -1 -1 -1 -1 -1 -1 -1 -1 -2 -2 -2 -2 -2 -1 -1 -1
0 -0 -0 -0 -0 -1 -1 -1 -1 -1 -1 -1 -1 -1 -1 -1 -1 -1 -1 -1 -1 -1 -1 -1 -1 -1 -1 -1 -1 -1 -1 -1 -1 -1 -1 -0 -0 -2 -2 -2 -1 -2 -2
0 -0 -0 -0 -0 -1 -1 -1 -1 -1 -1 -1 -1 -1 -1 -1 -1 -1 -1 -1 -1 -1 -1 -1 -1 -1 -1 -1 -1 -1 -1 -1 -1 -1 -1 -0 -1 -1 -2 -1 -2 -2 -2
0 -0 -0 -0 -0 -0 -1 -1 -1 -0 -0 -1 -1 -1 -1 -1 -1 -1 -1 -1 -1 -1 -1 -1 -1 -1 -1 -1 -1 -1 -1 -1 -1 -1 -0 -0 -0 -1 -2 -1 -1 -2 -2
0 -0 0 -0 -0 -0 -1 -1 -1 -0 -0 -0 -0 -1 -1 -1 -1 -1 -1 -1 -1 -1 -1 -1 -1 -1 -1 -1 -1 -1 -1 -1 -1 -0 -0 -1 -0 -1 -2 -2 -1 -2 -1
0 -0 -0 0 -0 -0 -1 -1 -0 -0 -0 -0 -0 -0 -0 -1 -1 -1 -1 -1 -1 -1 -1 -1 -1 -1 -1 -1 -1 -1 -1 -1 -0 0 -0 -0 -1 -2 -2 -1 -2 -2 -2
1 0 -0 -0 -0 -0 -0 -0 -0 -0 -0 -0 0 -0 -0 -1 -0 -1 -1 -1 -1 -1 -1 -1 -1 -1 -1 -1 -1 -1 -0 -0 -1 -0 -0 -0 -1 -2 -2 -2 -1 -2 -2
0 0 -0 -0 -0 -0 0 0 0 -0 -0 -0 -0 -0 -0 -0 -0 -1 -1 -1 -1 -1 -1 -1 -1 -1 -1 0 -1 -0 0 0 -0 -0 -1 -0 -1 -2 -2 -2 -2 -2 -2
0 0 0 -0 -0 -0 -0 0 -0 -0 -0 -0 -0 0 1 0 -0 -0 -1 -1 -1 -1 -1 -1 -1 -1 -1 -0 -0 0 0 -1 0 -0 -1 -1 -1 -2 -2 -2 -2 -2 -2
1 1 0 0 0 -0 -0 -0 -0 -0 -0 0 0 0 1 -0 -1 -0 -0 -1 -1 -1 -1 -1 -1 -0 -0 -0 -0 0 0 0 -0 -0 -0 -1 -2 -2 -2 -2 -2 -2 -2
2 1 1 0 0 0 -0 -0 -0 -0 -0 -0 -0 -0 -0 -0 -0 -0 -0 -0 -0 -0 -1 -1 -1 -0 -1 -1 -0 -0 -0 -0 0 -0 -0 -1 -2 -2 -2 -2 -2 -2 -2
2 1 1 1 0 0 0 0 -0 -0 -0 -0 -0 -0 -0 -0 -0 -0 -0 -0 -0 -1 -0 -0 -0 -0 -0 -0 -0 -0 -0 -0 -0 -0 -1 -1 -2 -2 -2 -2 -2 -1 -1
2 2 1 1 0 0 0 0 0 0 0 0 -0 -0 -0 0 -0 0 -0 -0 0 -0 -0 -0 -0 -0 -0 -0 -0 0 0 -0 0 -0 -1 -1 -2 -2 -2 -2 -2 -1 -1
2 2 1 1 1 0 1 0 0 0 0 0 -0 -0 -0 0 0 -0 0 -0 -0 -0 -0 -0 -0 -0 -0 -0 -0 0 0 0 -0 -0 -0 -1 -1 -2 -2 -2 -2 -1 -0
2 2 1 1 1 0 1 0 0 0 -0 0 0 -0 -0 -0 0 0 0 0 0 -0 -0 -0 0 0 0 -0 0 -0 0 0 -0 0 -0 -0 -1 -1 -2 -2 -2 -1 -1
1 1 1 1 1 1 1 0 0 0 0 0 0 -0 -0 -0 0 0 0 0 0 -0 -0 0 0 1 1 -0 0 0 0 0 -0 0 -0 -0 -0 -1 -1 -2 -2 -1 -1
1 1 1 1 1 1 1 0 0 0 0 0 -0 -0 -0 -0 -0 0 0 0 -0 -0 0 0 1 1 1 1 1 1 1 1 1 0 0 1 1 1 0 -1 -1 -1 -1
1 1 2 1 1 1 1 0 0 0 0 0 -0 -0 -0 -0 -0 0 0 0 0 0 0 0 1 1 2 1 1 2 2 2 2 1 0 1 1 1 1 0 0 -0 -1
2 1 2 1 1 1 1 1 1 1 0 0 0 0 -0 -0 0 0 0 0 0 0 1 1 1 1 1 1 1 2 3 2 2 2 1 1 1 1 1 1 1 1 0
1 1 2 2 1 1 2 2 2 2 1 1 0 0 0 -0 0 0 0 0 0 1 1 1 1 2 2 1 2 4 3 2 2 2 1 0 0 0 1 1 2 2 2
2 2 2 2 2 1 1 1 1 1 1 1 0 0 -0 -0 0 0 0 1 1 1 1 1 1 2 2 1 3 4 6 4 2 1 1 1 1 1 2 1 2 2 2
2 2 2 2 2 1 1 1 1 1 1 2 1 1 0 1 0 0 0 0 0 0 1 1 1 2 3 2 2 4 6 7 4 2 2 2 2 1 3 1 1 2 2
2 2 2 2 2 1 1 2 2 3 3 2 2 1 1 0 0 0 0 0 0 1 1 1 1 1 2 3 2 2 3 4 6 6 3 3 2 2 3 2 3 2 2
2 2 2 2 2 1 1 1 2 2 2 2 1 1 1 1 0 0 0 0 0 1 1 1 1 1 2 2 3 3 4 4 4 5 6 4 3 3 3 2 2 2 2
2 2 2 2 2 2 1 1 2 2 2 2 2 2 2 1 1 2 1 1 1 1 1 1 1 1 2 2 2 2 3 5 4 4 6 4 4 3 2 2 3 2 2

GFSSE_con_lsi_093.txt.gz
Lid_Strength_Index
1 0 -0 -0 -0 -1 -0 -0 -0 -1 -1 -1 -1 -1 -1 -1 -1 -1 -1 -1 -1 -1 -1 -1 -1 -2 -2 -2 -2 -2 -1 -1 -1 -1 -1 -1 -2 -2 -2 -1 -1 -1 -1
1 -0 -0 -0 -0 -1 -1 -1 -1 -1 -1 -1 -1 -1 -1 -1 -1 -1 -1 -1 -1 -1 -1 -1 -1 -1 -1 -1 -2 -1 -1 -1 -1 -1 -1 -2 -2 -2 -2 -1 -1 -1 -2
1 -0 -0 -0 -0 -0 -1 -1 -1 -1 -1 -1 -1 -1 -1 -1 -1 -1 -1 -1 -1 -1 -1 -1 -1 -1 -1 -1 -1 -1 -1 -1 -1 -1 -1 -0 -0 -2 -2 -1 -1 -2 -2
0 -0 -0 -0 -0 -0 -0 -0 -1 -1 -1 -1 -1 -1 -1 -1 -1 -1 -1 -1 -1 -1 -1 -1 -1 -1 -1 -1 -1 -1 -1 -1 -1 -1 -0 -0 -1 -2 -2 -1 -1 -2 -2
0 -0 -0 -0 -0 -0 -0 -0 -0 -0 -0 -1 -1 -1 -1 -1 -1 -1 -1 -1 -1 -1 -1 -1 -1 -1 -1 -1 -1 -1 -1 -1 -1 -1 0 -0 -0 -1 -2 -1 -2 -2 -2
0 -0 0 0 -0 -0 -0 -0 -0 -0 -0 -0 -0 -1 -1 -1 -1 -1 -1 -1 -1 -2 -2 -1 -1 -1 -1 -1 -1 -1 -1 -1 -0 0 -0 -1 -0 -1 -2 -2 -1 -2 -1
1 0 -0 0 -0 -0 -1 -1 -0 -0 0 -0 -0 -0 -1 -1 -1 -1 -1 -1 -1 -2 -2 -2 -1 -1 -1 -0 -1 -1 -0 -0 0 0 0 -0 -0 -2 -2 -1 -2 -2 -2
1 1 -0 -0 -0 -0 -0 -0 0 0 -0 -0 -1 -1 -1 -1 -1 -1 -1 -1 -1 -1 -1 -1 -1 -1 -1 -1 -0 -0 0 -0 -0 -0 -0 -0 -1 -1 -2 -2 -2 -1 -2
0 1 0 0 -0 -0 0 0 0 0 -0 -0 -0 -0 -0 0 -0 -1 -1 -1 -1 -1 -2 -2 -1 -1 -1 -1 -1 0 0 -0 0 -0 -1 -1 -1 -2 -2 -2 -1 -2 -2
1 1 0 0 0 0 1 0 0 0 -0 0 -0 0 1 1 -0 -0 -1 -1 -1 -1 -2 -1 -1 -1 -2 -1 -0 0 -0 -0 -0 -0 -0 -1 -1 -2 -2 -2 -2 -2 -2
1 1 1 0 0 0 0 0 -0 -0 0 0 0 1 2 1 0 -0 -0 -1 -1 -1 -1 -1 -1 -1 -0 -0 -0 -0 -0 0 -0 -0 -0 -1 -1 -2 -2 -2 -1 -1 -2
3 2 1 1 0 0 -0 0 1 0 -0 1 1 1 1 1 1 0 -0 -0 -0 -1 -1 -1 -0 -0 -0 -0 -0 -1 0 0 1 1 -0 -1 -2 -2 -2 -2 -2 -2 -2
2 2 1 1 1 1 1 1 0 0 0 0 0 0 1 1 1 1 1 0 0 -1 -0 -0 -0 -0 -0 -0 -0 -0 0 0 0 0 -0 -1 -2 -2 -2 -2 -2 -2 -2
2 2 1 1 2 2 1 1 1 0 0 0 1 0 1 1 1 1 1 1 1 0 0 -0 -0 -0 -0 -0 -0 -0 0 0 0 -0 -0 -0 -1 -2 -2 -2 -2 -2 -2
3 2 1 1 1 1 2 1 1 1 1 1 0 1 1 1 1 1 1 1 1 1 1 0 0 -0 -0 -0 -0 -0 1 1 1 0 -0 -0 -1 -2 -2 -2 -2 -2 -2
4 2 1 1 2 0 1 2 2 1 1 1 1 1 1 1 1 1 1 0 1 0 0 0 0 0 0 -0 -0 -0 1 0 1 0 -0 -0 -0 -1 -2 -2 -2 -2 -2
5 2 2 1 1 1 1 2 2 2 2 2 2 1 1 1 1 1 1 1 1 0 1 1 0 0 0 -0 0 0 0 0 1 0 0 -0 -0 -0 -1 -2 -2 -2 -1
5 3 1 1 1 1 1 2 2 2 2 2 2 2 1 1 1 2 2 1 0 1 1 1 1 1 1 1 1 0 0 1 1 1 0 0 0 -0 -0 -1 -2 -2 -1
5 4 2 1 2 1 2 2 2 2 1 1 2 2 2 1 1 2 2 1 1 1 1 1 1 1 1 1 1 1 1 1 2 1 1 1 1 1 2 -0 -0 -1 -1
4 4 2 2 2 1 2 2 2 2 2 2 2 1 1 0 1 1 1 1 1 1 1 1 2 1 1 1 1 1 2 2 2 2 2 1 1 2 1 1 0 1 1
3 4 2 2 2 1 2 2 2 3 2 2 2 0 0 1 2 2 1 1 1 1 1 1 1 1 2 1 2 3 3 4 3 3 2 2 2 1 1 1 1 2 2
3 3 2 2 1 2 2 2 2 3 3 2 1 0 0 1 2 2 1 1 1 1 2 1 1 2 2 1 3 4 6 5 4 4 3 2 2 1 1 0 1 1 3
4 3 2 2 2 2 2 3 3 3 3 3 3 2 0 -0 1 1 1 1 1 1 1 1 1 2 3 2 2 4 6 7 5 4 4 2 2 1 1 1 1 2 3
4 2 2 2 2 2 2 3 4 3 4 3 2 1 1 0 0 1 1 1 1 1 1 1 1 1 2 3 2 2 4 4 6 7 4 3 2 1 2 1 2 2 2
3 3 2 2 2 2 2 3 4 4 4 3 3 2 1 1 0 1 1 2 1 1 1 1 1 1 1 2 2 3 4 4 4 6 7 5 3 2 3 2 2 2 2
3 3 2 2 2 2 3 3 3 4 4 3 3 3 2 1 1 1 1 1 1 1 1 1 1 1 2 1 2 2 4 5 5 6 6 6 5 4 3 4 3 3 3

GFSSE_con_lsi_096.txt.gz
Lid_Strength_Index
1 0 -0 -0 -0 -0 -0 -0 -0 -1 -1 -1 -1 -1 -1 -1 -1 -1 -1 -1 -1 -1 -1 -1 -1 -1 -1 -1 -1 -1 -1 -1 -1 -1 -1 -1 -2 -1 -1 -1 -1 -1 -1
0 -0 0 -0 -0 -1 -1 -1 -1 -1 -1 -1 -1 -1 -1 -1 -1 -1 -1 -1 -1 -1 -1 -1 -1 -1 -1 -1 -1 -1 -1 -1 -1 -1 -1 -2 -2 -1 -1 -1 -1 -1 -1
1 -0 -0 -0 -0 -1 -1 -1 -1 -1 -1 -1 -1 -1 -1 -1 -1 -1 -1 -1 -1 -1 -1 -1 -1 -1 -1 -1 -1 -1 -1 -1 -1 -1 -1 -0 -0 -1 -1 -1 -1 -1 -1
0 0 -0 -0 -0 -0 -0 -1 -0 -1 -1 -1 -1 -1 -1 -1 -1 -1 -1 -0 -1 -1 -1 -1 -1 -1 -1 -1 -1 -1 -1 -1 -1 -1 -0 -0 -1 -1 -1 -1 -1 -1 -1
0 -0 -0 -0 -0 -0 -0 -0 -0 -0 -1 -0 -1 -1 -1 -1 -1 -1 -1 -1 -1 -1 -1 -1 -1 -1 -1 -1 -1 -1 -1 -1 -1 -1 0 0 -0 -1 -1 -1 -1 -1 -1
0 -0 0 0 -0 -0 -0 -0 -0 -0 -0 -0 -0 -1 -1 -1 -1 -1 -1 -0 -1 -2 -2 -1 -1 -1 -1 -1 -1 -1 -1 -1 -0 0 0 -1 -0 -1 -2 -1 -1 -1 -1
1 0 -0 0 0 -0 -1 -0 -0 -0 -0 -0 -0 -0 -1 -1 -1 -1 -1 -1 -1 -1 -2 -1 -1 -1 -1 -1 -1 -1 -1 -0 0 0 0 0 -0 -1 -2 -1 -1 -1 -1
1 0 -0 -0 -0 -0 -0 -0 0 0 -0 -0 -0 -0 -1 -1 -1 -1 -1 -1 -1 -1 -1 -1 -1 -1 -1 -1 -1 -0 0 -0 0 1 -0 0 -1 -2 -2 -1 -1 -1 -1
0 0 0 0 -0 0 1 1 1 0 0 -0 -0 -0 -0 -0 -0 -1 -1 -1 -1 -1 -1 -1 -1 -1 -1 -1 -1 0 0 -0 0 0 -0 -0 -1 -2 -2 -1 -1 -1 -1
1 0 0 0 0 1 0 1 1 1 0 -0 -0 -0 1 0 -0 -0 -0 -1 -1 -1 -1 -1 -1 -1 -1 -1 -1 -0 0 0 0 1 -0 -0 -1 -2 -2 -1 -1 -1 -1
1 1 0 0 0 1 1 0 0 -0 0 0 -0 0 1 0 0 0 -0 -0 -1 -0 -1 -1 -1 -1 -0 -0 -1 -0 -0 0 1 1 0 -1 -1 -2 -1 -2 -2 -1 -1
3 2 1 1 0 1 -0 0 1 0 0 1 1 1 1 1 1 1 0 -0 0 -0 -1 -1 -1 -1 -0 -0 -0 -0 -0 0 0 0 -0 -1 -1 -2 -2 -2 -1 -1 -2
2 2 1 1 0 0 0 1 0 1 1 1 1 2 2 2 2 1 1 0 0 -0 0 -0 -0 -0 -0 0 0 0 0 0 1 1 0 -1 -1 -2 -2 -2 -2 -2 -1
3 2 1 1 1 0 0 1 0 1 1 1 1 2 2 2 2 2 1 2 1 0 1 0 1 1 0 -0 -0 -0 1 0 1 0 -0 0 -1 -2 -2 -2 -2 -2 -2
3 2 1 1 1 1 1 1 1 1 1 1 1 1 1 1 2 2 2 2 2 1 1 1 2 1 0 -0 -0 -0 0 1 0 0 -0 0 -0 -1 -2 -2 -2 -2 -2
2 2 1 1 1 1 1 1 1 0 0 1 1 1 1 1 1 1 1 2 2 1 1 1 1 0 0 -0 0 -0 -0 0 1 1 0 0 0 -1 -1 -2 -2 -2 -2
5 2 2 2 2 1 1 1 1 0 1 1 1 1 2 1 1 1 1 1 1 1 1 1 1 1 1 0 0 -0 -0 0 1 1 0 0 0 0 -1 -1 -2 -2 -2
7 2 1 1 2 1 1 1 1 1 1 1 2 2 2 2 1 2 2 1 1 1 1 1 1 1 1 1 1 1 0 0 0 1 0 1 0 -0 -0 -1 -1 -2 -2
7 3 2 1 2 2 2 1 1 1 2 2 2 2 2 2 1 2 2 2 1 0 1 1 1 1 2 1 1 1 1 1 1 0 1 1 1 1 1 -0 -1 -1 -2
7 6 2 2 1 1 2 2 2 2 2 2 2 2 3 2 2 2 2 2 1 1 2 1 2 1 1 1 1 1 1 1 1 1 1 1 1 1 1 0 0 1 -0
7 6 2 2 2 2 2 2 3 3 3 3 2 2 2 2 2 2 2 2 1 2 2 2 2 2 2 1 2 2 2 2 2 2 2 2 2 2 1 0 1 1 1
6 5 2 2 2 2 2 2 2 2 3 2 2 2 2 2 1 1 2 2 2 1 2 2 2 2 2 1 3 3 6 5 3 3 2 3 3 2 2 1 1 1 2
6 5 2 2 2 2 1 2 2 4 4 4 3 1 1 1 1 1 2 2 2 2 2 2 2 2 3 2 2 3 6 7 5 4 4 4 4 3 2 1 1 1 2
4 4 2 2 2 2 2 2 3 3 4 3 2 3 1 0 1 2 2 2 1 1 1 2 1 2 2 3 2 1 2 4 6 7 5 4 4 3 3 2 2 1 1
3 3 2 2 2 2 2 2 3 3 4 3 4 3 3 1 1 1 2 2 1 1 1 1 1 2 1 2 2 2 3 4 4 6 7 6 4 3 3 2 1 1 2
5 6 3 3 2 2 2 3 3 4 4 4 4 3 2 2 1 2 2 1 1 1 2 1 1 2 2 2 1 2 3 4 5 5 6 5 5 4 3 2 1 1 2

GFSSE_con_lsi_099.txt.gz
Lid_Strength_Index
1 0 -0 -0 -0 -0 -0 -0 -1 -1 -1 -1 -1 -1 -1 -1 -1 -1 -1 -1 -1 -1 -1 -1 -1 -1 -1 -1 -2 -1 -1 -1 -1 -1 -1 -1 -1 -1 -1 -1 -1 -1 -1
1 -0 0 -0 -0 -1 -1 -1 -1 -1 -1 -1 -1 -1 -1 -1 -1 -1 -1 -1 -1 -1 -1 -1 -1 -1 -1 -1 -1 -1 -1 -1 -1 -1 -1 -1 -1 -1 -1 -1 -1 -1 -1
1 -0 -0 -0 -0 -0 -1 -1 -1 -1 -1 -1 -1 -1 -1 -1 -1 -1 -1 -1 -1 -1 -1 -1 -1 -1 -1 -1 -1 -1 -1 -1 -1 -1 -1 -0 -1 -1 -1 -1 -1 -1 -1
0 -0 -0 -0 -0 -0 -0 -1 -1 -1 -1 -1 -1 -1 -1 -1 -1 -1 -1 -0 -1 -1 -1 -1 -1 -1 -2 -1 -1 -1 -1 -1 -1 -1 -0 -0 -0 -1 -1 -1 -1 -1 -1
0 -0 -0 -0 -0 -0 -0 -0 -0 -0 -0 -1 -1 -1 -1 -1 -1 -1 -1 -1 -1 -1 -1 -1 -1 -1 -1 -1 -1 -1 -1 -1 -1 -0 0 -0 -0 -1 -1 -1 -1 -1 -1
0 0 0 0 -0 -0 -0 -0 -0 -0 -0 -0 -0 -1 -1 -1 -1 -1 -1 -1 -1 -1 -1 -1 -1 -1 -1 -1 -1 -1 -1 -1 -0 1 1 -0 -0 -1 -1 -1 -1 -1 -1
1 0 0 0 0 -0 -1 -1 -0 -0 -0 -0 -0 -0 -1 -1 -1 -1 -0 -1 -1 -1 -1 -1 -1 -1 -1 -1 -1 -1 -1 -1 1 1 1 0 -0 -1 -2 -1 -1 -1 -1
1 0 0 -0 -0 0 -0 -0 0 0 -0 -0 -0 -0 -1 -1 -0 -1 -1 -1 -1 -1 -1 -1 -1 -1 -1 -1 -1 -0 0 -0 0 1 1 1 -1 -1 -1 -1 -1 -1 -1
1 1 0 0 -0 0 1 0 1 0 0 0 0 -0 -0 0 -0 -0 -1 -1 -1 -1 -1 -1 -1 -1 -1 -1 -1 0 0 0 1 1 0 0 -1 -1 -1 -1 -1 -1 -1
1 1 1 0 0 0 0 1 0 0 0 0 0 0 1 0 -0 -0 -0 -0 -1 -1 -1 -1 -1 -1 -1 -0 -0 0 0 0 0 1 0 0 -1 -2 -1 -1 -1 -1 -1
2 2 1 0 1 0 0 0 0 0 0 0 0 0 1 0 0 0 0 -0 -1 -0 -0 -0 -0 -0 -0 -0 -0 0 -0 0 0 1 1 -0 -1 -2 -2 -1 -1 -2 -1
3 2 1 1 1 1 0 0 0 0 1 1 -0 -0 0 1 1 0 0 0 -0 -0 -0 -0 -0 -0 0 1 0 -0 1 0 0 1 0 -0 -1 -2 -2 -1 -1 -1 -1
2 2 1 1 1 1 1 0 0 0 1 1 0 0 1 2 2 1 1 0 1 0 1 0 0 0 0 1 0 0 0 0 0 1 -0 -0 -1 -2 -2 -1 -1 -1 -1
3 2 1 1 1 1 0 0 1 0 0 0 1 2 2 2 3 2 1 1 1 1 1 1 1 0 0 1 0 1 0 0 1 0 -0 0 -1 -1 -2 -2 -2 -2 -1
3 2 2 1 1 1 1 0 1 0 0 1 1 2 2 2 2 2 2 1 1 2 2 1 2 0 0 0 0 0 1 0 1 0 0 1 0 -1 -2 -2 -2 -2 -2
2 2 1 1 1 0 1 1 1 0 1 1 1 1 2 2 2 2 3 2 2 2 2 1 1 1 1 1 1 -0 -0 -0 -0 1 0 0 1 -0 -1 -2 -2 -2 -2
2 2 2 1 1 1 1 1 1 1 1 1 1 2 2 2 2 2 2 2 3 2 2 2 2 1 1 0 0 0 -0 0 -0 0 1 0 0 1 0 -1 -1 -2 -2
7 2 1 1 1 1 2 1 1 1 1 1 1 1 2 1 2 2 1 1 2 1 2 2 1 1 1 1 1 1 0 0 0 0 0 1 1 1 0 -0 -1 -1 -2
8 6 2 1 2 2 2 2 2 1 1 1 1 1 1 1 1 1 1 1 1 1 1 1 1 1 1 1 1 1 0 0 0 0 0 1 1 2 1 0 -0 -0 -1
8 7 2 2 1 1 2 2 2 1 1 1 1 1 1 1 2 2 2 2 2 1 1 1 2 1 1 1 1 1 1 0 0 1 1 1 1 2 2 1 0 -0 -1
8 8 2 2 2 1 2 2 2 2 2 2 2 2 2 2 2 2 3 2 2 2 2 1 1 2 2 1 2 2 2 1 1 1 1 1 2 2 2 2 2 1 -0
7 8 3 2 2 2 2 2 2 2 1 1 2 2 2 3 2 2 3 2 2 2 3 2 2 2 2 1 3 3 5 4 2 2 2 2 2 2 2 2 2 1 1
7 8 4 2 2 2 1 1 4 3 3 3 3 3 3 2 2 1 1 2 2 2 3 2 2 2 3 2 2 3 6 7 5 4 3 3 3 3 3 2 2 1 1
4 3 5 2 2 2 1 2 2 3 4 2 2 2 3 2 2 1 1 2 2 2 2 2 1 2 2 3 2 2 3 3 5 6 5 4 4 4 4 3 2 1 2
7 5 4 2 2 2 2 2 2 3 2 2 2 4 2 2 2 1 1 1 1 2 2 2 2 2 2 2 2 3 3 3 3 5 6 6 5 4 4 4 3 2 1
8 7 6 3 2 2 2 2 2 3 4 4 3 4 3 2 1 1 1 1 1 1 2 2 2 2 2 2 1 2 3 4 4 4 6 5 5 5 4 3 3 3 1

GFSSE_con_lsi_102.txt.gz
Lid_Strength_Index
2 0 -0 -0 -0 -1 -1 -0 -1 -1 -1 -1 -1 -1 -1 -1 -1 -1 -1 -1 -1 -1 -1 -1 -1 -1 -1 -1 -1 -2 -1 -1 -1 -1 -1 -1 -1 -1 -1 -1 -1 -1 -1
1 -0 -0 -0 -0 -1 -1 -1 -1 -1 -1 -1 -1 -1 -1 -1 -1 -1 -1 -1 -1 -1 -1 -1 -1 -1 -1 -2 -1 -1 -1 -1 -1 -1 -1 -1 -1 -1 -1 -1 -1 -1 -1
1 -0 -0 -0 -0 -1 -1 -1 -1 -1 -1 -1 -1 -1 -1 -1 -1 -1 -1 -1 -1 -1 -1 -1 -1 -1 -1 -2 -1 -1 -1 -1 -1 -1 -1 -1 -1 -1 -1 -1 -1 -1 -1
0 0 -0 -0 -0 -0 -1 -1 -1 -1 -1 -1 -1 -1 -1 -1 -1 -1 -1 -0 -1 -1 -1 -1 -1 -1 -1 -1 -1 -1 -1 -1 -1 -1 -0 -1 -1 -1 -1 -1 -1 -1 -1
0 -0 -0 -0 -0 -0 -0 -0 -0 -1 -1 -1 -1 -1 -1 -1 -1 -1 -1 -0 -1 -1 -1 -1 -1 -1 -1 -1 -1 -1 -1 -1 -0 -0 -0 -1 -1 -1 -1 -1 -1 -1 -1
0 -0 0 0 -0 -0 -0 -0 -0 -0 -0 -0 -0 -1 -1 -1 -1 -1 -0 -1 -1 -1 -1 -1 -1 -1 -1 -1 -1 -1 -1 -1 0 0 -0 -1 -1 -1 -1 -1 -1 -1 -1
1 0 0 0 -0 -0 -0 -1 -0 -0 -0 -0 -0 -0 -1 -1 -1 -1 -0 -1 -0 -1 -1 -1 -1 -1 -1 -1 -1 -1 -0 -0 0 1 0 -0 -0 -2 -1 -1 -1 -1 -1
1 0 0 -0 -0 -0 -0 -0 0 -0 -0 -0 -0 -0 -1 -0 -0 -0 -0 -0 -1 -1 -0 -1 -1 -1 -1 -1 -1 -0 -0 -0 0 0 0 0 -1 -1 -1 -1 -1 -1 -1
1 1 0 0 -0 0 0 1 1 0 0 -0 -0 -0 -0 0 -0 -0 -0 -0 -1 -0 -0 -1 -1 -1 -1 -1 -0 -0 0 -0 0 0 0 0 -1 -2 -2 -1 -1 -1 -1
2 1 1 1 1 1 0 1 0 0 0 0 0 0 0 0 -0 -0 -0 -0 -1 -1 -1 -1 -1 -1 -1 -0 -0 0 0 -0 0 0 0 -0 -1 -2 -2 -1 -1 -1 -2
2 3 1 1 1 1 2 1 -0 -0 0 0 0 0 1 0 0 0 0 0 -0 -0 -0 -0 -0 -0 -0 -0 0 0 0 1 1 0 0 -0 -1 -2 -2 -1 -2 -1 -1
3 3 1 1 1 1 0 0 -0 -0 -0 0 0 1 1 1 1 0 0 0 0 0 0 0 0 0 0 1 1 -0 1 1 1 1 0 -1 -1 -2 -2 -1 -1 -2 -2
3 2 1 1 2 1 1 0 0 1 1 1 1 1 1 1 2 2 1 1 1 0 0 0 1 1 1 1 1 1 1 1 0 0 -0 -0 -1 -2 -2 -1 -1 -1 -1
3 2 2 2 1 1 0 0 0 1 0 2 1 0 0 1 2 2 1 2 2 2 2 2 2 2 1 1 1 1 1 0 0 0 -0 0 -1 -1 -2 -2 -2 -2 -1
3 2 2 2 1 1 1 0 0 1 1 0 -0 0 -0 0 1 2 2 1 2 2 2 2 2 1 1 1 1 1 0 0 0 0 0 1 0 -1 -2 -2 -2 -2 -2
2 2 2 2 2 1 1 0 0 0 0 1 2 0 -0 1 1 2 2 1 3 2 3 2 2 2 1 0 1 1 -0 0 -0 -0 -0 0 1 0 -1 -2 -2 -2 -2
6 2 2 2 2 2 1 1 0 0 0 1 1 1 1 1 1 2 2 2 2 2 3 3 3 2 1 1 1 1 0 0 -0 -0 -0 -0 0 1 0 -1 -1 -2 -2
9 6 1 1 1 2 2 1 1 0 0 1 0 1 1 1 2 2 2 2 2 2 2 2 2 2 2 1 1 1 0 -0 -0 0 -0 -0 0 -0 1 0 -1 -1 -1
9 8 5 1 1 1 1 2 1 1 1 1 1 1 1 1 2 2 1 1 2 2 2 2 2 2 2 2 1 1 0 0 0 -0 0 0 0 1 0 1 1 0 -1
9 9 7 2 1 1 1 1 2 1 0 1 0 1 1 1 1 1 1 1 1 1 2 2 2 2 2 2 1 1 1 0 0 0 0 0 1 1 1 0 -0 0 0
9 9 8 5 2 1 2 2 2 2 2 1 1 1 1 1 1 1 1 2 1 2 1 1 1 2 2 1 2 2 1 1 1 0 0 0 1 1 1 1 1 0 -0
4 4 7 5 2 2 1 1 1 1 1 1 1 1 1 1 1 1 2 2 2 1 2 2 2 2 2 2 3 3 5 4 2 1 0 1 1 1 2 2 2 2 1
6 5 4 3 2 2 1 1 3 2 2 2 2 1 1 1 2 2 2 2 2 2 2 2 2 3 3 2 2 3 6 7 4 3 1 1 2 2 2 2 2 2 2
7 7 5 4 3 1 1 2 2 3 4 2 2 2 1 1 2 2 3 2 2 1 2 2 2 2 2 3 2 2 3 4 5 6 3 2 2 2 3 2 3 2 2
8 7 7 6 5 1 2 2 2 3 2 2 2 2 2 2 2 3 3 3 2 1 1 2 2 3 2 2 2 2 3 4 4 5 6 4 4 3 3 3 3 3 2
8 8 7 7 6 3 2 2 2 3 3 3 2 2 2 2 3 3 3 2 1 1 2 2 2 2 2 2 2 3 3 4 5 5 5 4 4 5 4 3 3 3 3

GFSSE_con_lsi_105.txt.gz
Lid_Strength_Index
1 -0 -0 -0 -1 -1 -1 -0 -0 -0 -1 -1 -1 -1 -1 -1 -1 -1 -1 -1 -1 -1 -1 -1 -1 -1 -1 -1 -1 -1 -1 -1 -1 -1 -1 -1 -1 -1 -1 -1 -1 -1 -1
0 -1 -0 -0 -1 -1 -1 -1 -1 -0 -1 -1 -1 -1 -1 -1 -1 -1 -1 -1 -1 -1 -1 -1 -1 -1 -1 -1 -1 -1 -1 -1 -1 -1 -1 -1 -2 -1 -1 -1 -1 -1 -1
0 -1 -1 -0 -0 -1 -1 -1 -1 -1 -1 -1 -1 -1 -1 -1 -1 -1 -1 -1 -1 -1 -1 -1 -1 -1 -1 -2 -1 -1 -1 -1 -1 -1 -1 -1 -1 -1 -1 -1 -1 -1 -1
-0 -1 -1 -0 -0 -1 -1 -1 -1 -1 -1 -1 -1 -1 -1 -1 -1 -1 -1 -0 -1 -1 -1 -1 -1 -1 -2 -1 -1 -1 -1 -1 -1 -1 -1 -1 -1 -1 -1 -1 -1 -1 -1
0 -1 -1 -0 -0 -0 -1 -1 -1 -1 -1 -1 -1 -1 -1 -1 -1 -1 -1 -0 -1 -1 -1 -1 -1 -1 -1 -1 -1 -1 -1 -1 -0 -1 -1 -1 -1 -1 -1 -1 -2 -1 -1
0 -1 -0 0 -0 -0 -1 -1 -0 -0 -0 -0 -0 -1 -1 -1 -1 -1 -0 -1 -1 -1 -1 -1 -1 -1 -1 -1 -1 -1 -1 -0 -0 -1 -1 -1 -1 -1 -1 -1 -1 -1 -1
0 -1 -1 0 -0 -0 -1 -1 -0 -0 -0 -0 -0 -0 -1 -1 -1 -1 -0 -0 -1 -1 -1 -1 -1 -1 -1 -1 -1 -1 -0 -0 -1 -1 -1 -1 -1 -2 -2 -1 -1 -1 -1
0 -0 -1 -0 -0 -0 -0 -0 -0 -0 -0 -0 -0 -0 -1 -0 -0 -1 -0 -0 -0 -0 -0 -1 -1 -1 -1 -1 -1 -0 -0 -0 -1 -1 -1 -1 -1 -1 -1 -1 -1 -1 -1
-0 -0 -1 -1 -1 0 1 1 0 0 -0 -0 -0 -0 -0 0 0 -0 -0 -0 -0 -0 0 -0 -1 -1 -1 -1 -0 0 0 -0 -1 -1 -1 -1 -1 -1 -2 -1 -1 -1 -1
0 -0 -0 -0 -0 -1 -1 1 1 0 0 0 -0 0 0 0 -0 -0 0 -0 -0 -0 -0 -0 -1 -1 -1 -0 -0 0 0 0 -1 -1 -1 -1 -1 -2 -1 -1 -1 -1 -1
1 1 -0 -0 -0 -0 -1 -1 -0 -0 0 0 -0 0 1 -1 -1 -1 -0 0 -0 0 -0 -0 -0 -0 -0 -0 0 0 0 -1 -1 -1 -1 -0 -1 -2 -2 -2 -1 -1 -1
2 1 1 1 0 1 0 -1 -1 -1 -1 -1 -1 -1 -1 -1 -1 -1 -0 1 0 0 0 0 -0 0 -0 -1 -1 -0 -1 -1 -1 -1 -1 -0 -1 -2 -2 -1 -1 -1 -1
2 1 0 1 1 1 1 -0 -0 -1 -1 0 -1 -1 -1 -1 -1 -1 -1 -1 -1 -0 -1 -1 -1 -1 -1 -1 -1 -1 -1 -1 -1 -1 -1 -0 -1 -2 -2 -1 -1 -1 -2
2 1 0 0 1 1 0 -0 -0 0 0 0 -1 -1 -1 -0 -0 -1 -1 -1 -1 -1 -1 -1 -1 -1 -1 -1 -1 -1 -1 -1 -1 -1 -1 1 -0 -2 -2 -2 -1 -2 -1
2 1 1 0 0 0 1 -0 -0 -0 -0 -0 -1 -1 -1 -0 0 -0 -0 -1 -1 -1 -1 -1 -1 -1 -1 -1 -1 -1 -1 -1 -1 -1 -1 0 0 -1 -2 -2 -2 -2 -2
6 1 1 1 0 -0 0 -0 -0 -0 -0 -0 -1 -1 -1 -1 -0 0 0 -0 -1 -1 -1 -1 -1 -1 -1 -1 -1 -1 -1 -1 -1 -1 -1 -1 1 1 -1 -1 -2 -2 -2
4 4 0 0 -0 0 0 -0 -0 -0 -0 -0 -0 -1 -1 -1 -0 0 1 0 -0 -1 -1 -1 -1 -1 -0 -0 -0 -1 -1 -1 -1 -1 -1 -1 -1 0 1 -1 -1 -1 -2
5 5 3 0 0 0 0 0 0 -0 -0 -0 -0 -0 -0 -0 -0 1 1 1 0 1 -0 -0 0 0 0 0 0 -0 -0 -1 -0 -1 -1 -1 -1 -1 0 0 -0 -1 -1
5 5 5 2 0 0 0 -0 -0 -0 -0 -0 -0 -0 0 0 0 1 1 1 1 1 1 1 1 0 1 1 1 0 -0 -0 -0 -0 -1 -0 -0 -0 -0 0 0 1 -1
2 3 5 4 2 0 0 0 0 0 0 -0 0 -0 -0 1 1 1 1 0 0 1 1 1 2 1 1 1 1 1 0 -0 -0 -0 -0 -0 -0 0 1 1 -0 -1 1
2 2 2 2 4 0 1 1 2 2 1 1 0 -0 -0 0 1 1 0 0 1 1 1 1 1 2 2 1 2 2 1 0 0 0 -0 -0 -0 0 1 0 -1 -1 -1
4 3 2 2 1 1 1 1 1 1 1 1 0 0 -0 -0 0 0 0 0 1 1 1 1 1 2 2 1 3 3 5 3 2 1 0 0 0 -1 1 1 0 -1 -1
5 5 5 4 2 1 0 1 1 1 1 2 1 1 0 -0 -0 -0 0 0 1 1 1 1 1 1 3 2 1 3 6 6 4 1 1 1 0 0 -0 1 1 -0 -1
7 6 6 5 4 3 0 1 2 3 3 2 2 1 1 0 0 -0 0 0 0 1 1 1 0 1 1 3 2 1 2 2 5 6 2 1 0 1 0 1 1 0 -0
6 7 6 6 5 4 2 1 2 2 2 1 1 1 1 1 0 0 0 0 0 1 1 1 1 1 1 2 2 2 2 3 3 4 6 4 2 1 0 2 2 1 0
6 6 7 7 6 5 4 2 2 2 2 2 2 2 2 1 2 0 1 1 1 1 1 0 0 1 1 1 1 2 2 3 3 4 4 4 4 2 1 2 2 2 1

GFSSE_con_lsi_108.txt.gz
Lid_Strength_Index
0 -1 -0 -0 -1 -1 -1 -0 -0 -1 -1 -1 -1 -1 -1 -1 -1 -1 -1 -1 -1 -1 -2 -2 -1 -1 -1 -1 -1 -1 -1 -1 -1 -1 -1 -1 -1 -1 -1 -2 -2 -1 -1
-0 -1 -0 -0 -1 -1 -1 -1 -1 -1 -1 -1 -1 -1 -1 -1 -1 -1 -1 -1 -1 -1 -1 -1 -1 -1 -1 -1 -1 -1 -1 -1 -1 -1 -1 -1 -1 -1 -1 -2 -2 -1 -1
-0 -1 -1 -0 -1 -1 -1 -1 -1 -1 -1 -1 -1 -1 -1 -1 -1 -1 -1 -1 -1 -1 -1 -1 -1 -1 -1 -1 -1 -1 -1 -1 -1 -1 -1 -1 -1 -1 -1 -2 -2 -2 -1
-0 -1 -1 -0 -0 -1 -1 -1 -1 -1 -1 -1 -1 -1 -1 -1 -1 -1 -1 -1 -1 -1 -1 -1 -1 -1 -1 -1 -1 -1 -1 -1 -1 -1 -1 -1 -1 -1 -1 -1 -1 -1 -2
-0 -1 -1 -0 -0 -1 -1 -1 -1 -0 -0 -0 -1 -1 -1 -1 -1 -1 -1 -1 -1 -1 -1 -1 -1 -1 -1 -1 -1 -1 -1 -1 -1 -1 -1 -2 -1 -1 -1 -1 -1 -1 -2
-0 -1 0 0 -0 -0 -1 -1 -1 -0 -0 -0 -0 -1 -1 -1 -1 -1 -1 -1 -1 -1 -1 -1 -1 -1 -1 -1 -1 -1 -1 -0 -0 -1 -1 -1 -1 -1 -1 -2 -2 -1 -1
-0 -1 -1 0 -0 -0 -1 -1 -1 -0 -0 -0 -0 -0 -1 -1 -1 -1 -1 -1 -1 -1 -1 -1 -1 -1 -1 -1 -1 -1 -0 -0 -1 -1 -1 -1 -2 -1 -1 -1 -1 -1 -1
-0 -1 -1 -1 -0 -0 -0 -0 -0 -0 -0 -0 -0 -0 -1 -0 -1 -1 -1 -0 -0 -0 -1 -1 -0 -1 -1 -1 -1 -0 0 0 -1 -1 -1 -1 -1 -1 -1 -1 -1 -1 -1
-1 -1 -1 -1 -1 0 0 0 0 -0 -0 -0 -0 -0 -0 0 -0 -0 -0 -0 -1 -0 -0 -0 -0 -1 -1 -1 -0 0 0 -0 -1 -1 -1 -1 -1 -1 -1 -1 -1 -1 -1
-0 -0 -1 -1 -1 -1 -2 0 0 0 0 0 -0 0 0 0 -0 -0 -0 -0 -0 -0 -0 -0 -0 -1 -1 -0 -0 0 0 0 -1 -1 -1 -1 -1 -1 -1 -1 -1 -1 -1
0 0 -0 -0 -0 -1 -1 -1 -0 -0 -0 0 -0 0 0 -2 -2 -1 -0 -0 0 0 -0 0 -0 -0 -0 -0 -0 0 0 -1 -1 -2 -1 -1 -1 -1 -1 -1 -1 -1 -1
1 1 -0 -0 -0 -0 0 -1 -1 -1 -1 -2 -2 -2 -1 -2 -2 -1 -0 0 0 0 0 0 -0 -0 -0 -1 -1 -0 -1 -2 -1 -2 -2 -0 -1 -1 -2 -1 -1 -1 -1
1 1 0 -0 -0 -0 -0 -1 -0 -1 -1 -1 -2 -1 -2 -1 -1 -1 -1 -1 -2 -0 -1 -1 -1 -1 -1 -1 -2 -1 -1 -1 -2 -2 -1 0 -1 -2 -2 -2 -1 -1 -1
1 1 0 -0 -0 -0 -0 -0 -1 -0 -1 -0 -1 -1 -1 -1 -1 -1 -1 -1 -1 -1 -1 -1 -1 -1 -1 -1 -1 -1 -1 -2 -2 -2 -1 0 0 -1 -2 -2 -1 -1 -1
4 1 0 -0 -0 -0 -0 -0 -0 -0 -0 -1 -1 -1 -1 -0 -0 -1 -1 -1 -1 -1 -1 -1 -1 -1 -1 -1 -1 -1 -1 -1 -1 -1 -1 0 -0 -1 -1 -2 -2 -1 -1
4 4 0 -0 -0 -0 -0 -0 -0 -1 -1 -1 -1 -1 -1 -1 -0 -0 -0 -0 -1 -1 -1 -1 -0 -0 -0 -1 -1 -1 -1 -1 -1 -1 -2 -1 0 -0 -1 -1 -1 -1 -2
3 4 4 0 -0 -0 -0 -0 -0 -1 -1 -0 -1 -2 -1 -1 -1 -0 -0 0 -0 -1 -1 -1 -1 -1 -0 -0 -0 -1 -1 -1 -1 -1 -1 -1 -1 0 -0 -1 -1 -2 -2
3 2 2 3 2 -1 -0 -0 -0 -0 -1 -1 -1 -1 -1 -1 -1 -0 0 0 -0 -1 -1 -0 0 0 0 0 0 -0 -0 -1 -1 -1 -1 -1 -1 -1 -0 0 1 -1 -1
1 1 0 0 2 1 -1 -0 -0 -1 -0 -0 -1 -1 -1 -1 -1 -0 0 -0 0 0 0 0 0 0 1 1 0 0 -0 -0 -0 -1 -1 -1 -1 -1 -1 0 1 0 -0
0 0 0 0 -0 1 -0 -0 -0 -0 -0 -0 -0 -0 -1 -1 -1 -0 -0 -0 0 1 0 0 1 0 1 1 1 1 0 -0 -0 -0 -0 -1 -0 -1 -1 -1 -0 -0 1
1 1 1 1 0 0 1 1 1 2 1 0 -0 -0 -0 -1 -0 0 0 0 0 1 1 0 1 1 1 0 2 2 1 0 0 -0 -0 -0 -0 -1 -1 -0 -0 -0 -0
1 1 1 1 0 0 0 0 0 0 0 0 -0 -0 -0 -0 -0 0 0 1 1 1 1 1 1 2 1 1 3 3 5 3 1 0 0 0 -0 -1 -0 -1 -0 -0 -1
2 2 3 2 2 1 -0 0 0 0 0 1 1 1 0 -0 -0 0 0 0 1 0 1 1 1 1 3 2 1 3 6 7 4 1 1 1 0 -0 -0 -1 -1 -0 -0
3 2 2 2 2 2 1 1 1 2 2 1 1 1 1 0 0 -0 0 0 0 0 1 1 1 1 1 3 2 1 1 2 5 5 2 1 0 1 0 -1 -1 -1 -0
3 3 3 3 2 2 2 2 2 2 1 1 1 1 1 1 0 0 0 0 0 0 0 1 1 1 1 1 2 2 2 2 3 4 5 3 2 1 0 0 -0 -1 -1
4 4 4 4 4 3 4 3 3 2 2 2 1 2 2 1 1 1 0 0 0 0 1 1 0 0 1 1 1 1 2 3 4 4 4 4 3 2 1 0 0 -0 -0

GFSSE_con_lsi_111.txt.gz
Lid_Strength_Index
0 -0 -0 -1 -1 -1 -1 -0 -0 -1 -1 -1 -1 -1 -1 -1 -1 -1 -1 -1 -1 -1 -1 -1 -1 -1 -1 -1 -1 -1 -1 -1 -1 -1 -1 -1 -1 -1 -1 -1 -2 -1 -1
-0 -1 -0 -0 -1 -1 -1 -1 -1 -1 -1 -1 -1 -1 -1 -1 -1 -1 -1 -1 -1 -1 -1 -1 -1 -1 -1 -1 -1 -1 -1 -1 -1 -1 -1 -1 -1 -1 -1 -1 -2 -1 -1
-0 -1 -1 -0 -0 -1 -1 -1 -1 -1 -1 -1 -1 -1 -1 -1 -1 -1 -1 -1 -1 -1 -1 -1 -1 -1 -1 -1 -1 -1 -1 -1 -1 -1 -1 -1 -1 -1 -1 -1 -1 -1 -1
-0 -1 -1 -0 -0 -0 -0 -0 -0 -1 -1 -1 -1 -1 -1 -1 -1 -1 -1 -1 -1 -1 -1 -1 -1 -1 -1 -1 -1 -1 -1 -1 -1 -1 -1 -1 -1 -1 -1 -1 -1 -1 -1
-0 -1 -1 -0 -0 -0 -0 -0 -0 -0 -0 -1 -1 -1 -1 -1 -1 -1 -1 -1 -1 -1 -1 -1 -1 -1 -1 -1 -1 -1 -1 -1 -1 -1 -1 -1 -1 -1 -1 -1 -1 -1 -1
-0 -1 0 0 -0 -0 -0 -0 -0 -0 -0 -0 -1 -1 -1 -1 -1 -1 -1 -1 -1 -1 -1 -1 -1 -1 -1 -1 -1 -1 -1 -1 -0 -1 -1 -1 -1 -1 -1 -1 -2 -2 -1
-0 -1 -1 0 -0 -0 -1 -1 -0 -0 -0 -0 -0 -1 -1 -1 -1 -1 -1 -1 -1 -1 -1 -1 -1 -1 -1 -1 -1 -1 -0 -0 -1 -1 -0 -1 -1 -1 -1 -1 -2 -2 -1
-0 -1 -1 -1 -0 -0 -0 -0 -0 -0 -0 -0 -0 -0 -1 -0 -0 -1 -1 -0 -0 -1 -1 -1 -0 -1 -1 -1 -1 -0 -0 -0 -1 -0 -1 -1 -1 -1 -1 -1 -1 -1 -1
-1 -1 -1 -1 -1 -0 0 0 0 0 -0 -0 0 -0 -0 -0 -0 -0 -1 -1 -1 -0 -0 -0 -0 -1 -1 -1 -1 -0 0 -0 -1 -1 -1 -1 -1 -2 -1 -1 -2 -1 -1
-0 -1 -1 -1 -1 -1 -1 -0 0 0 -0 0 -0 0 0 0 -0 -0 -0 0 -1 -1 -0 -0 -0 -1 -1 -0 -0 -0 0 -0 -1 -1 -1 -1 -1 -1 -1 -1 -1 -1 -1
1 -0 -1 -0 -0 -1 -1 -1 -1 -1 -0 -0 -0 0 1 -1 -1 -1 -0 0 -0 -0 -0 -0 -0 -0 -0 -0 -0 -0 -0 -1 -1 -1 -0 -0 -1 -1 -1 -1 -1 -1 -1
1 1 0 0 -0 -0 -1 -1 -1 -1 -1 -1 -1 -1 -1 -1 -1 -1 -0 -0 0 0 0 -0 -0 -0 -0 -1 -1 -0 -1 -1 -1 -1 -1 -1 -1 -2 -1 -1 -1 -1 -1
1 1 0 0 -0 0 -0 -0 -1 -1 -1 -1 -1 -1 -1 -1 -1 -1 -1 -1 -1 -0 -1 -1 -1 -1 -1 -1 -0 -1 -1 -1 -1 -1 -1 0 -1 -2 -1 -2 -2 -1 -1
1 1 0 -0 -0 -0 -0 -0 -0 -0 -0 -0 -1 -2 -1 -0 -1 -0 -0 -1 -1 -1 -1 -1 -1 -1 -1 -1 -1 -1 -1 -2 -1 -1 -1 -0 -1 -1 -1 -2 -2 -1 -1
2 1 0 -0 -0 -0 -0 -0 -0 -0 -0 -1 -1 -1 -1 -0 -0 -1 -1 -1 -1 -1 -1 -0 -0 -0 -0 -0 -1 -1 -1 -1 -1 -1 -2 0 -0 -1 -1 -2 -1 -1 -1
3 2 2 -0 -0 -0 -0 -0 -0 -0 -1 -1 -1 -1 -1 -1 -0 -0 -0 -0 -1 -1 -1 -1 -0 -0 0 -0 -0 -1 -0 -1 -1 -1 -1 -1 -0 -0 -1 -1 -1 -1 -1
3 3 2 2 -1 -0 -0 -0 -0 -0 -1 -0 -0 -1 -1 -1 -1 -0 -0 -0 -0 -1 -1 -1 -0 -1 -0 -0 0 -0 -0 -1 -1 -1 -1 -1 -1 1 -0 -1 -1 -1 -2
3 2 1 1 3 -1 -0 -0 -0 -0 -0 -0 -1 -1 -1 -1 -1 -0 0 0 -0 -1 -0 -0 0 0 1 0 1 0 -0 -0 -0 -1 -1 -1 -1 -1 0 -0 -1 -1 -1
1 1 0 -0 -0 2 -0 -0 -0 -0 -0 -0 -0 -0 -1 -1 -1 -0 0 -0 -0 -0 -0 0 0 0 1 1 1 0 0 0 -0 -1 -0 -1 -1 -1 -1 0 0 0 -1
1 0 0 0 -0 -0 -0 0 -0 -0 -0 -0 -0 -0 -1 -0 -1 -0 -0 -0 -0 0 1 0 1 1 1 1 1 1 1 -0 -0 -0 -0 -1 -1 -1 -1 -1 -0 0 1
1 1 1 1 0 0 0 1 1 1 0 0 -0 -0 -0 -0 -1 -0 -0 0 0 1 1 1 1 1 2 1 2 2 1 0 0 0 -0 -0 -0 -1 -1 -1 -1 -0 -0
2 1 1 1 0 0 0 0 0 0 0 0 -0 -0 -0 -0 -0 -0 0 0 0 1 1 1 1 2 2 1 3 3 5 3 2 1 0 0 0 -0 -0 -1 -1 -0 -1
2 2 2 1 1 1 0 0 0 0 0 1 1 0 0 -0 -0 -0 0 0 0 0 1 1 1 2 3 2 1 3 5 6 4 1 1 1 0 0 -0 -0 -1 -1 -1
2 2 2 2 1 1 0 1 1 2 2 1 1 0 0 -0 0 -0 0 0 0 0 1 1 1 1 1 3 2 1 1 2 5 5 2 1 1 1 0 -0 -0 -0 -0
2 2 2 2 2 2 2 1 1 2 1 1 1 1 1 0 0 0 0 0 0 0 1 1 1 1 1 2 2 2 2 2 2 4 5 3 1 1 0 0 -0 -0 -1
3 3 3 4 4 3 3 3 4 4 2 2 2 2 1 1 1 1 0 1 0 1 1 1 1 1 1 1 1 2 2 3 4 3 4 3 3 2 1 0 0 -0 -1

GFSSE_con_lsi_117.txt.gz
Lid_Strength_Index
1 0 -0 -0 -0 -0 -0 -0 -0 -1 -1 -1 -1 -1 -1 -1 -1 -1 -1 -1 -1 -1 -1 -1 -1 -1 -1 -1 -2 -2 -1 -1 -1 -1 -1 -1 -1 -1 -1 -1 -1 -1 -1
0 -0 0 -0 -0 -0 -1 -1 -1 -1 -1 -1 -1 -1 -1 -1 -1 -1 -1 -1 -1 -1 -1 -1 -1 -1 -1 -1 -1 -1 -1 -1 -1 -1 -1 -1 -1 -1 -1 -1 -1 -1 -1
1 -0 -0 -0 -0 -0 -0 -1 -1 -1 -1 -1 -1 -1 -1 -1 -1 -1 -1 -1 -1 -1 -1 -1 -1 -1 -1 -1 -1 -1 -1 -1 -1 -1 -1 -0 -0 -1 -1 -1 -1 -1 -1
0 -0 -0 -0 -0 -0 -0 -0 -1 -1 -1 -1 -1 -1 -1 -1 -1 -1 -1 -1 -1 -1 -1 -1 -1 -1 -1 -1 -1 -1 -1 -1 -1 -1 -0 -1 -1 -1 -1 -2 -2 -1 -1
1 0 -0 -0 -0 -0 -0 -0 -0 -0 -0 -1 -1 -1 -1 -1 -1 -1 -1 -1 -1 -1 -1 -1 -1 -1 -1 -0 -1 -1 -1 -1 -1 -1 -0 0 -0 -1 -1 -2 -2 -2 -1
1 1 1 0 -0 -0 -0 -0 -0 -0 -0 -0 -0 -1 -1 -1 -1 -1 -1 -1 -1 -1 -1 -1 -1 -1 -0 -0 -1 -1 -0 -0 -0 0 -0 -0 -1 -2 -1 -2 -1 -1 -1
1 1 1 0 0 -0 -0 -0 -0 -0 -0 -0 -0 -0 -1 -1 -1 -1 -1 -1 -1 -1 -1 -1 -1 -0 -1 -0 -0 -0 -0 -0 -0 1 0 -0 -0 -1 -2 -2 -2 -1 -1
1 1 1 0 -0 0 -0 0 0 0 0 -0 -0 -0 -1 -0 -0 -1 -1 -1 -0 -0 -1 -0 -0 -0 -1 -1 -1 -0 -0 -0 -0 1 1 -0 -1 -1 -2 -2 -1 -1 -1
0 1 1 0 -0 0 1 1 1 0 0 0 0 0 -0 0 -0 -0 -0 -0 -0 -0 -0 -0 -0 -0 -0 -1 -0 -0 0 0 0 1 -0 -0 -1 -1 -2 -2 -2 -1 -1
1 1 1 2 1 0 0 1 1 1 1 0 0 0 1 0 0 -0 -0 -0 -0 -0 -0 -0 0 -0 -0 -0 -0 -0 0 0 0 0 -0 0 -1 -1 -2 -2 -2 -2 -2
1 1 1 2 1 0 0 -0 0 0 0 1 0 0 1 -0 -0 -0 0 0 0 0 0 0 0 0 0 -0 -0 -0 -0 0 0 0 -0 -0 -1 -2 -2 -2 -2 -1 -2
3 2 1 2 1 0 -0 0 0 -0 0 0 -0 -0 -0 0 0 -0 0 1 0 1 0 0 0 1 0 0 0 -0 0 -0 0 1 -0 -1 -1 -2 -2 -2 -1 -2 -1
2 2 1 1 1 0 0 0 -0 0 0 0 0 0 0 -0 -0 -0 -0 -0 0 0 0 0 0 0 1 1 0 1 0 0 0 0 -0 -1 -1 -2 -2 -2 -2 -2 -2
5 2 2 2 1 0 0 1 1 0 0 0 0 0 0 1 1 1 1 1 0 0 1 0 0 0 1 0 0 0 1 0 1 0 0 0 -1 -1 -2 -1 -2 -2 -2
7 2 2 1 1 1 1 1 1 1 0 0 0 -0 0 1 1 2 1 1 1 0 0 1 1 0 0 0 0 0 1 1 1 1 1 1 0 -1 -2 -1 -2 -1 -1
6 5 5 2 1 1 1 1 2 1 1 0 0 0 0 0 1 1 1 1 1 0 0 1 1 1 1 1 0 0 1 1 1 1 1 1 1 0 -1 -1 -2 -2 -1
4 3 3 3 3 4 1 1 0 0 0 0 1 1 0 0 1 1 2 1 1 0 1 1 1 2 2 1 1 1 1 1 1 1 1 1 1 1 0 -0 -1 -1 -1
4 3 2 1 1 1 4 3 0 0 0 0 -0 0 1 0 1 2 1 1 1 1 1 1 1 2 2 1 2 2 1 1 1 1 1 1 2 1 1 1 0 -1 -1
3 3 3 2 2 2 2 3 3 4 3 1 0 0 0 1 1 1 1 2 1 2 1 1 1 2 3 2 2 2 2 2 1 1 1 1 2 2 2 1 1 1 -0
3 3 3 2 2 3 3 2 3 4 5 2 0 1 0 0 0 0 1 1 2 2 2 2 1 2 2 2 2 2 2 2 2 2 1 1 1 2 2 2 2 1 1
4 4 4 4 4 4 4 5 4 4 6 5 3 3 3 -0 0 1 1 2 2 1 1 2 3 2 3 2 3 4 3 3 2 2 1 1 1 2 2 1 1 1 1
5 5 5 5 5 5 5 5 5 4 3 3 1 3 3 3 1 0 1 1 1 2 2 2 3 4 3 2 4 5 5 5 3 2 2 2 1 1 1 1 1 1 0
5 6 6 6 6 6 6 6 5 5 5 4 4 3 4 4 3 1 0 1 1 1 2 1 2 3 3 3 3 4 6 7 5 4 3 2 2 2 2 1 1 1 0
7 6 6 6 7 6 6 7 8 7 7 6 6 5 4 5 5 4 3 0 1 1 1 1 1 1 2 3 4 3 3 4 6 7 4 2 2 2 2 2 1 1 1
7 7 7 7 7 7 8 8 8 8 8 7 6 6 6 4 4 5 4 3 1 1 1 1 1 1 1 2 3 3 3 4 4 5 7 5 3 2 2 2 1 1 1
7 7 8 8 8 9 9 9 9 10 9 9 8 8 7 5 4 3 4 4 2 1 1 1 1 2 1 2 2 2 3 4 4 5 5 5 4 4 2 2 1 1 1

GFSSE_con_lsi_120.txt.gz
Lid_Strength_Index
1 0 0 -0 -0 -0 -0 -0 -0 -1 -1 -1 -1 -1 -1 -1 -1 -1 -1 -1 -1 -1 -1 -1 -1 -1 -1 -1 -2 -2 -1 -1 -1 -1 -1 -1 -1 -1 -1 -1 -1 -1 -1
0 -0 0 -0 -0 -1 -1 -1 -0 -1 -1 -1 -1 -1 -1 -1 -1 -1 -1 -1 -1 -1 -1 -1 -1 -1 -1 -1 -1 -1 -1 -1 -1 -1 -1 -1 -1 -1 -1 -1 -1 -1 -1
1 -0 -0 0 -0 -1 -1 -1 -1 -1 -1 -1 -1 -1 -1 -1 -1 -1 -1 -1 -1 -1 -1 -1 -1 -1 -1 -1 -1 -1 -1 -1 -1 -1 -1 -0 -0 -1 -1 -1 -1 -1 -1
0 -0 -0 -0 -0 -0 -1 -1 -1 -1 -1 -1 -1 -1 -1 -1 -1 -1 -1 -1 -1 -1 -1 -1 -1 -1 -1 -1 -1 -1 -1 -1 -1 -1 -0 -0 -1 -1 -1 -1 -1 -1 -1
0 -0 -0 0 0 -0 -0 -0 -0 -0 -0 -1 -1 -1 -1 -1 -1 -1 -1 -1 -1 -1 -1 -1 -1 -1 -1 -0 -0 -1 -1 -1 -1 -1 0 -0 -1 -1 -2 -2 -1 -1 -1
1 0 0 0 0 -0 -0 -1 -0 -0 -0 -0 -0 -1 -1 -1 -1 -1 -1 -1 -1 -1 -1 -1 -1 -1 -0 -0 -0 -1 -1 -0 -0 0 0 -1 -1 -2 -1 -2 -1 -1 -1
2 1 1 1 0 -0 -0 -0 -0 -0 -0 -0 -0 -0 -1 -1 -1 -1 -1 -1 -1 -1 -1 -1 -1 -0 -0 -0 -1 -1 -0 -0 0 1 0 0 -0 -2 -1 -2 -2 -1 -1
1 1 1 0 0 0 -0 0 0 0 -0 -0 -0 -0 -1 -1 -0 -1 -1 -1 -0 -0 -0 -0 -0 -0 -1 -1 -1 -0 0 0 0 1 1 1 -1 -1 -1 -2 -1 -1 -1
1 2 1 0 -0 0 1 1 1 1 0 0 0 0 -0 0 -0 -0 -1 -1 -0 -0 -0 -0 0 -0 -0 -1 -0 0 0 0 0 1 1 1 -1 -1 -1 -2 -2 -1 -1
1 1 1 1 1 0 0 1 1 1 1 0 0 0 1 0 0 -0 -0 -0 -0 -0 -0 -0 0 0 -0 -0 -0 0 0 0 0 1 1 0 -2 -1 -1 -2 -2 -1 -1
1 2 2 2 2 1 0 -0 0 0 1 1 0 1 1 -0 -0 -0 0 0 0 1 0 0 0 1 0 0 0 0 0 0 0 0 0 -0 -2 -1 -1 -1 -1 -1 -1
3 2 2 2 2 2 0 0 0 0 0 0 -0 0 -0 0 0 -0 0 1 1 1 1 1 1 1 1 0 0 -0 0 0 0 0 0 -0 -1 -1 -1 -1 -1 -1 -1
2 2 1 2 2 2 1 1 1 1 1 0 0 -0 0 -0 0 0 -0 -0 0 0 0 0 0 1 1 1 1 1 0 0 1 1 0 -0 -1 -1 -2 -2 -1 -1 -1
8 2 1 2 2 2 1 1 0 1 1 1 0 0 0 0 1 1 0 0 0 -0 0 0 1 1 1 1 1 1 1 1 1 1 1 1 -0 -1 -1 -2 -1 -1 -1
4 3 3 2 2 1 1 1 1 0 0 0 0 0 -0 0 0 0 0 0 0 0 1 1 1 1 1 1 1 1 1 1 1 0 1 1 0 -1 -1 -2 -1 -1 -1
4 6 5 5 4 2 2 2 1 1 2 0 -0 -0 -0 0 0 1 1 1 1 1 0 1 1 1 1 0 1 1 1 1 1 1 1 1 1 -0 -1 -1 -1 -1 -1
3 3 4 4 5 4 3 3 2 2 1 1 0 -0 -0 0 0 0 1 2 1 1 1 1 1 1 1 1 1 1 1 1 1 1 1 2 2 2 1 0 -0 -1 -1
3 3 2 3 4 3 5 4 4 3 2 2 1 0 -0 -0 0 1 1 1 1 1 1 1 1 2 1 2 2 2 2 2 1 1 1 2 2 2 2 0 1 -0 -1
4 3 3 4 4 4 3 3 5 5 3 3 2 -0 -0 -1 0 1 1 1 2 1 1 1 1 2 2 2 2 2 2 2 2 1 2 2 2 2 2 2 1 1 0
5 4 4 4 5 5 5 5 4 4 5 5 3 2 1 0 -0 -0 0 0 2 2 1 1 1 2 2 2 2 2 3 2 2 2 2 1 2 2 2 2 2 1 1
5 5 5 5 5 6 6 6 6 6 5 6 5 4 4 2 2 2 0 0 0 1 1 1 2 3 3 3 4 4 4 3 3 3 2 2 2 2 3 3 3 3 2
6 6 6 6 6 7 6 6 7 7 5 5 5 6 6 6 5 4 4 2 1 1 1 2 1 3 2 2 3 5 6 5 4 3 3 2 2 2 2 2 3 3 2
7 7 6 7 7 8 8 8 8 8 7 7 8 7 6 6 5 6 5 3 2 1 1 1 1 2 3 2 3 4 6 7 6 5 3 2 2 2 2 2 2 2 2
8 8 8 8 8 8 9 9 10 10 10 9 9 8 8 7 7 6 6 6 5 4 1 1 1 1 2 3 2 2 4 4 6 7 4 3 3 3 3 2 2 2 2
9 9 9 9 9 9 10 10 11 11 11 10 9 9 9 8 7 6 5 5 5 5 3 1 2 2 1 2 3 3 3 4 5 5 7 4 3 2 2 2 2 2 2
10 10 10 10 11 10 10 11 11 12 11 11 11 10 9 9 8 7 6 6 4 4 4 2 1 2 2 2 2 2 3 4 4 5 6 5 5 3 2 2 2 2 2

GFSSE_con_lsi_123.txt.gz
Lid_Strength_Index
1 0 -0 -0 -0 -0 -0 -0 -0 -0 -1 -1 -1 -1 -1 -1 -1 -1 -1 -1 -1 -1 -1 -1 -1 -1 -1 -1 -1 -1 -1 -1 -1 -1 -1 -1 -1 -1 -1 -1 -1 -1 -1
0 -0 0 -0 -0 -1 -1 -0 -1 -1 -1 -1 -1 -1 -1 -1 -1 -1 -1 -1 -1 -1 -1 -1 -1 -1 -1 -1 -2 -1 -1 -1 -1 -1 -1 -1 -1 -1 -1 -1 -1 -1 -1
1 -0 -0 -0 -0 -0 -1 -1 -1 -1 -1 -1 -1 -1 -1 -1 -1 -1 -0 -0 -1 -1 -1 -1 -1 -1 -1 -1 -1 -1 -1 -1 -1 -1 -1 0 0 -1 -1 -1 -1 -1 -1
0 0 -0 -0 -0 -0 -0 -0 -0 -1 -1 -1 -1 -1 -1 -1 -1 -1 -0 -0 -1 -1 -1 -1 -1 -1 -1 -1 -1 -1 -1 -1 -1 -1 -0 -0 -0 -2 -1 -2 -1 -1 -1
0 -0 -0 0 -0 -0 -0 -0 -0 -0 -0 -1 -1 -1 -1 -1 -1 -1 -0 -0 -1 -1 -1 -1 -1 -1 -1 -0 -1 -1 -1 -1 -1 -1 0 -0 0 -1 -1 -2 -1 -1 -1
0 0 0 0 0 -0 -1 -1 -0 -0 -0 -0 -0 -1 -1 -1 -1 -1 -1 -1 -1 -1 -1 -1 -1 -1 -0 -0 -0 -1 -1 -1 -0 0 0 -0 -0 -1 -1 -2 -1 -1 -1
1 1 0 1 0 -0 -0 -1 -0 -0 -0 -0 -0 -0 -1 -1 -1 -1 -1 -0 -0 -1 -1 -1 -1 -0 -0 -0 -1 -0 -0 -0 0 1 1 0 0 -1 -1 -2 -2 -1 -1
2 1 0 0 0 0 0 -0 0 0 -0 -0 -0 -0 -1 -1 -0 -1 -0 -0 -0 -0 -0 -0 -0 -0 -0 -1 -1 -0 0 -0 0 1 1 1 -1 -1 -1 -2 -2 -1 -1
1 2 2 1 -0 0 1 1 1 0 0 0 0 0 -0 -0 -0 -0 -0 -1 -0 -0 -0 -0 -0 -0 -1 -0 -0 0 0 0 1 1 1 1 -0 -1 -1 -1 -1 -1 -1
2 2 2 2 1 1 0 1 1 1 0 0 0 0 0 0 -0 -0 -0 -0 -0 0 -0 -0 0 -0 -0 -0 -0 0 1 0 1 1 1 0 -1 -1 -1 -1 -1 -1 -1
2 2 2 2 2 1 1 0 0 0 0 1 0 0 1 -0 0 0 -0 0 -0 1 0 0 0 1 1 0 0 0 0 0 1 0 1 -0 -1 -1 -1 -1 -1 -1 -1
3 2 3 2 2 2 0 1 1 1 0 1 0 0 0 0 0 -0 0 1 0 1 1 1 1 1 1 1 1 0 1 0 1 1 0 -0 -1 -1 -2 -1 -1 -1 -1
3 2 2 3 3 3 2 2 1 0 0 0 -0 -0 0 1 0 -0 0 0 -0 0 0 1 1 0 1 1 1 1 1 1 1 1 0 -0 -1 -1 -1 -1 -1 -1 -1
8 5 1 2 3 3 3 2 2 1 1 1 1 1 1 1 1 1 0 1 1 0 0 1 1 0 1 1 1 1 1 1 0 1 1 0 -1 -1 -1 -1 -1 -1 -1
3 3 2 1 3 3 3 2 2 1 1 1 1 1 1 1 1 1 0 1 1 1 1 1 0 1 1 1 1 1 1 1 1 1 1 1 0 -1 -1 -1 -2 -1 -1
5 5 5 5 3 2 2 2 1 1 0 1 1 1 0 0 1 1 0 1 1 1 1 1 0 1 1 1 1 1 1 1 1 1 1 1 1 1 -1 -1 -1 -1 -1
4 4 6 6 6 6 6 5 4 2 1 1 0 0 0 0 1 1 1 1 1 1 1 1 1 1 1 1 1 1 1 1 1 2 1 1 2 2 1 -1 -1 -1 -1
5 5 5 7 8 8 7 6 6 5 4 3 1 1 1 -0 0 1 1 1 1 2 1 1 1 1 1 2 1 1 1 1 1 2 1 2 2 2 2 1 0 -0 -1
5 6 8 7 8 8 7 6 7 7 6 4 3 2 2 1 1 1 2 0 1 1 1 1 1 1 2 2 2 1 2 1 1 1 2 2 2 2 3 2 1 1 1
6 6 6 6 6 6 6 6 5 6 6 6 5 4 3 3 2 1 1 1 1 1 1 2 1 2 1 2 2 2 2 2 2 2 2 2 2 2 3 3 2 1 2
7 7 7 7 7 7 7 7 7 8 7 6 4 5 5 6 6 4 3 2 1 1 1 1 1 2 2 3 3 3 3 3 2 2 2 2 2 2 3 3 3 2 1
8 8 8 8 8 8 7 8 8 8 7 7 7 7 5 6 5 6 5 4 3 2 1 1 1 2 2 2 3 4 6 4 3 3 2 2 2 2 3 3 3 3 2
10 10 9 9 9 9 8 8 8 8 8 8 9 9 8 7 7 6 5 5 5 4 4 2 1 2 3 2 2 4 6 7 5 4 3 3 3 2 2 2 3 3 3
10 10 10 10 10 10 10 10 11 11 11 10 10 10 9 9 8 7 6 6 5 5 5 4 2 1 2 3 2 2 2 3 6 6 3 3 3 2 2 2 2 3 3
10 11 11 11 11 11 11 12 12 12 12 11 11 11 11 10 9 8 7 7 7 6 5 4 4 2 1 2 3 3 3 3 3 4 6 4 2 2 2 2 2 2 2
11 11 11 12 12 12 12 13 13 13 13 13 12 12 11 10 10 9 8 8 8 7 7 5 3 3 1 2 2 2 3 4 4 4 5 4 4 3 1 2 2 2 2

GFSSE_con_lsi_126.txt.gz
Lid_Strength_Index
1 0 -0 -0 -0 -1 -0 -0 -0 -0 -1 -1 -1 -1 -1 -1 -1 -1 -1 -1 -1 -1 -1 -1 -1 -1 -1 -1 -1 -1 -1 -1 -1 -1 -1 -1 -1 -1 -1 -1 -1 -1 -1
1 -0 0 -0 -0 -1 -1 -1 -0 -1 -1 -1 -1 -1 -1 -1 -1 -1 -1 -1 -1 -1 -1 -1 -1 -1 -1 -1 -2 -1 -1 -1 -1 -1 -1 -1 -1 -1 -1 -1 -1 -1 -1
1 -0 -0 -0 -0 -1 -1 -1 -1 -1 -1 -1 -1 -1 -1 -1 -1 -1 -0 -1 -1 -1 -1 -1 -1 -1 -1 -2 -1 -1 -1 -1 -1 -1 -1 -0 -0 -1 -1 -1 -1 -1 -1
0 0 0 -0 -0 -0 -1 -1 -1 -1 -1 -1 -1 -1 -1 -1 -1 -1 -0 -0 -1 -1 -1 -1 -1 -1 -1 -1 -1 -1 -1 -1 -1 -1 -0 -0 -1 -1 -1 -1 -1 -1 -1
0 0 0 -0 -0 -0 -0 -1 -1 -1 -1 -1 -1 -1 -1 -1 -1 -1 -0 -0 -1 -1 -1 -1 -1 -1 -1 -1 -1 -1 -1 -1 -1 -1 -0 -0 -0 -1 -2 -2 -1 -1 -1
0 0 0 0 0 -0 -0 -0 -0 -0 -0 -0 -0 -1 -1 -1 -1 -1 -0 -0 -1 -1 -1 -1 -1 -1 -1 -0 -0 -1 -1 -1 -0 -0 -0 -0 -0 -1 -1 -1 -1 -1 -1
1 0 0 1 0 -0 -1 -1 -0 -0 -0 -0 -0 -0 -0 -1 -1 -0 -0 -0 -1 -1 -1 -1 -1 -1 -0 -0 -1 -1 -0 -0 0 0 0 -0 -0 -1 -1 -2 -1 -1 -1
1 1 0 -0 0 0 -0 -0 0 0 -0 -0 -0 -0 -1 -0 -0 -0 -0 -0 -0 -0 -0 -0 -0 -0 -0 -1 -1 -0 -0 -0 -0 0 0 0 -0 -1 -1 -2 -1 -1 -1
2 2 1 0 0 0 1 1 1 0 0 -0 -0 -0 -0 0 -0 -0 -0 -0 -0 -0 0 -0 -0 -0 -0 -0 -0 0 0 0 0 1 0 0 -1 -1 -1 -2 -1 -1 -1
2 2 2 2 1 1 0 1 1 1 0 0 0 0 0 0 0 -0 -0 -0 -0 -0 -0 -0 -0 -0 -0 -0 -0 0 1 0 0 1 1 1 -0 -1 -1 -1 -2 -1 -1
2 2 3 2 2 1 1 0 0 0 0 0 0 0 1 0 0 -0 0 0 0 1 0 0 0 0 0 -0 0 0 0 0 0 0 1 0 -1 -1 -1 -1 -1 -1 -1
3 2 3 3 2 2 1 0 1 -0 0 1 1 1 0 -0 0 -0 0 0 0 1 1 1 1 1 1 0 0 0 0 0 0 0 -0 -0 -1 -1 -1 -1 -1 -1 -1
3 2 2 3 3 3 2 2 0 0 1 1 0 1 0 -0 -0 -0 0 0 0 0 1 1 1 1 1 1 1 1 0 1 1 0 0 -0 -1 -1 -1 -1 -2 -1 -1
4 3 4 3 3 3 3 2 2 1 1 1 1 0 -0 1 1 1 1 0 1 0 -0 0 0 0 0 1 1 1 1 0 1 1 1 0 -0 -1 -1 -2 -2 -1 -1
6 3 2 1 1 3 3 3 3 2 1 1 1 1 1 1 1 1 1 1 0 0 -0 0 1 1 1 1 1 1 1 1 0 1 1 1 0 -1 -1 -1 -1 -1 -1
3 4 4 4 1 1 2 2 2 2 2 1 1 1 0 0 1 1 1 1 1 1 0 -0 0 0 1 1 1 1 1 1 1 1 1 1 1 0 -1 -1 -1 -1 -1
5 5 6 7 6 6 5 5 4 3 2 1 1 2 1 -0 0 0 1 1 1 1 1 1 0 0 1 1 2 1 1 1 1 1 1 1 1 2 1 -0 -1 -1 -1
7 7 7 7 8 8 9 8 7 6 5 4 3 2 2 1 0 0 0 1 1 0 1 0 1 1 1 1 1 2 1 1 1 1 1 1 1 1 2 1 0 -1 -1
8 8 9 9 10 9 9 7 8 8 7 6 5 5 4 4 5 2 0 0 -0 1 0 1 1 1 1 1 1 1 1 1 1 1 1 1 2 1 2 2 2 1 0
9 10 10 10 10 10 10 10 7 7 6 5 6 5 5 5 6 6 3 2 2 1 1 1 1 1 1 1 1 1 1 1 1 1 1 1 2 2 2 2 2 2 2
10 10 10 11 11 11 10 10 8 8 6 6 7 5 6 6 5 6 6 5 3 2 2 2 1 2 2 1 2 2 2 2 2 1 1 1 2 2 2 2 2 2 1
11 11 10 11 10 10 10 10 9 9 7 7 8 8 7 7 6 7 6 5 4 5 4 1 2 2 2 1 3 3 5 4 2 2 2 2 1 2 2 2 3 2 2
12 12 12 12 12 11 11 11 11 10 9 9 10 9 9 8 7 7 6 6 5 4 5 4 3 2 3 2 2 3 6 7 4 2 2 1 1 1 1 2 3 3 2
12 11 11 11 11 11 12 12 13 13 13 11 10 10 10 9 8 7 7 7 7 6 5 4 3 3 2 3 2 2 2 3 6 6 3 2 1 1 1 1 2 2 2
11 11 12 12 12 12 12 12 13 13 13 12 11 11 10 9 9 8 8 8 8 8 7 7 6 5 4 3 3 3 2 3 3 5 6 5 3 1 1 1 1 2 2
11 11 12 12 12 12 12 12 12 13 13 13 12 12 11 10 10 9 9 9 9 9 9 8 7 7 5 3 3 2 3 4 4 4 5 5 5 3 1 1 1 0 1

GFSSE_con_lsi_132.txt.gz
Lid_Strength_Index
0 -1 -0 -1 -1 -1 -1 -1 -1 -1 -1 -1 -1 -1 -1 -1 -1 -1 -1 -1 -1 -1 -2 -1 -1 -1 -1 -1 -1 -1 -1 -1 -1 -1 -1 -1 -1 -1 -1 -1 -2 -1 -1
-1 -1 -0 -1 -1 -1 -1 -1 -1 -1 -1 -1 -1 -1 -1 -1 -1 -1 -1 -1 -1 -1 -1 -1 -1 -1 -1 -1 -1 -2 -2 -1 -1 -1 -1 -1 -1 -1 -1 -1 -2 -1 -2
-0 -1 -1 -0 -1 -1 -1 -1 -1 -1 -1 -1 -1 -1 -1 -1 -1 -1 -1 -1 -1 -1 -1 -1 -1 -1 -1 -1 -2 -2 -2 -1 -1 -1 -1 -1 -1 -1 -1 -1 -1 -2 -2
-0 -1 -1 -0 -1 -1 -1 -1 -1 -1 -1 -1 -1 -1 -1 -1 -1 -1 -1 -1 -1 -1 -1 -1 -1 -1 -2 -2 -1 -1 -1 -1 -1 -1 -1 -1 -1 -1 -1 -1 -1 -1 -2
-0 -1 -1 -0 -0 -1 -1 -1 -1 -1 -1 -1 -1 -1 -1 -1 -1 -1 -1 -1 -1 -1 -1 -1 -1 -1 -1 -1 -1 -1 -1 -1 -1 -1 -1 -2 -2 -1 -1 -1 -1 -1 -2
-0 -1 -0 -0 -0 -1 -1 -1 -1 -1 -0 -0 -1 -1 -1 -1 -1 -1 -1 -1 -1 -1 -1 -1 -1 -1 -1 -1 -1 -1 -1 -1 -1 -1 -1 -1 -1 -1 -1 -2 -2 -2 -2
-0 -1 -1 0 -0 -1 -1 -1 -1 -1 -0 -0 -0 -1 -1 -1 -1 -1 -1 -1 -1 -1 -1 -1 -1 -0 -1 -1 -1 -1 -1 -1 -1 -1 -1 -2 -2 -2 -1 -2 -2 -2 -2
-0 -1 -1 -1 -0 -0 -0 -0 -0 -0 -0 -1 -0 -0 -1 -0 -0 -0 -1 -0 -0 -0 -0 -0 -0 -0 -1 -1 -1 -1 -1 -1 -1 -1 -1 -1 -1 -1 -1 -2 -2 -2 -2
-1 -1 -1 -1 -1 -0 0 0 0 -0 -0 -0 -0 -0 -0 -0 -0 -0 -0 -0 -0 -0 -0 -0 -0 -0 -1 -1 -1 -0 -0 -0 -1 -1 -1 -1 -1 -1 -1 -2 -2 -2 -2
-1 -1 -1 -1 -1 -2 -1 0 0 0 0 -0 -0 -0 -0 0 -0 -0 -0 -0 -0 -0 0 -0 -0 -0 -1 -0 -0 -0 -0 -0 -1 -1 -1 -2 -1 -1 -1 -2 -2 -2 -2
-0 -0 -1 -1 -1 -1 -1 -1 -0 -0 -0 -0 -1 -0 0 -2 -2 -1 -0 -0 0 1 0 0 0 0 0 -0 -0 -0 -0 -1 -1 -1 -1 -0 -1 -1 -1 -1 -2 -2 -2
1 -0 -1 -1 -1 -1 -1 -1 -1 -1 -1 -1 -1 -2 -1 -2 -2 -1 -1 0 0 1 1 1 0 0 0 -1 -1 -1 -1 -2 -1 -1 -1 -0 -1 -1 -1 -2 -2 -1 -1
1 1 -1 -1 -1 -1 -1 -1 -1 -1 -1 -1 -1 -1 -2 -1 -1 -1 -1 -1 -2 -0 -1 -1 -1 -1 -1 -1 -1 -1 -1 -1 -1 -1 -1 0 -1 -1 -1 -1 -1 -1 -1
1 0 -0 -1 -1 -0 -1 -1 -1 -0 -1 -1 -1 -1 -1 -0 -0 -1 -1 -1 -1 -1 -1 -1 -1 -1 -1 -1 -1 -1 -1 -1 -1 -1 -1 1 -0 -1 -1 -1 -1 -1 -1
1 0 -0 -1 -0 -0 -0 -0 -0 -0 -0 -1 -1 -1 -1 -0 -0 -0 -0 -1 -1 -1 -1 -1 -1 -1 -0 -1 -1 -1 -1 -1 -1 -1 -1 1 0 -1 -1 -1 -1 -1 -2
3 3 2 1 1 1 3 1 -0 -1 -1 -1 -1 -1 -1 -1 -0 -0 -0 -1 -1 -1 -1 -1 -0 -0 -0 -1 -0 -1 -1 -1 -1 -1 -1 -1 1 0 -1 -1 -1 -2 -2
3 3 4 3 2 2 2 2 3 2 2 3 3 3 4 4 4 -1 -1 -0 -0 -1 -1 -1 -0 -0 -0 -0 0 -0 -0 -1 -1 -1 -1 -1 -1 2 1 -1 -1 -1 -1
5 5 5 5 4 3 3 3 3 3 4 5 4 4 4 4 4 3 1 -0 -1 -1 -0 -0 -0 0 1 1 1 0 -0 -0 -0 -1 -1 -1 -1 -1 1 2 0 -1 -1
6 6 6 5 5 5 4 3 3 3 3 4 3 4 4 4 4 3 1 1 2 -0 -0 -0 0 0 1 1 1 1 0 0 -0 -0 -0 -1 -1 -1 -1 1 2 1 0
6 6 6 6 6 5 6 5 4 5 4 4 5 5 5 5 4 3 2 1 0 1 0 0 0 0 0 1 1 1 1 0 -0 0 -0 -0 -1 -1 -1 -1 -1 -0 2
6 6 6 6 6 6 6 6 5 5 3 3 5 4 4 3 2 2 2 1 0 -0 0 1 2 1 1 0 2 2 2 1 1 0 -0 -0 -0 -1 -1 -1 -1 -1 -0
6 6 6 6 6 6 6 6 6 6 5 4 5 4 4 3 3 3 2 2 1 1 0 -0 0 3 2 1 3 3 5 3 1 1 0 0 -0 -0 -0 -1 -1 -1 -1
7 7 7 7 7 6 6 5 5 5 5 5 5 5 4 4 3 3 3 3 2 2 2 1 0 1 2 2 1 3 5 6 3 1 1 1 0 0 -0 -0 -1 -1 -1
6 6 6 6 6 6 5 5 6 6 7 6 6 5 5 4 5 4 4 4 4 3 3 2 2 1 2 3 2 2 2 2 5 5 2 2 1 1 0 0 -0 -0 -1
6 6 6 6 6 6 5 5 6 6 6 6 6 6 5 5 5 5 5 6 6 6 5 5 4 3 2 2 2 2 2 2 2 4 6 4 2 1 0 0 0 -0 -1
6 6 5 6 6 6 6 6 6 7 7 7 7 8 7 7 6 6 6 7 7 7 7 6 6 5 5 4 3 2 2 4 4 3 4 4 4 2 1 0 0 -0 -1